[[{"header":{"parameterUnit":"m.s-1","parameterCategory":1,"la1":30.6,"la2":29.2853,"lo1":-89.7004,"lo2":-87.6739,"dy":0.0162,"dx":0.0183,"nx":112,"ny":82,"refTime":"2026-04-03T00:00:00:Z","depth":0,"parameterNumber":2,"parameterNumberName":"U-component_of_WINDS"},"data":[0.0,0.0,0.0,0.0,0.0,0.0,0.0,0.0,0.0,0.0,0.0,0.0,0.0,0.0,0.0,0.0,0.0,0.0,0.0,0.0,0.0,0.0,0.0,0.0,0.0,0.0,0.0,0.0,0.0,0.0,0.0,0.0,0.0,0.0,0.0,0.0,0.0,0.0,0.0,0.0,0.0,0.0,0.0,0.0,0.0,0.0,0.0,0.0,0.0,0.0,0.0,0.0,0.0,0.0,0.0,0.0,0.0,0.0,0.0,0.0,0.0,0.0,0.0,0.0,0.0,0.0,0.0,0.0,0.0,0.0,0.0,0.0,0.0,0.0,0.0,0.0,0.0,0.0,0.0,0.0,0.0,0.0,0.0,0.0,0.0,0.0,0.0,0.0,0.0,0.0,-1.0285,-1.1672,-1.2465,-1.2915,-1.2915,-1.2221,-1.1255,-0.9978,0.0,0.0,0.0,0.0,0.0,0.0,0.0,0.0,0.0,0.0,0.0,0.0,0.0,0.0,0.0,0.0,0.0,0.0,0.0,0.0,0.0,0.0,0.0,0.0,0.0,0.0,0.0,0.0,0.0,0.0,0.0,0.0,0.0,0.0,0.0,0.0,0.0,0.0,0.0,0.0,0.0,0.0,0.0,0.0,0.0,0.0,0.0,0.0,0.0,0.0,0.0,0.0,0.0,0.0,0.0,0.0,0.0,0.0,0.0,0.0,0.0,0.0,0.0,0.0,0.0,0.0,0.0,0.0,0.0,0.0,0.0,0.0,0.0,0.0,0.0,0.0,0.0,0.0,0.0,0.0,0.0,0.0,0.0,0.0,0.0,0.0,0.0,0.0,0.0,0.0,0.0,0.0,0.0,0.0,0.0,0.0,0.0,0.0,0.0,0.0,0.0,0.0,0.0,0.0,-1.0109,-1.2448,-1.2817,-1.2915,-1.2915,-1.2221,-1.1255,-0.9978,0.0,0.0,0.0,0.0,0.0,0.0,0.0,0.0,0.0,0.0,0.0,0.0,0.0,0.0,0.0,0.0,0.0,0.0,0.0,0.0,0.0,0.0,0.0,0.0,0.0,0.0,0.0,0.0,0.0,0.0,0.0,0.0,0.0,0.0,0.0,0.0,0.0,0.0,0.0,0.0,0.0,0.0,0.0,0.0,0.0,0.0,0.0,0.0,0.0,0.0,0.0,0.0,0.0,0.0,0.0,0.0,0.0,0.0,0.0,0.0,0.0,0.0,0.0,0.0,0.0,0.0,0.0,0.0,0.0,0.0,0.0,0.0,0.0,0.0,0.0,0.0,0.0,0.0,0.0,0.0,0.0,0.0,0.0,0.0,0.0,0.0,0.0,0.0,0.0,0.0,0.0,0.0,0.0,0.0,0.0,0.0,0.0,0.0,0.0,0.0,0.0,0.0,0.0,-1.056,-1.1628,-1.2769,-1.3111,-1.315,-1.2915,-1.1882,-1.0866,-0.9956,-0.8401,0.0,0.0,0.0,0.0,0.0,0.0,0.0,0.0,0.0,0.0,0.0,0.0,0.0,0.0,0.0,0.0,0.0,0.0,0.0,0.0,0.0,0.0,0.0,0.0,0.0,0.0,0.0,0.0,0.0,0.0,0.0,0.0,0.0,0.0,0.0,0.0,0.0,0.0,0.0,0.0,0.0,0.0,0.0,0.0,0.0,0.0,0.0,0.0,0.0,0.0,0.0,0.0,0.0,0.0,0.0,0.0,0.0,0.0,0.0,0.0,0.0,0.0,0.0,0.0,0.0,0.0,0.0,0.0,0.0,0.0,0.0,0.0,0.0,0.0,0.0,0.0,0.0,0.0,0.0,0.0,0.0,0.0,0.0,0.0,0.0,0.0,0.0,0.0,0.0,0.0,0.0,0.0,0.0,0.0,0.0,0.0,0.0,0.0,0.0,0.0,0.0,0.0,-1.2182,-1.3013,-1.2915,-1.3262,-1.334,-1.2935,-1.1563,-1.049,-0.9933,-0.7917,0.0,0.0,0.0,0.0,0.0,0.0,0.0,0.0,0.0,0.0,0.0,0.0,0.0,0.0,0.0,0.0,0.0,0.0,0.0,0.0,0.0,0.0,0.0,0.0,0.0,0.0,0.0,0.0,0.0,0.0,0.0,0.0,0.0,0.0,0.0,0.0,0.0,0.0,0.0,0.0,0.0,0.0,0.0,0.0,0.0,0.0,0.0,0.0,0.0,0.0,0.0,0.0,0.0,0.0,0.0,0.0,0.0,0.0,0.0,0.0,0.0,0.0,0.0,0.0,0.0,0.0,0.0,0.0,0.0,0.0,0.0,0.0,0.0,0.0,0.0,0.0,0.0,0.0,0.0,0.0,0.0,0.0,0.0,0.0,0.0,0.0,0.0,0.0,0.0,0.0,0.0,0.0,0.0,0.0,0.0,0.0,0.0,0.0,0.0,0.0,0.0,0.0,-1.2163,-1.332,-1.2954,-1.3262,-1.334,-1.2935,-1.1387,-1.0271,-0.9916,-0.7426,0.0,0.0,0.0,0.0,0.0,0.0,0.0,0.0,0.0,0.0,0.0,0.0,0.0,0.0,0.0,0.0,0.0,0.0,0.0,0.0,0.0,0.0,0.0,0.0,0.0,0.0,0.0,0.0,0.0,0.0,0.0,0.0,0.0,0.0,0.0,0.0,0.0,0.0,0.0,0.0,0.0,0.0,0.0,0.0,0.0,0.0,0.0,0.0,0.0,0.0,0.0,0.0,0.0,0.0,0.0,0.0,0.0,0.0,0.0,0.0,0.0,0.0,0.0,0.0,0.0,0.0,0.0,0.0,0.0,0.0,0.0,0.0,0.0,0.0,0.0,0.0,0.0,0.0,0.0,0.0,0.0,0.0,0.0,0.0,0.0,0.0,0.0,0.0,0.0,0.0,0.0,0.0,0.0,0.0,0.0,0.0,0.0,0.0,0.0,0.0,0.0,0.0,-1.2653,-1.3555,0.0,-1.3782,-1.3704,-1.3301,-1.1658,-1.044,-0.9933,0.0,0.0,0.0,0.0,0.0,0.0,0.0,0.0,0.0,0.0,0.0,0.0,0.0,0.0,0.0,0.0,0.0,0.0,0.0,0.0,0.0,0.0,0.0,0.0,0.0,0.0,0.0,0.0,0.0,0.0,0.0,0.0,0.0,0.0,0.0,0.0,0.0,0.0,0.0,0.0,0.0,0.0,0.0,0.0,0.0,0.0,0.0,0.0,0.0,0.0,0.0,0.0,0.0,0.0,0.0,0.0,0.0,0.0,0.0,0.0,0.0,0.0,0.0,0.0,0.0,0.0,0.0,0.0,0.0,0.0,0.0,0.0,0.0,0.0,0.0,0.0,0.0,0.0,0.0,0.0,0.0,0.0,0.0,0.0,0.0,0.0,0.0,0.0,0.0,0.0,0.0,0.0,0.0,0.0,0.0,0.0,0.0,0.0,0.0,0.0,0.0,0.0,-1.2008,-1.3061,-1.3782,0.0,-1.4114,-1.3938,-1.3535,-1.1765,-1.0407,-0.981,0.0,0.0,0.0,0.0,0.0,0.0,0.0,0.0,0.0,0.0,0.0,0.0,0.0,0.0,0.0,0.0,0.0,0.0,0.0,0.0,0.0,0.0,0.0,0.0,0.0,0.0,0.0,0.0,0.0,0.0,0.0,0.0,0.0,0.0,0.0,0.0,0.0,0.0,0.0,0.0,0.0,0.0,0.0,0.0,0.0,0.0,0.0,0.0,0.0,0.0,0.0,0.0,0.0,0.0,0.0,0.0,0.0,0.0,0.0,0.0,0.0,0.0,0.0,0.0,0.0,0.0,0.0,0.0,0.0,0.0,0.0,0.0,0.0,0.0,0.0,0.0,0.0,0.0,0.0,0.0,0.0,0.0,0.0,0.0,0.0,0.0,0.0,0.0,0.0,0.0,0.0,0.0,0.0,0.0,0.0,0.0,0.0,0.0,0.0,0.0,0.0,0.0,-1.2047,-1.3334,-1.4114,-1.4114,-1.4114,-1.3938,-1.3555,-1.1626,-1.0151,0.0,0.0,0.0,0.0,0.0,0.0,0.0,0.0,0.0,0.0,0.0,0.0,0.0,0.0,0.0,0.0,0.0,0.0,0.0,0.0,0.0,0.0,0.0,0.0,0.0,0.0,0.0,0.0,0.0,0.0,0.0,0.0,0.0,0.0,0.0,0.0,0.0,0.0,0.0,0.0,0.0,0.0,0.0,0.0,0.0,0.0,0.0,0.0,0.0,0.0,0.0,0.0,0.0,0.0,0.0,0.0,0.0,0.0,0.0,0.0,0.0,0.0,0.0,0.0,0.0,0.0,0.0,0.0,0.0,0.0,0.0,0.0,0.0,0.0,0.0,0.0,0.0,0.0,0.0,0.0,0.0,0.0,0.0,0.0,0.0,0.0,0.0,0.0,0.0,0.0,0.0,0.0,0.0,0.0,0.0,0.0,0.0,0.0,0.0,0.0,0.0,0.0,0.0,-1.248,-1.351,-1.4348,-1.4933,-1.4766,-1.4414,-1.3958,-1.2244,-1.078,-0.9843,0.0,0.0,0.0,0.0,0.0,0.0,0.0,0.0,0.0,0.0,0.0,0.0,0.0,0.0,0.0,0.0,0.0,0.0,0.0,0.0,0.0,0.0,0.0,0.0,0.0,0.0,0.0,0.0,0.0,0.0,0.0,0.0,0.0,0.0,0.0,0.0,0.0,0.0,0.0,0.0,0.0,0.0,0.0,0.0,0.0,0.0,0.0,0.0,0.0,0.0,0.0,0.0,0.0,0.0,0.0,0.0,0.0,0.0,0.0,0.0,0.0,0.0,0.0,0.0,0.0,0.0,0.0,0.0,0.0,0.0,0.0,0.0,0.0,0.0,0.0,0.0,0.0,0.0,0.0,0.0,0.0,0.0,0.0,0.0,0.0,0.0,0.0,0.0,0.0,0.0,0.0,0.0,0.0,0.0,0.0,0.0,0.0,0.0,0.0,0.0,0.0,0.0,-1.268,-1.3588,-1.4445,-1.5312,-1.5039,-1.4609,-1.4133,-1.2485,-1.0981,-0.9832,0.0,0.0,0.0,0.0,0.0,0.0,0.0,0.0,0.0,0.0,0.0,0.0,0.0,0.0,0.0,0.0,0.0,0.0,0.0,0.0,0.0,0.0,0.0,0.0,0.0,0.0,0.0,0.0,0.0,0.0,0.0,0.0,0.0,0.0,0.0,0.0,0.0,0.0,0.0,0.0,0.0,0.0,0.0,0.0,0.0,0.0,0.0,0.0,0.0,0.0,0.0,0.0,0.0,0.0,0.0,0.0,0.0,0.0,0.0,0.0,0.0,0.0,0.0,0.0,0.0,0.0,0.0,0.0,0.0,0.0,0.0,0.0,0.0,0.0,0.0,0.0,0.0,0.0,0.0,0.0,0.0,0.0,0.0,0.0,0.0,0.0,0.0,0.0,0.0,0.0,0.0,0.0,0.0,0.0,0.0,0.0,0.0,0.0,0.0,0.0,0.0,0.0,-1.268,-1.3588,-1.4445,-1.5312,-1.5078,-1.4668,-1.4192,-1.2565,-1.1007,-0.9729,0.0,0.0,0.0,0.0,0.0,0.0,0.0,0.0,0.0,0.0,0.0,0.0,0.0,0.0,0.0,0.0,0.0,0.0,0.0,0.0,0.0,0.0,0.0,0.0,0.0,0.0,0.0,0.0,0.0,0.0,0.0,0.0,0.0,0.0,0.0,0.0,0.0,0.0,0.0,0.0,0.0,0.0,0.0,0.0,0.0,0.0,0.0,0.0,0.0,0.0,0.0,0.0,0.0,0.0,0.0,0.0,0.0,0.0,0.0,0.0,-2.1336,-1.9202,0.0,0.0,0.0,0.0,0.0,0.0,0.0,0.0,0.0,0.0,0.0,0.0,0.0,0.0,0.0,0.0,0.0,0.0,0.0,0.0,0.0,0.0,0.0,0.0,0.0,0.0,0.0,0.0,0.0,0.0,0.0,0.0,0.0,0.0,0.0,0.0,0.0,0.0,0.0,0.0,-1.268,-1.3588,-1.4445,-1.5312,-1.5332,-1.5098,-1.4687,-1.2993,-1.1611,-1.0729,-0.829,0.0,0.0,0.0,0.0,0.0,0.0,0.0,0.0,0.0,0.0,0.0,0.0,0.0,0.0,0.0,0.0,0.0,0.0,0.0,0.0,0.0,0.0,0.0,0.0,0.0,0.0,0.0,0.0,0.0,0.0,0.0,0.0,0.0,0.0,0.0,0.0,0.0,0.0,0.0,0.0,0.0,0.0,0.0,0.0,0.0,0.0,0.0,0.0,0.0,0.0,0.0,0.0,0.0,0.0,0.0,0.0,0.0,0.0,0.0,-2.471,-2.2502,0.0,0.0,0.0,0.0,0.0,0.0,0.0,0.0,0.0,0.0,0.0,0.0,0.0,0.0,0.0,0.0,0.0,0.0,0.0,0.0,0.0,0.0,0.0,0.0,0.0,0.0,0.0,0.0,0.0,0.0,0.0,0.0,0.0,0.0,0.0,0.0,0.0,0.0,0.0,0.0,-1.2988,-1.3926,-1.466,-1.5352,-1.541,-1.5234,-1.4824,-1.3634,-1.238,-1.1065,-0.9274,0.0,0.0,0.0,0.0,0.0,0.0,0.0,0.0,0.0,0.0,0.0,0.0,0.0,0.0,0.0,0.0,0.0,0.0,0.0,0.0,0.0,0.0,0.0,0.0,0.0,0.0,0.0,0.0,0.0,0.0,0.0,0.0,0.0,0.0,0.0,0.0,0.0,0.0,0.0,0.0,0.0,0.0,0.0,0.0,0.0,0.0,0.0,0.0,0.0,0.0,0.0,0.0,0.0,-2.9714,-3.0342,-2.9864,-3.1451,-3.1899,-3.124,-2.8517,-2.6628,-2.5371,-2.3652,0.0,0.0,0.0,0.0,0.0,0.0,0.0,0.0,0.0,0.0,0.0,0.0,0.0,0.0,0.0,0.0,0.0,0.0,0.0,0.0,0.0,0.0,0.0,0.0,-1.999,-1.8905,-1.6197,0.0,0.0,0.0,0.0,0.0,0.0,0.0,0.0,0.0,0.0,0.0,-1.3457,-1.4297,-1.5009,-1.5469,-1.5449,-1.5273,-1.4922,-1.4213,-1.3148,-1.1602,-1.0448,-0.9044,0.0,0.0,0.0,0.0,0.0,0.0,0.0,0.0,0.0,0.0,0.0,0.0,0.0,0.0,0.0,0.0,0.0,0.0,0.0,0.0,0.0,0.0,0.0,0.0,0.0,0.0,0.0,0.0,0.0,0.0,0.0,0.0,-1.9471,-2.1248,0.0,0.0,0.0,0.0,0.0,0.0,0.0,0.0,0.0,0.0,0.0,0.0,0.0,-2.8248,-2.8906,-3.136,-3.2587,-3.2617,-3.4053,-3.4681,-3.4592,-3.4861,-3.4921,-3.4831,-3.4382,0.0,-2.8209,-2.7372,0.0,0.0,0.0,0.0,0.0,0.0,0.0,0.0,0.0,0.0,0.0,0.0,0.0,0.0,0.0,0.0,0.0,0.0,0.0,0.0,0.0,0.0,-2.2393,-2.2619,-2.261,-2.2301,0.0,-1.8505,-1.5654,-1.4238,-1.3102,0.0,0.0,0.0,0.0,0.0,0.0,0.0,-1.386,-1.4473,-1.5126,-1.5928,-1.5644,-1.5391,-1.5332,-1.4382,-1.3677,-1.3458,-1.1782,-1.0431,-0.9577,-0.8498,0.0,0.0,0.0,0.0,0.0,0.0,0.0,0.0,0.0,0.0,0.0,0.0,0.0,0.0,0.0,0.0,0.0,0.0,0.0,0.0,0.0,0.0,0.0,0.0,0.0,0.0,0.0,0.0,0.0,-2.0164,-2.196,-2.2381,-2.2403,-2.1897,0.0,0.0,0.0,0.0,0.0,0.0,0.0,0.0,0.0,-2.9864,-3.0851,-3.1659,-3.2347,-3.4233,-3.519,-3.519,-3.6507,-3.7135,-3.7135,-3.7524,-3.7704,-3.7704,-3.7704,-3.6343,-3.3976,-3.113,-2.9025,-2.7533,0.0,0.0,0.0,0.0,-2.7171,-2.7061,-2.8581,-2.8376,-2.7248,-2.5883,0.0,0.0,0.0,0.0,0.0,0.0,0.0,0.0,0.0,0.0,-2.4199,-2.4858,-2.4757,-2.4456,-2.4205,-2.2342,-1.9979,0.0,-1.5736,-1.4219,-1.3043,0.0,0.0,0.0,0.0,-1.3945,-1.4718,-1.5449,-1.5937,-1.6085,-1.5928,-1.5684,-1.543,-1.4975,-1.4448,-1.3854,-1.3021,-1.204,-1.0882,-0.9775,-0.86,0.0,0.0,0.0,0.0,0.0,0.0,0.0,0.0,0.0,0.0,0.0,0.0,0.0,0.0,0.0,0.0,0.0,0.0,0.0,0.0,0.0,0.0,0.0,0.0,0.0,0.0,0.0,0.0,-2.3062,-2.4487,-2.4253,-2.5305,-2.5155,0.0,0.0,0.0,0.0,0.0,0.0,-2.9774,-3.0492,-3.1659,-3.3484,-3.4173,-3.4801,-3.5492,-3.6656,-3.7225,-3.7255,-3.8212,-3.8661,-3.8661,-3.92,-3.9373,-3.9373,-3.9373,-3.914,-3.8357,-3.444,-3.2433,-3.1601,-2.9806,-2.9094,-2.9262,-3.043,-3.0522,-3.0402,-3.2527,-3.2463,-3.1148,-2.9872,-2.8274,-2.6352,-2.3429,0.0,0.0,0.0,0.0,-2.3502,-2.5059,-2.546,-2.5686,-2.67,-2.6565,-2.6189,-2.6063,-2.5285,-2.3735,0.0,-1.8565,-1.6806,-1.5465,0.0,0.0,0.0,0.0,-1.5273,-1.5703,-1.6297,-1.6641,-1.6457,-1.6339,-1.6055,-1.5625,-1.5586,-1.5187,-1.4277,-1.4119,-1.3423,-1.197,-1.0924,-0.9814,-0.8614,0.0,0.0,0.0,0.0,0.0,0.0,0.0,0.0,0.0,0.0,0.0,0.0,0.0,0.0,0.0,0.0,0.0,0.0,0.0,0.0,0.0,0.0,0.0,0.0,0.0,0.0,0.0,0.0,0.0,-2.8166,-2.898,0.0,0.0,0.0,0.0,-2.9182,-3.0464,-3.178,-3.3185,-3.3904,-3.4893,-3.6237,-3.6896,-3.7524,-3.8182,-3.8901,-3.926,-3.926,-3.9313,-3.9379,-3.9343,-3.9373,-3.9373,-3.9373,-3.9373,-3.9409,-3.92,-3.7101,-3.5845,-3.513,-3.3753,-3.3185,-3.3275,-3.3994,-3.4234,-3.4324,-3.507,-3.4859,-3.4312,-3.4545,-3.1969,-2.8338,-2.6103,-2.4682,0.0,0.0,-2.5059,-2.5686,-2.6866,-2.7143,-2.7293,-2.7871,-2.7996,-2.7821,-2.7318,-2.6776,-2.5695,0.0,-2.1521,-1.9937,-1.8533,0.0,-1.6223,-1.5389,-1.5713,-1.6183,-1.657,-1.6668,-1.6843,-1.7266,-1.6953,-1.6523,-1.6105,-1.6065,-1.584,-1.5352,-1.4943,-1.4239,-1.3077,-1.1996,-1.0763,-0.9362,-0.8091,0.0,0.0,0.0,0.0,0.0,0.0,0.0,0.0,0.0,0.0,0.0,0.0,0.0,0.0,0.0,0.0,0.0,0.0,0.0,0.0,0.0,0.0,0.0,0.0,0.0,0.0,0.0,0.0,-3.0347,-3.1841,0.0,-3.0285,-3.0532,-3.1158,-3.2048,-3.3335,-3.4651,-3.5938,-3.6626,-3.7614,-3.896,-3.923,-3.9649,-4.0307,-4.0546,-4.0696,-4.0666,-4.0247,-4.0038,-4.0038,-3.9619,-3.9373,-3.9373,-3.9373,-3.9373,-3.9379,-3.8661,-3.7973,-3.7285,-3.6357,-3.5998,-3.6058,-3.6267,-3.6357,-3.6387,-3.6656,-3.6567,-3.6064,-3.419,-3.1611,-2.9047,-2.7637,-2.6942,-2.6766,-2.7283,-2.7559,-2.7921,-2.8699,-2.89,-2.895,-2.9151,-2.89,-2.8537,-2.8373,-2.7921,-2.7168,-2.6038,-2.3796,-2.1824,-2.1026,-1.9557,-1.8206,-1.7324,-1.7279,-1.7285,-1.7168,-1.7383,-1.75,-1.7402,-1.7246,-1.6973,-1.6523,-1.6261,-1.6026,-1.587,-1.5204,-1.4479,-1.3765,-1.2697,-1.1559,-1.0348,-0.9266,-0.7996,0.0,0.0,0.0,0.0,0.0,0.0,0.0,0.0,0.0,0.0,0.0,0.0,0.0,0.0,0.0,0.0,0.0,0.0,0.0,0.0,0.0,0.0,0.0,0.0,0.0,-2.982,-3.2018,-3.2467,-3.4472,-3.5011,-3.3035,-3.3813,-3.4681,-3.513,-3.6387,-3.7524,-3.8362,-3.905,-3.9798,-4.0696,-4.0726,-4.0935,-4.1422,-4.1422,-4.1422,-4.1384,-4.0935,-4.0726,-4.0726,-4.0277,-4.0068,-4.0068,-3.9858,-3.9738,-3.9738,-3.9499,-3.914,-3.8691,-3.8242,-3.8093,-3.8093,-3.8093,-3.8093,-3.8063,-3.7823,-3.7526,-3.6869,-3.4341,-3.2116,-3.026,-2.9413,-2.8909,-2.875,-2.9126,-2.9189,-2.9302,-2.9704,-2.9804,-2.9804,-2.9804,-2.9503,-2.9139,-2.8938,-2.8612,-2.8222,-2.767,-2.5698,-2.3872,-2.3055,-2.1753,-2.0457,-1.9254,-1.8993,-1.8694,-1.7885,-1.8047,-1.8066,-1.7637,-1.7598,-1.7422,-1.696,-1.6543,-1.6261,-1.6105,-1.5283,-1.459,-1.4133,-1.3058,-1.1964,-1.083,-0.956,-0.8236,-0.6859,0.0,0.0,0.0,0.0,0.0,0.0,0.0,0.0,0.0,0.0,0.0,0.0,0.0,0.0,0.0,0.0,0.0,0.0,0.0,0.0,0.0,0.0,0.0,-2.9651,-3.2527,-3.4593,-3.4653,-3.6896,-3.7734,-3.5878,-3.7375,-3.8482,-3.8482,-3.9709,-4.0427,-4.0427,-4.1025,-4.1384,-4.1452,-4.1452,-4.1452,-4.1482,-4.1482,-4.1482,-4.1482,-4.1452,-4.1452,-4.1452,-4.1384,-4.1422,-4.1354,-4.0696,-4.0427,-4.0367,-3.9738,-3.9439,-3.9439,-3.9403,-3.9373,-3.9373,-3.9373,-3.9373,-3.932,-3.8661,-3.7794,-3.6837,-3.5459,-3.3779,-3.211,-3.1378,-3.0533,-2.9804,-2.9804,-2.9804,-2.9804,-2.9804,-2.9804,-2.9804,-2.9804,-2.9804,-2.9628,-2.9038,-2.8913,-2.8762,-2.8247,-2.7304,-2.6133,-2.4637,-2.3905,-2.2933,-2.1153,-2.0857,0.0,-1.8852,-1.8652,-1.8442,-1.8066,-1.8008,-1.7852,-1.7441,-1.6992,-1.6543,-1.6124,-1.5283,-1.457,-1.4133,-1.3085,-1.2007,-1.0897,-0.899,-0.7577,-0.6664,0.0,0.0,0.0,0.0,0.0,0.0,0.0,0.0,0.0,0.0,0.0,0.0,0.0,0.0,0.0,0.0,0.0,0.0,0.0,0.0,0.0,-3.002,-3.2198,-3.2377,-3.4442,-3.6447,-3.7883,-3.911,-3.9828,-3.9768,-4.0247,-4.0583,-4.0583,-4.0905,-4.1115,-4.1115,-4.1294,-4.1632,-4.2111,-4.2141,-4.2312,-4.2751,-4.2791,-4.2791,-4.2751,-4.2312,-4.2141,-4.2111,-4.1632,-4.1422,-4.1422,-4.1242,-4.1115,-4.1055,-4.0397,-4.0127,-4.0098,-3.9619,-3.9373,-3.9373,-3.9373,-3.9373,-3.9343,-3.92,-3.8633,-3.7735,-3.5881,-3.4362,-3.2888,-3.1255,-3.0314,-2.9804,-2.9804,-2.9804,-2.9804,-2.9804,-2.9804,-2.9804,-2.9804,-2.9804,-2.9754,-2.9578,-2.9553,-2.9377,-2.8787,-2.8448,-2.7873,-2.6685,-2.5414,-2.4283,-2.3468,-2.216,0.0,-2.0265,-1.9269,-1.8559,-1.8442,-1.8149,-1.7969,-1.7852,-1.7135,-1.6543,-1.6124,-1.4961,-1.4231,-1.4114,-1.3548,-1.2849,-1.2051,-1.0789,-0.9523,0.0,0.0,0.0,0.0,0.0,0.0,0.0,0.0,0.0,0.0,0.0,0.0,0.0,0.0,0.0,0.0,0.0,0.0,0.0,0.0,0.0,0.0,-3.2766,-3.504,-3.5878,-3.6985,-3.8242,-3.9649,-4.0397,-4.0965,-4.1354,-4.1422,-4.1422,-4.1422,-4.1662,-4.1841,-4.1841,-4.2043,-4.2372,-4.2761,-4.2761,-4.294,-4.329,-4.329,-4.329,-4.329,-4.294,-4.2761,-4.2761,-4.2372,-4.2192,-4.2192,-4.1961,-4.1841,-4.1782,-4.1085,-4.0816,0.0,0.0,0.0,0.0,0.0,-3.9373,-3.9379,-3.908,-3.8472,-3.7556,-3.6097,-3.4584,-3.3133,-3.1915,-3.0849,-3.0131,-3.0131,-2.998,-2.9804,-2.9804,-2.9804,-2.9804,-2.9804,-2.9804,-2.9804,-2.9804,-2.9804,-2.9704,-2.9352,-2.9063,0.0,-2.8072,-2.6829,-2.5729,-2.5015,-2.3787,-2.2454,-2.121,-2.0309,-1.9549,-1.8961,-1.8535,-1.8247,-1.8247,-1.75,0.0,0.0,0.0,-1.4484,-1.4133,-1.3597,0.0,0.0,0.0,0.0,0.0,0.0,0.0,0.0,-0.7869,-0.7762,0.0,0.0,0.0,0.0,0.0,0.0,0.0,0.0,0.0,0.0,0.0,0.0,0.0,0.0,0.0,0.0,-3.519,-3.7464,-3.9379,-3.9709,-3.9978,-4.0546,-4.1145,-4.1534,-4.1594,-4.1594,-4.1594,-4.1594,-4.2171,-4.25,-4.25,0.0,0.0,0.0,0.0,-4.329,-4.329,-4.329,-4.329,-4.329,-4.329,-4.329,-4.329,-4.329,-4.329,-4.326,-4.2731,-4.25,-4.247,-4.1811,-4.1482,-4.1265,-4.0008,-3.9493,-3.9529,-3.9439,-3.9373,-3.932,-3.8721,0.0,0.0,-3.6382,-3.4835,-3.3237,-3.3014,-3.186,-3.0683,-3.0633,-3.0256,-2.988,-2.9804,-2.9804,-2.9804,-2.9804,-2.9804,-2.9804,-2.9804,-2.9804,-2.9804,-2.9804,-2.9377,-2.8988,-2.8988,-2.8122,-2.7094,-2.6082,-2.5481,-2.4232,-2.1932,-2.1497,-2.0891,-1.9504,0.0,0.0,-1.8676,-1.793,-1.7266,-1.6804,-1.5946,-1.5108,-1.4367,-1.3801,-1.347,-1.3433,-1.2849,-1.2479,-1.236,-1.1639,-1.1382,-1.1525,-0.9211,-0.8591,0.0,0.0,0.0,0.0,0.0,0.0,0.0,0.0,0.0,0.0,0.0,0.0,0.0,0.0,0.0,-3.5995,-3.7823,-3.9349,-4.0786,-4.1482,-4.1871,-4.2021,-4.2141,-4.2372,-4.291,-4.2901,-4.2901,-4.2901,-4.3021,-4.315,-4.315,-4.323,-4.329,-4.329,-4.329,-4.329,-4.329,-4.329,-4.329,-4.329,0.0,0.0,-4.329,-4.329,-4.329,-4.329,-4.317,-4.315,-4.309,-4.2432,-4.1901,-4.1294,-4.0516,-4.0217,-4.0157,-3.9619,-3.9373,-3.9409,-3.926,-3.9092,-3.8773,-3.775,-3.6306,-3.4776,-3.3874,-3.2507,0.0,-3.0733,-3.0532,-3.0357,-2.9905,-2.9804,-2.9804,-2.9804,-2.9804,-2.9804,-2.9804,-2.9804,-2.9804,-2.9804,-2.9704,-2.9628,-2.9628,-2.8699,-2.7723,-2.7105,-2.6226,-2.5034,-2.3326,-2.2091,-2.0958,-1.9917,-1.9414,-1.916,-1.916,-1.8379,-1.7715,-1.7285,-1.6457,-1.5889,-1.5733,-1.5914,-1.5842,-1.5535,-1.5386,-1.4888,-1.3949,-1.3803,-1.358,-1.3275,-1.0797,-0.9913,0.0,0.0,0.0,0.0,0.0,0.0,0.0,0.0,0.0,0.0,0.0,-3.0242,-3.2168,0.0,-3.6118,-3.8093,-3.9529,-4.0756,-4.1782,-4.2201,-4.241,-4.241,-4.2641,-4.297,-4.326,-4.329,-4.329,-4.329,-4.329,-4.329,-4.329,-4.329,-4.329,-4.329,-4.329,-4.329,-4.329,-4.329,-4.329,-4.329,-4.329,-4.329,-4.329,-4.329,-4.329,-4.329,-4.329,-4.329,-4.326,-4.297,-4.2641,-4.2282,-4.1624,-4.1175,-4.0816,-4.0157,-3.9918,-3.9858,-3.9529,-3.9373,-3.9228,-3.8144,-3.69,-3.5613,-3.4566,-3.3101,-3.1738,-3.1486,-3.121,-3.0884,-3.0357,-3.0206,-3.0131,-2.9854,-2.9804,-2.9804,-2.9804,-2.9804,-2.9804,-2.9804,-2.9804,-2.9804,-2.9804,-2.9327,-2.875,-2.8197,-2.7198,-2.6118,-2.4792,-2.3385,-2.2072,-2.1066,-2.0143,-1.9609,-1.9609,-1.8809,-1.8144,-1.7734,-1.7122,-1.6652,-1.6406,-1.659,-1.659,-1.6406,-1.6406,-1.6135,-1.5536,-1.5149,-1.4926,-1.4817,-1.3155,-1.2176,0.0,0.0,0.0,0.0,0.0,0.0,0.0,-2.8047,-2.9352,-3.0791,-3.2138,-3.3514,-3.513,-3.6956,-3.8571,-3.9798,-4.0876,-4.1841,-4.25,-4.259,-4.259,-4.259,-4.3,-4.329,-4.329,-4.329,-4.329,-4.329,-4.329,-4.329,-4.329,-4.329,-4.329,-4.329,-4.329,-4.329,-4.329,-4.329,-4.329,-4.329,-4.329,-4.329,-4.329,-4.329,-4.329,-4.329,-4.329,-4.329,-4.329,-4.329,-4.329,-4.323,-4.2761,-4.2222,-4.1654,-4.0876,-4.0576,-4.0516,-3.9978,-3.9709,-3.9407,-3.8347,-3.7183,-3.6013,-3.502,-3.3617,-3.2365,-3.224,-3.1888,-3.1436,-3.0909,-3.0683,-3.0507,-3.0055,-2.988,-2.9804,-2.9804,-2.9804,-2.9804,-2.9804,-2.9804,-2.9804,-2.9804,-2.9804,-2.9603,-2.8988,-2.8172,-2.7221,-2.6104,-2.4618,-2.329,-2.2277,-2.0883,-2.0,-1.9922,-1.9241,-1.8676,-1.8281,-1.7949,-1.7598,-1.7213,-1.7194,-1.7194,-1.7194,-1.7116,-1.7116,-1.7194,-1.6459,-1.6278,-1.6562,-1.5912,-1.4778,-2.4596,-2.4255,-2.5099,-2.744,-2.8162,-2.9483,0.0,-3.441,-3.4264,-3.6148,-3.7614,-3.8566,-3.8841,-4.0008,-4.1212,-4.1961,-4.2201,-4.253,-4.308,-4.32,-4.32,-4.32,-4.326,-4.329,-4.329,-4.329,-4.329,-4.329,-4.329,-4.329,-4.329,-4.329,-4.329,-4.329,-4.329,-4.329,-4.329,-4.329,-4.329,-4.329,-4.329,-4.329,-4.329,-4.329,-4.329,-4.329,-4.329,-4.329,-4.329,-4.329,-4.329,-4.329,-4.323,-4.314,-4.2931,-4.1713,-4.1265,-4.1265,-4.1175,-4.0786,-4.0129,-3.9024,-3.7551,-3.6013,-3.502,-3.3901,-3.2867,-3.2365,-3.2164,-3.1989,-3.1436,-3.0959,-3.0608,-3.0532,-3.0156,-2.9804,-2.9804,-2.9804,-2.9804,-2.9804,-2.9804,-2.9804,-2.9804,-2.9804,-2.9603,-2.8988,-2.8787,-2.8213,-2.6678,-2.5148,-2.3873,-2.29,-2.1423,-2.0332,-1.9941,-1.9824,-1.959,-1.918,-1.9102,-1.9043,-1.9004,-1.9004,-1.9004,-1.9004,-1.8578,-1.8578,-1.9004,-1.8508,-1.8492,-1.8918,-1.8846,-1.7423,-2.7604,-2.8177,-2.9262,-3.0015,-3.1721,-3.3664,-3.5489,-3.6058,-3.6537,-3.7734,-3.905,-3.9978,-3.9978,-4.1055,-4.2081,-4.2351,-4.2671,-4.303,-4.326,-4.3,-4.2761,-4.2761,-4.2432,-4.2491,-4.323,-4.329,-4.329,-4.329,-4.329,-4.329,-4.329,-4.329,-4.329,-4.329,-4.329,-4.329,-4.329,-4.329,-4.329,-4.329,-4.329,-4.329,-4.329,-4.329,-4.329,-4.329,-4.329,-4.329,-4.329,-4.329,-4.329,-4.329,-4.329,-4.329,-4.317,-4.2282,-4.1991,-4.1931,-4.1542,-4.1205,-4.0755,-3.9295,-3.7901,-3.6521,-3.5127,-3.3953,-3.3061,-3.2792,-3.2717,-3.2591,-3.2014,-3.1712,-3.1386,-3.0758,-3.0432,-3.0181,-2.9854,-2.9804,-2.9804,-2.9804,-2.9804,-2.9804,-2.9804,-2.9804,-2.9704,-2.9478,-2.9113,-2.8675,-2.8013,-2.6022,-2.4001,-2.2086,-2.1134,-2.0527,-2.0312,-2.0293,-2.0117,-1.9687,-1.9648,-1.9551,-1.9297,-1.9297,-1.9297,-1.9297,-1.9102,-1.9102,-1.9297,-1.9102,-1.9102,-1.9297,-1.9297,-1.8684,-3.0153,-3.1241,-3.229,-3.238,-3.4561,-3.6656,-3.6357,-3.7165,-3.8093,-3.8571,-3.9589,-4.0397,-4.0397,-4.1512,-4.241,-4.241,-4.291,-4.329,-4.329,-4.2761,-4.241,-4.241,-4.1811,-4.1743,-4.2701,-4.294,-4.315,-4.329,-4.329,-4.3379,-4.3559,-4.3559,-4.3648,-4.3828,-4.3828,-4.3828,-4.3828,-4.3828,-4.3738,-4.3559,-4.3559,-4.3469,-4.329,-4.329,-4.329,-4.329,-4.329,-4.329,-4.329,-4.329,-4.329,-4.329,-4.329,-4.329,-4.323,-4.2791,-4.2641,-4.2512,-4.1733,-4.1543,-4.1305,-3.911,-3.7945,-3.7085,-3.5073,-3.3956,-3.3269,-3.3162,-3.3111,-3.2993,-3.2566,-3.234,-3.2014,-3.1235,-3.0834,-3.0507,-3.0105,-2.9905,-2.9804,-2.9804,-2.9804,-2.9804,-2.9804,-2.9804,-2.9804,-2.9804,-2.9428,-2.9139,-2.9139,-2.6853,-2.4241,-2.1648,-2.1016,-2.0742,-2.0742,-2.0683,-2.0468,-2.0117,-2.0098,-1.9961,-1.9648,-1.9648,-1.9648,-1.9648,-1.9531,-1.9512,-1.9648,-1.9512,-1.9531,-1.9648,-1.9648,-1.9648,-3.1894,-3.2437,-3.2945,-3.4889,-3.6354,-3.7554,-3.8153,-3.8841,-3.9379,-3.9379,-3.9918,-4.0397,-4.0397,-4.1512,-4.241,-4.241,-4.291,-4.329,-4.329,-4.2761,-4.241,-4.241,-4.1811,-4.1422,-4.1444,-4.2051,-4.2641,-4.326,-4.329,-4.3559,-4.4257,-4.4287,-4.4586,-4.5214,-4.5244,-4.5244,-4.5244,-4.5244,-4.4915,-4.4287,-4.4287,-4.3958,-4.329,-4.329,-4.329,-4.329,-4.329,-4.329,-4.329,-4.329,-4.329,-4.329,-4.329,-4.329,-4.329,-4.326,-4.326,-4.314,-4.1971,-4.1957,-4.1814,-3.8421,-3.7655,-3.755,-3.4786,-3.3916,-3.3771,-3.3262,-3.3111,-3.3111,-3.3086,-3.2641,-3.2215,-3.2164,-3.1361,-3.0608,-3.0583,-3.0181,-2.9804,-2.9804,-2.9804,-2.9804,-2.9804,-2.9804,-2.9804,-2.9804,-2.9779,-2.9754,-2.9754,-2.7435,-2.4759,-2.2142,-2.1465,-2.1171,-2.1171,-2.082,-2.0605,-2.0586,-2.0586,-2.0586,-2.0566,-2.0566,-2.0566,-2.0566,-2.0117,-2.0098,-2.0566,-2.0098,-2.0117,-2.0566,-2.0566,-2.0566,-3.2352,-3.3997,-3.54,-3.6507,-3.7764,-3.8811,-3.902,-3.926,-3.9373,-3.9373,-3.9589,-3.9738,-3.9738,-4.0457,-4.1205,-4.1662,-4.2252,-4.2851,-4.323,-4.2761,-4.2231,-4.1811,-4.1115,0.0,0.0,0.0,0.0,-4.2671,-4.309,-4.3589,-4.4287,-4.4317,-4.4616,-4.5274,-4.5304,-4.5304,-4.5304,-4.5304,-4.5185,-4.4975,-4.4975,-4.4616,-4.3947,-4.3947,-4.3708,-4.329,-4.329,-4.329,-4.329,-4.329,-4.329,-4.329,-4.329,-4.329,-4.329,-4.329,-4.329,-4.325,-4.286,-4.2361,-4.15,-3.9169,-3.8066,-3.719,-3.5067,-3.4198,-3.3847,-3.3671,-3.3345,-3.3111,-3.3111,-3.2943,-3.2692,-3.2315,-3.1938,-3.1562,-3.121,-3.0708,-3.0331,-3.0331,-3.003,-2.9804,-2.9804,-2.9804,-2.9804,-2.9804,-2.9804,-2.9248,-2.781,-2.6542,-2.4911,-2.2557,-2.1914,-2.166,-2.166,-2.1269,-2.1016,-2.1016,-2.0742,-2.0605,-2.0605,-2.0605,-2.0605,-2.0605,-2.043,-2.0449,-2.0605,-2.0449,-2.0468,-2.0605,-2.0605,-2.0605,-3.4225,-3.5891,-3.7135,-3.8482,-3.932,-3.9768,-3.9768,-3.9553,-3.9313,-3.911,-3.8871,-3.8691,-3.8691,-3.8871,-3.9439,-4.0816,-4.1422,-4.2043,-4.314,-4.2581,-4.1991,-4.1782,-4.0935,-4.0487,0.0,0.0,0.0,-4.2381,-4.297,-4.3678,-4.4616,-4.4676,-4.5065,-4.5992,-4.6022,-4.6022,-4.6022,-4.6022,-4.5903,-4.5663,-4.5394,-4.5065,-4.4646,-4.4436,-4.4077,-4.3618,-4.3379,-4.329,-4.329,-4.329,-4.329,-4.329,-4.329,-4.329,-4.329,-4.329,-4.329,-4.317,-4.2386,-4.1864,-4.1209,-3.8853,-3.7865,-3.7269,-3.5517,-3.4731,-3.4449,-3.4248,-3.3796,-3.337,-3.337,-3.3219,-3.2993,-3.2616,-3.2365,-3.2114,-3.1763,-3.126,-3.0834,-3.0658,-3.0331,-3.003,-2.9829,-2.9804,-2.9804,-2.9804,-2.9804,-2.9013,-2.6771,-2.6233,-2.5174,-2.2949,-2.2363,-2.2109,-2.2109,-2.1719,-2.1465,-2.1465,-2.1055,-2.0801,-2.0801,-2.0683,-2.0605,-2.0605,-2.0605,-2.0605,-2.0605,-2.0605,-2.0605,-2.0605,-2.0605,-2.0605,-3.7317,-3.8003,-3.8212,-4.0756,-4.0876,-4.0397,-4.0397,-3.9822,-3.9098,-3.8411,-3.766,-3.7122,-3.7127,-3.6742,-3.7251,-3.9828,-4.0367,-4.1115,-4.3021,-4.2252,-4.1722,-4.2321,-4.1265,-4.0726,-4.1324,-4.1452,0.0,-4.241,0.0,-4.3858,-4.5214,-4.5334,-4.5933,-4.7249,-4.7309,-4.7309,-4.7309,-4.7309,-4.698,-4.6309,-4.5723,-4.5364,-4.5334,-4.4706,-4.4407,-4.4317,-4.3618,-4.3349,-4.3349,-4.329,-4.329,-4.329,-4.329,-4.329,-4.329,-4.329,-4.325,-4.29,-4.0661,-4.0618,-4.093,-3.7586,-3.7196,-3.771,-3.6054,-3.5508,-3.5382,-3.4856,-3.4374,-3.3922,-3.3897,-3.352,-3.3119,-3.3136,-3.2641,-3.2265,-3.2265,-3.1813,-3.1286,-3.0783,-3.0658,-3.0432,-2.988,-2.9804,-2.9804,-2.9804,-2.9804,-2.9013,-2.6771,-2.6524,-2.5652,-2.3343,-2.2773,-2.2539,-2.2539,-2.2168,-2.1914,-2.1914,-2.1504,-2.1229,-2.1229,-2.0859,-2.0664,-2.0664,-2.0644,-2.0644,-2.0644,-2.0625,-2.0605,-2.0605,-2.0605,-2.0605,-3.7828,-3.9349,-4.0516,-4.1205,-4.0876,-4.0397,-4.0397,-3.8959,-3.7456,-3.6885,-3.4905,-3.3334,-3.3503,-3.4284,-3.5633,-3.7809,-3.9828,-4.1654,-4.308,-4.3021,-4.2701,-4.244,-4.2111,-4.1782,-4.1414,-4.1871,0.0,0.0,-4.32,-4.3858,-4.5214,-4.5783,-4.6441,-4.7279,-4.7309,-4.7309,-4.7309,-4.7309,-4.7219,-4.704,-4.689,-4.6531,-4.6052,-4.5903,-4.5544,-4.5005,-4.4347,-4.4077,-4.3977,-4.3499,-4.329,-4.329,-4.329,-4.329,-4.329,-4.329,-4.278,-4.1823,-4.0404,-4.0059,-4.0059,-3.8243,-3.7289,-3.673,-3.6323,-3.5881,-3.5458,-3.5332,-3.4881,-3.4424,-3.3997,-3.3796,-3.3596,-3.3212,-3.2968,-3.2867,-3.2867,-3.2416,-3.1964,-3.1838,-3.116,-3.0432,-2.988,-2.9804,-2.9804,-2.9804,-2.9804,-2.9013,-2.6771,-2.6524,-2.5652,-2.3343,-2.3003,-2.2945,-2.2945,-2.2598,-2.2363,-2.2363,-2.1953,-2.1719,-2.1719,-2.1602,-2.1584,-2.1584,-2.123,-2.1055,-2.1055,-2.0762,-2.0605,-2.0605,-2.0605,-2.0605,-3.9636,-4.1003,-4.1841,-4.1841,-4.1324,-4.0516,-3.9349,-3.7641,-3.578,-3.4109,-3.2146,-3.0736,-3.0641,-3.1956,-3.3846,-3.6197,-3.8781,-4.1085,-4.2671,-4.291,-4.288,-4.2791,-4.256,-4.2381,-4.2252,-4.2581,-4.306,-4.3678,-4.3738,-4.4347,-4.5693,-4.6112,-4.6621,-4.7279,-4.7309,-4.7309,-4.7309,-4.7309,-4.7309,-4.7309,-4.7309,-4.71,-4.6741,-4.6399,-4.607,-4.5693,0.0,-4.4586,-4.4317,-4.4227,-4.4018,-4.3738,-4.3738,-4.3738,-4.3678,-4.3409,-4.29,-4.2111,-4.0447,-3.9913,-3.9623,-3.7906,-3.6943,-3.6405,-3.6405,-3.6132,-3.5906,-3.5906,-3.5504,-3.4956,-3.4655,-3.4248,-3.3822,-3.352,-3.3244,-3.3111,-3.3111,-3.2817,-3.2516,-3.2265,-3.1336,-3.0507,-3.0206,-2.9955,-2.9804,-2.9804,-2.9804,-2.917,-2.7424,-2.6789,-2.5819,-2.4059,-2.3387,-2.3101,-2.3101,-2.2886,-2.275,-2.275,-2.2402,-2.2168,-2.2168,-2.1973,-2.1894,-2.1894,-2.1641,-2.1523,-2.1523,-2.1269,-2.1192,-2.1192,-2.1192,-2.1192,-4.1752,-4.247,-4.25,-4.241,-4.1901,-4.0696,-3.7898,-3.6035,-3.3975,-3.0818,-2.9256,-2.8416,-2.8225,-2.9752,-3.1968,-3.4882,-3.7584,-4.0008,-4.2111,-4.241,-4.265,-4.323,-4.2851,-4.2731,-4.3349,-4.3409,-4.3738,-4.4526,-4.4586,-4.5095,-4.6219,-4.6369,-4.6711,-4.7279,-4.7309,-4.7309,-4.7309,-4.7309,-4.7309,-4.7309,-4.7309,-4.7309,-4.7279,-4.6711,-4.6399,-4.6411,-4.5723,-4.5095,-4.4616,-4.5095,-4.4975,-4.4436,-4.4436,-4.4436,-4.4377,-4.3768,-4.3419,-4.2898,-4.073,-3.9881,-3.9271,-3.7129,-3.6405,-3.6405,-3.6405,-3.6405,-3.6405,-3.6405,-3.6006,-3.5583,-3.5508,-3.4781,-3.4073,-3.3922,-3.3545,-3.3212,-3.3136,-3.3111,-3.2893,-3.2315,-3.1461,-3.0809,-3.0733,-3.0256,-2.9905,-2.9905,-2.9854,-2.9443,-2.8466,-2.7238,-2.6047,-2.4914,-2.38,-2.3101,-2.3101,-2.3101,-2.3101,-2.3101,-2.275,-2.2598,-2.2598,-2.2246,-2.2051,-2.2051,-2.1992,-2.1973,-2.1973,-2.1914,-2.1894,-2.1894,-2.1894,-2.1894,-4.2141,-4.2761,-4.303,-4.253,-4.1901,-4.0554,-3.7239,-3.4513,-3.1736,-2.8466,-2.5862,-2.454,-2.5743,-2.7648,-3.0258,-3.4075,-3.6866,-3.9469,-4.2051,-4.241,-4.265,0.0,-4.32,-4.3379,-4.4077,-4.4137,0.0,0.0,-4.592,-4.604,-4.6279,-4.683,-4.7189,-4.7309,-4.7309,-4.7309,-4.7309,-4.7309,-4.7309,-4.7309,-4.7309,-4.7309,-4.7309,-4.7189,-4.713,-4.71,-4.6441,0.0,-4.5933,-4.5484,-4.5214,-4.5125,-4.5125,-4.5125,-4.5095,-4.5005,-4.4022,-4.2491,-4.1131,-3.9652,-3.8198,-3.6849,-3.6405,-3.6405,-3.6405,-3.6405,-3.6405,-3.6405,-3.6329,-3.6107,-3.5608,-3.5357,-3.4981,-3.4123,-3.3822,-3.3621,-3.3212,-3.3111,-3.2893,-3.2315,-3.2064,-3.1788,-3.1336,-3.0809,-3.0482,-3.0482,-3.008,-2.9702,-2.9521,-2.777,-2.6047,-2.4914,-2.38,-2.3101,-2.3101,-2.3101,-2.3101,-2.3101,-2.3023,-2.2984,-2.2984,-2.2925,-2.2886,-2.2886,-2.2578,-2.2402,-2.2402,-2.2051,-2.1894,-2.1894,-2.1894,-2.1894,-4.2231,-4.2851,-4.305,-4.2141,-4.1392,-3.9705,-3.5273,-3.2421,-2.9636,-2.562,-2.3444,-2.2413,-2.2911,-2.5743,-2.8732,-3.1042,-3.452,-3.7823,-4.0457,-4.1115,-4.1833,-4.314,-4.329,-4.3559,-4.4257,-4.4616,-4.5244,-4.6219,-4.6651,-4.683,-4.683,-4.713,-4.7309,-4.7309,-4.7309,-4.7309,-4.7309,-4.7309,-4.7309,-4.7309,-4.7309,-4.7309,-4.7309,-4.7309,-4.7309,-4.7279,-4.698,-4.6651,-4.6279,-4.6352,-4.6142,-4.5843,-4.5843,-4.5843,-4.5783,-4.5424,-4.4733,-4.3679,-4.1543,-4.0237,-3.9159,-3.7066,-3.6405,-3.6405,-3.6405,-3.6405,-3.6405,-3.6405,-3.6405,-3.6355,-3.6031,-3.5755,-3.5357,-3.4831,-3.4324,-3.3822,-3.3571,-3.3294,-3.2993,-3.2717,-3.2416,-3.2139,-3.1863,-3.1361,-3.0934,-3.0658,-3.0382,-3.0105,-2.9829,-2.8371,-2.6912,-2.5797,-2.4145,-2.3101,-2.3101,-2.3101,-2.3101,-2.3101,-2.3101,-2.3101,-2.3101,-2.3101,-2.3101,-2.3101,-2.2906,-2.2789,-2.2789,-2.2637,-2.2539,-2.2539,-2.2539,-2.2539,-4.2171,-4.2731,-4.2851,-4.1683,-4.0786,-3.8746,-3.3238,-3.0617,-2.794,-2.3202,-2.1629,-2.1107,-2.1038,-2.4014,-2.7002,-2.8568,-3.2105,-3.5717,-3.8745,-3.9888,-4.1085,-4.291,-4.32,0.0,-4.4436,-4.4975,0.0,-4.6429,-4.701,-4.7309,-4.7309,-4.7309,-4.7309,-4.7309,-4.7309,-4.7309,-4.7309,-4.7309,-4.7309,-4.7309,-4.7309,-4.7309,-4.7309,-4.7309,-4.7309,-4.7309,-4.7309,-4.701,-4.6561,-4.71,-4.701,-4.6488,-4.6488,-4.6488,-4.6471,-4.5933,-4.5633,-4.5132,-4.2213,-4.1007,-4.0302,-3.7484,-3.6505,-3.6405,-3.6405,-3.6405,-3.6405,-3.6405,-3.6405,-3.6405,-3.6405,-3.6031,-3.5633,-3.5533,-3.4756,-3.4048,-3.3922,-3.3571,-3.3262,-3.3093,-3.2717,-3.239,-3.239,-3.1938,-3.1436,-3.1009,-3.0758,-3.0457,-3.003,-2.8879,-2.7683,-2.6607,-2.4681,-2.3387,-2.3144,-2.3101,-2.3101,-2.3101,-2.3101,-2.3101,-2.3101,-2.3101,-2.3101,-2.3101,-2.3101,-2.3101,-2.3101,-2.3101,-2.3101,-2.3101,-2.3101,-2.3101,-4.2051,-4.244,-4.2321,-4.1602,-4.0427,-3.7955,-3.2025,-2.9625,-2.7185,-2.1944,-2.0366,-2.0322,-2.1508,-2.2537,-2.4614,-2.8828,-3.0891,-3.3515,-3.7874,-3.9589,-4.0905,-4.2321,0.0,0.0,-4.5095,-4.5244,-4.5813,-4.713,-4.7279,-4.7309,-4.7309,-4.7309,-4.7309,-4.7309,-4.7309,-4.7309,-4.7309,-4.7309,-4.7309,-4.7309,-4.7309,-4.7309,-4.7309,-4.7309,-4.7309,-4.7309,-4.7309,-4.7279,0.0,-4.7279,-4.7279,-4.7219,-4.7219,-4.7219,-4.7219,-4.713,-4.6741,-4.5862,-4.337,-4.1799,-4.0384,-3.7921,-3.6832,-3.6405,-3.6405,-3.6405,-3.6405,-3.6405,-3.6405,-3.6405,-3.6405,-3.638,-3.6157,-3.5608,-3.5031,-3.45,-3.3997,-3.3847,-3.3671,-3.3169,-3.3086,-3.2993,-3.2993,-3.2516,-3.2114,-3.2064,-3.1235,-3.0608,-3.0557,-2.9123,-2.7683,-2.6607,-2.5378,-2.4211,-2.3188,-2.3101,-2.3101,-2.3101,-2.3101,-2.3101,-2.3101,-2.3101,-2.3101,-2.3101,-2.3101,-2.3101,-2.3101,-2.3101,-2.3101,-2.3101,-2.3101,-2.3101,-4.0703,-4.1512,-4.1662,-4.0965,-3.9106,-3.6266,-3.1574,-2.8521,-2.5551,-2.1521,-2.0239,-1.9964,-2.0502,-2.1485,-2.3175,-2.6185,-2.7735,-3.0075,-3.4258,-3.5998,-3.7764,-4.0307,-4.1534,-4.297,0.0,0.0,-4.5843,-4.7189,-4.7309,-4.7309,-4.7309,-4.7309,-4.7309,-4.7309,-4.7309,-4.7309,-4.7309,-4.7309,-4.7309,-4.7309,-4.7309,-4.7309,-4.7309,-4.7309,-4.7309,-4.7309,-4.7309,-4.7309,0.0,-4.7309,-4.7309,-4.7309,-4.7309,-4.7309,-4.7309,-4.7309,-4.713,-4.6486,-4.3652,-4.238,-4.1416,-3.8203,-3.7036,-3.6832,-3.6505,-3.6405,-3.6405,-3.6405,-3.6405,-3.6405,-3.6405,-3.6405,-3.6355,-3.6081,-3.5604,-3.5031,-3.4525,-3.4123,-3.3746,-3.3194,-3.3111,-3.3111,-3.3111,-3.2893,-3.2616,-3.2265,-3.1863,-3.1336,-3.0708,-3.0025,-2.9052,-2.7609,-2.5859,-2.4339,-2.3212,-2.3101,-2.3101,-2.3101,-2.3101,-2.3101,-2.3101,-2.3101,-2.3101,-2.3101,-2.3101,-2.3101,-2.3101,-2.3101,-2.3101,-2.3101,-2.3101,-2.3101,-3.946,-4.0353,-4.052,-4.0038,-3.7682,-3.4434,-3.0657,-2.7503,-2.4469,-2.1134,-2.0087,-1.9811,-1.9811,-2.0579,-2.198,-2.4329,-2.5615,-2.784,-3.2199,-3.3933,-3.5848,-3.8781,0.0,-4.2043,-4.4466,-4.5424,-4.6292,-4.7249,-4.7309,-4.7309,-4.7309,-4.7309,-4.7309,-4.7309,-4.7309,-4.7309,-4.7309,-4.7309,-4.7309,-4.7309,-4.7309,-4.7309,-4.7309,-4.7309,-4.7309,-4.7309,-4.7309,-4.7309,0.0,-4.7309,-4.7309,-4.7309,-4.7309,-4.7309,-4.7309,-4.7309,-4.7309,-4.6872,-4.3963,-4.2851,-4.2129,-3.8817,-3.7462,-3.7111,-3.6782,-3.6531,-3.6405,-3.6405,-3.6405,-3.6405,-3.6405,-3.6405,-3.6405,-3.6405,-3.6081,-3.5583,-3.5031,-3.4525,-3.3972,-3.342,-3.3194,-3.3111,-3.3111,-3.3111,-3.2943,-3.2541,-3.2315,-3.1938,-3.1185,-3.0934,-3.0208,-2.8514,-2.6662,-2.5019,-2.3734,-2.3299,-2.3101,-2.3101,-2.3101,-2.3101,-2.3101,-2.3101,-2.3101,-2.3101,-2.3101,-2.3101,-2.3101,-2.3101,-2.3101,-2.3101,-2.3101,-2.3101,-3.8656,-3.909,-3.8832,-3.8803,-3.6203,-3.2632,-2.8879,-2.6649,-2.4337,-2.0574,-1.9811,-1.9811,-1.9811,-1.9811,-2.0888,-2.4167,-2.5294,-2.7512,-3.2765,-3.4651,-3.6207,0.0,-3.9589,-4.1175,-4.311,-4.5723,-4.7279,-4.7309,-4.7309,0.0,-4.7309,-4.7309,-4.7309,-4.7309,-4.7309,-4.7309,-4.7309,-4.7309,-4.7309,-4.7309,-4.7309,-4.7309,-4.7309,-4.7309,-4.7309,-4.7309,-4.7309,-4.7309,0.0,-4.7309,-4.7309,-4.7309,-4.7309,-4.7309,-4.7309,-4.7309,-4.7309,-4.6931,-4.4396,-4.3136,-4.2266,-3.9693,-3.809,-3.7186,-3.7186,-3.6832,-3.6405,-3.6405,-3.6405,-3.6405,-3.6405,-3.6405,-3.6405,-3.6405,-3.6405,-3.6207,-3.5608,-3.5056,-3.455,-3.3997,-3.3445,-3.3111,-3.3111,-3.3111,-3.3111,-3.3111,-3.2566,-3.2215,-3.219,-3.1712,-3.0728,-2.908,-2.7916,-2.6619,-2.4914,-2.3757,-2.3101,-2.3101,-2.3101,-2.3101,-2.3101,-2.3101,-2.3101,-2.3101,-2.3101,-2.3101,-2.3101,-2.3101,-2.3101,-2.3101,-2.3101,-2.3101,-3.3886,-3.4562,-3.4566,-3.3853,-3.1702,-2.9173,-2.6885,-2.4764,-2.2623,-2.0265,-1.9811,-1.9811,-1.9811,-1.9811,-2.1172,-2.5384,-2.6246,-2.7883,-3.2199,-3.4382,0.0,-3.7554,-4.1294,-4.3988,-4.4616,-4.6262,-4.7309,-4.7309,-4.7309,-4.7309,-4.7309,-4.7309,-4.7309,-4.7309,-4.7309,-4.7309,-4.7309,-4.7309,-4.7309,-4.7309,-4.7309,-4.7309,-4.7309,-4.7309,-4.707,-4.6621,-4.6621,-4.6381,-4.5963,-4.6441,-4.6621,-4.6681,-4.713,-4.7309,-4.7309,-4.7309,-4.6726,-4.5779,-4.4069,-4.2794,-4.1736,-4.0586,-3.9107,-3.7859,-3.8338,-3.7518,-3.6405,-3.6405,-3.6405,-3.6405,-3.6405,-3.6405,-3.6405,-3.6405,-3.6405,-3.6207,-3.5608,-3.5357,-3.4956,-3.4073,-3.3746,-3.352,-3.3144,-3.3111,-3.3111,-3.3111,-3.2918,-3.2667,-3.2265,-3.2064,-3.1614,-3.0712,-2.8626,-2.6619,-2.4956,-2.3757,-2.3101,-2.3101,-2.3101,-2.3101,-2.3101,-2.3101,-2.3101,-2.3101,-2.3101,-2.3101,-2.3101,-2.3101,-2.3101,-2.3101,-2.3101,-2.3101,-3.0394,-3.1397,-3.1528,-3.0856,-2.8872,-2.6739,-2.531,-2.3427,-2.1625,-2.0425,-2.0169,-2.0169,-2.0169,-2.0345,-2.1556,-2.469,-2.5596,-2.7304,-3.1186,-3.3484,-3.5699,-3.8242,-4.2102,-4.4646,-4.4915,-4.6352,-4.7309,-4.7309,-4.707,-4.692,-4.692,-4.692,-4.692,-4.692,-4.7189,-4.7309,-4.7309,-4.7309,-4.7309,-4.7309,-4.7309,-4.7189,-4.692,-4.692,-4.6561,-4.5933,-4.5933,-4.5693,0.0,-4.6022,-4.6279,-4.6381,-4.704,-4.7309,-4.7309,-4.7309,-4.677,-4.5913,-4.4627,-4.3693,-4.2924,-4.2064,-4.0412,-3.8643,-3.8225,-3.7292,-3.6405,-3.6405,-3.6405,-3.6405,-3.6405,-3.6405,-3.6405,-3.6405,-3.6405,-3.6329,-3.5931,-3.5633,-3.5282,-3.4605,-3.4349,-3.4022,-3.347,-3.3395,-3.3319,-3.3119,-3.3111,-3.2943,-3.2591,-3.2541,-3.2147,-3.1156,-2.9102,-2.7105,-2.5209,-2.3858,-2.3101,-2.3101,-2.3101,-2.3101,-2.3101,-2.3101,-2.3101,-2.3101,-2.3101,-2.3101,-2.3101,-2.3101,-2.3101,-2.3101,-2.3101,-2.3101,0.0,-2.9051,-2.9194,-2.9148,-2.7196,-2.5034,-2.4004,-2.2548,0.0,-2.0832,-2.0721,-2.0772,-2.0901,-2.1337,-2.1963,-2.3023,-2.4241,-2.6367,-3.0229,-3.2587,-3.5579,-4.0008,-4.2222,-4.3618,-4.4317,-4.6082,-4.7189,-4.7249,-4.6621,-4.6219,-4.6219,-4.6219,-4.6219,-4.6219,-4.683,-4.7219,-4.7309,-4.7309,-4.7279,-4.7249,-4.7249,-4.689,-4.6219,-4.6219,-4.5873,0.0,-4.5214,-4.5185,-4.5214,-4.5903,-4.6202,-4.6322,-4.698,-4.7279,-4.7309,-4.7309,-4.7266,-4.7019,-4.5824,-4.5343,-4.507,-4.377,-4.1842,-3.9612,-3.7228,-3.6452,-3.6405,-3.6405,-3.6405,-3.6405,-3.6405,-3.6405,-3.6405,-3.6405,-3.6405,-3.6405,-3.6405,-3.5956,-3.5533,-3.5508,-3.5082,-3.46,-3.3997,-3.3897,-3.3721,-3.3169,-3.3111,-3.3111,-3.3111,-3.3111,-3.2413,-3.0644,-2.9456,-2.7922,-2.5669,-2.4055,-2.314,-2.3101,-2.3101,-2.3101,-2.3101,-2.3101,-2.3101,-2.3101,-2.3101,-2.3101,-2.3101,-2.3101,-2.3101,-2.3101,-2.3101,-2.3101,-2.2491,0.0,-2.4453,-2.3616,-2.293,-2.2272,0.0,-2.1169,-2.0745,-2.0143,-2.0042,-2.0528,-2.2061,-2.1604,-2.2544,-2.7225,-2.8221,-2.9665,-3.3095,-3.6118,-3.899,-4.1632,-4.318,-4.4347,-4.5005,-4.5484,-4.5992,-4.6501,-4.5933,-4.5544,-4.5544,-4.5544,-4.5544,-4.5544,-4.5693,-4.6262,-4.7309,-4.7309,-4.704,-4.6561,-4.6561,-4.6202,-4.5544,-4.5544,-4.5185,-4.4556,-4.4556,-4.4257,-4.3798,-4.4496,-4.5095,-4.5603,-4.6292,-4.686,-4.7309,-4.7309,-4.6682,-4.5779,-4.5508,-4.4794,-4.3742,-4.2519,-4.1764,-4.0886,-3.845,-3.7103,-3.6405,-3.6405,-3.6405,-3.6405,-3.6405,-3.6405,-3.6405,-3.6405,-3.6405,-3.6405,-3.6405,-3.6304,-3.6031,-3.5583,-3.5382,-3.5006,-3.4073,-3.3897,-3.3721,-3.3169,-3.3111,-3.3111,-3.3111,-3.3111,-3.2562,-3.1144,-2.9663,-2.8187,-2.6662,-2.4766,-2.3496,-2.312,-2.3101,-2.3101,-2.3101,-2.3101,-2.3101,-2.3101,-2.3101,-2.3101,-2.3101,-2.3101,-2.3101,-2.3101,-2.3101,-2.3101,-2.0289,-2.1669,-2.297,-2.2397,-2.2046,-2.1794,-2.1493,-2.0842,-2.0217,-1.9963,-2.009,-2.0679,-2.2121,-2.2501,-2.3811,-2.7615,-2.8993,-3.1072,-3.5248,-3.7883,-4.0277,-4.2551,-4.3688,-4.4436,-4.4796,-4.5125,-4.5454,-4.5813,-4.5214,-4.4855,-4.4855,-4.4855,-4.4855,-4.4855,-4.5125,-4.5633,-4.6381,-4.6381,-4.6202,-4.5843,-4.5843,-4.5514,-4.4855,-4.4855,-4.4496,-4.3828,-4.3828,-4.3618,-4.3349,-4.4007,-4.4526,-4.4945,-4.5933,-4.6488,-4.689,-4.7189,-4.6887,-4.6255,-4.6255,-4.5824,-4.496,-4.3138,-4.2223,-4.1341,-3.8861,-3.7289,-3.6405,-3.6405,-3.6405,-3.6405,-3.6405,-3.6405,-3.6405,-3.6405,-3.6405,-3.6405,-3.6405,-3.6405,-3.6329,-3.5981,-3.5906,-3.5655,-3.4801,-3.4605,-3.4474,-3.3922,-3.3621,-3.3445,-3.3445,-3.3244,-3.2394,-3.0598,-2.9579,-2.8245,-2.6279,-2.5046,-2.4102,-2.3477,-2.3437,-2.3296,-2.3101,-2.3101,-2.3101,-2.3101,-2.3101,-2.3101,-2.3101,-2.3101,-2.3101,-2.3101,-2.3101,-2.3101,-2.0112,-2.1666,-2.3175,-2.2812,-2.2542,-2.2264,-2.2113,-2.095,-1.9965,-1.9969,-2.0409,-2.1131,-2.2287,-2.3769,-2.5398,-2.7224,-2.9178,-3.2198,-3.7165,-3.8841,-4.0449,-4.2991,-4.3798,-4.4197,-4.4317,-4.4736,-4.5035,-4.5125,-4.4526,-4.4167,-4.4167,-4.4167,-4.4167,-4.4167,-4.4706,-4.5005,-4.5005,-4.5185,-4.5244,-4.5155,-4.5155,-4.4796,-4.4167,-4.4167,-4.3828,-4.329,0.0,0.0,-4.3349,-4.3888,-4.4227,-4.4436,-4.5663,-4.619,-4.6411,-4.707,-4.7309,-4.7309,-4.7309,-4.7309,-4.6927,-4.4748,-4.306,-4.1552,-3.9328,-3.7655,-3.6531,-3.6531,-3.648,-3.6405,-3.6405,-3.6405,-3.6405,-3.6405,-3.6405,-3.6405,-3.6405,-3.6405,-3.6405,-3.6405,-3.6405,-3.6182,-3.5583,-3.5508,-3.5307,-3.4756,-3.4324,-3.3997,-3.3897,-3.3495,-3.225,-2.9692,-2.9396,-2.8275,-2.5433,-2.5176,-2.4824,-2.4043,-2.3926,-2.3691,-2.3218,-2.3198,-2.3159,-2.3101,-2.3101,-2.3101,-2.3101,-2.3101,-2.3101,-2.3101,-2.3101,-2.3101,-2.1543,-2.2874,-2.3452,-2.1615,-2.1773,-2.2137,-2.125,-2.0831,-2.0496,-1.994,-2.032,-2.1614,-2.4581,-2.524,-2.6746,-3.0923,-3.3274,-3.5848,-3.9439,-4.0127,-4.1025,-4.305,-4.3379,-4.3678,-4.4257,-4.3898,-4.3828,-4.4436,-4.3828,-4.3439,-4.3439,-4.3439,-4.3439,-4.3439,-4.3529,-4.3589,-4.3589,-4.4736,-4.5005,-4.4466,-4.4466,-4.4107,-4.3439,-4.3439,-4.3379,-4.329,0.0,-4.329,-4.329,-4.3409,-4.3768,-4.4377,-4.5155,-4.5813,-4.6411,-4.707,-4.7309,-4.7309,-4.7309,-4.7309,-4.7146,-4.6198,-4.4367,-4.2362,-4.1443,-3.9242,-3.7061,-3.7061,-3.6782,-3.6405,-3.6405,-3.6405,-3.6405,-3.6405,-3.6405,-3.6405,-3.6405,-3.6405,-3.6405,-3.6405,-3.6405,-3.6182,-3.5583,-3.5508,-3.5307,-3.4756,-3.465,-3.4424,-3.3947,-3.3822,-3.2665,-2.9715,-2.9396,-2.838,-2.5818,-2.5596,-2.541,-2.4949,-2.4531,-2.4121,-2.3711,-2.3691,-2.3516,-2.3101,-2.3101,-2.3101,-2.3101,-2.3101,-2.3101,-2.3101,-2.3101,-2.3101,-2.0665,-2.1769,-2.2571,-2.2242,-2.351,-2.4736,-2.4393,-2.3877,-2.3279,-2.2667,-2.3017,-2.4123,-2.6405,-2.7625,-2.9637,-3.3956,-3.5998,-3.7853,-4.0098,-4.0696,-4.1534,-4.311,-4.329,-4.3409,-4.3708,-4.3469,-4.3409,-4.3738,-4.3469,-4.329,-4.329,-4.329,-4.329,-4.329,-4.329,-4.329,-4.329,-4.3888,-4.4077,-4.3738,-4.3738,-4.3589,-4.329,-4.329,-4.329,-4.329,0.0,-4.329,-4.329,-4.329,-4.3469,-4.3858,-4.4915,-4.5484,-4.5903,-4.692,-4.7309,-4.7309,-4.7309,-4.7309,-4.7189,-4.6531,-4.4689,-4.2574,-4.1874,-3.9806,-3.7563,-3.7262,-3.6784,-3.6405,-3.6405,-3.6405,-3.6405,-3.6405,-3.6405,-3.6405,-3.6405,-3.6405,-3.6405,-3.6405,-3.6405,-3.6329,-3.6031,-3.5981,-3.5906,-3.5655,-3.5353,-3.5031,-3.4781,-3.4525,-3.3428,-3.1109,-3.0215,-2.9011,-2.6907,-2.611,-2.5547,-2.5145,-2.4668,-2.4336,-2.4141,-2.4121,-2.4023,-2.3783,-2.3613,-2.3496,-2.3496,-2.3198,-2.3101,-2.3101,-2.3379,-2.3496,-2.0338,-2.1125,-2.2033,-2.3393,-2.4906,-2.6228,-2.6955,-2.638,-2.5687,-2.5633,-2.5938,-2.6721,-2.8392,-3.0514,-3.3077,-3.641,-3.8033,-3.932,-4.0666,-4.1294,-4.2043,-4.317,-4.329,-4.329,-4.329,-4.329,-4.329,-4.329,-4.329,-4.329,-4.329,-4.329,-4.329,-4.329,-4.329,-4.329,-4.329,-4.329,-4.329,-4.329,-4.329,-4.329,-4.329,-4.329,-4.329,-4.329,-4.329,-4.329,-4.329,-4.329,-4.329,-4.3409,-4.4796,-4.5484,-4.5873,-4.692,-4.7309,-4.7309,-4.7309,-4.7309,-4.7219,-4.6711,-4.4876,-4.2777,-4.2261,-4.0309,-3.8115,-3.7688,-3.7186,-3.6732,-3.648,-3.6405,-3.6405,-3.6405,-3.6405,-3.6405,-3.6405,-3.6405,-3.6405,-3.6405,-3.6405,-3.6405,-3.6405,-3.6405,-3.6405,-3.6405,-3.6006,-3.5633,-3.5508,-3.5132,-3.4222,-3.2452,-3.1066,-2.9371,-2.7357,-2.6255,-2.5586,-2.5254,-2.4902,-2.4668,-2.457,-2.457,-2.4531,-2.4414,-2.4102,-2.3945,-2.3945,-2.3594,-2.3393,-2.3393,-2.3769,-2.3945,-2.2293,-2.26,-2.2796,-2.4598,-2.4303,-2.4082,-2.618,-2.6156,-2.6077,-2.749,-2.7814,-2.8543,-3.0908,-3.391,-3.6563,-3.8033,-3.9379,-4.0696,-4.2081,-4.2291,-4.259,-4.32,-4.329,-4.329,-4.329,-4.329,-4.329,-4.329,-4.329,-4.329,-4.329,-4.329,-4.329,-4.329,-4.329,-4.329,-4.329,-4.329,-4.329,-4.329,-4.329,-4.329,-4.329,-4.329,-4.329,-4.329,-4.329,-4.329,-4.329,-4.329,-4.329,-4.3409,-4.4796,-4.6052,-4.7189,-4.7279,-4.7309,-4.7309,-4.7309,-4.7309,-4.7309,-4.7249,-4.5512,-4.3421,-4.3393,-4.1236,-3.8844,-3.8818,-3.8341,-3.7663,-3.6681,-3.6405,-3.6405,-3.6405,-3.6405,-3.6405,-3.6405,-3.6405,-3.6405,-3.6405,-3.6405,-3.6405,-3.6405,-3.6405,-3.6405,-3.6405,-3.638,-3.6107,-3.5558,-3.5458,-3.4792,-3.3049,-3.1274,-2.9015,-2.6102,-2.5742,-2.5674,-2.5635,-2.5615,-2.5449,-2.5086,-2.5067,-2.4824,-2.4414,-2.4394,-2.4375,-2.4375,-2.4336,-2.4316,-2.4316,-2.4355,-2.4375,-2.0713,-2.146,-2.2163,-2.3551,-2.4797,-2.6104,-2.771,-2.8948,-3.0102,-3.1415,-3.1652,-3.2078,-3.3432,-3.5524,-3.7345,-3.8242,-3.9858,-4.1175,-4.1722,-4.2462,-4.306,-4.326,-4.329,-4.329,-4.329,-4.329,-4.329,-4.329,-4.329,-4.329,-4.329,-4.329,-4.329,-4.329,-4.329,-4.329,-4.329,-4.329,-4.329,-4.329,-4.329,-4.329,-4.329,-4.329,-4.329,-4.329,-4.329,-4.329,-4.329,-4.329,-4.329,-4.3409,-4.4796,-4.6112,-4.7309,-4.7309,-4.7309,-4.7309,-4.7309,-4.7309,-4.7309,-4.7309,-4.5598,-4.3504,-4.3504,-4.158,-3.932,-3.8969,-3.8718,-3.8291,-3.7209,-3.6933,-3.6784,-3.648,-3.6405,-3.6405,-3.6405,-3.6405,-3.6405,-3.6405,-3.6405,-3.6405,-3.6405,-3.6405,-3.6405,-3.6405,-3.6405,-3.6329,-3.6081,-3.6056,-3.5644,-3.4607,-3.2206,-2.9737,-2.7579,-2.6605,-2.6035,-2.5713,-2.5693,-2.5615,-2.5488,-2.5488,-2.541,-2.5187,-2.4961,-2.4824,-2.4824,-2.4551,-2.4414,-2.4414,-2.4687,-2.4824,-2.0037,-2.08,-2.1852,-2.324,-2.5511,-2.789,-2.955,-3.1314,-3.3009,-3.4363,-3.459,-3.46,-3.4893,-3.6276,-3.7614,-3.8272,-4.0068,-4.1444,-4.1692,-4.2641,-4.329,-4.329,-4.329,-4.329,-4.329,-4.329,-4.329,-4.329,-4.329,-4.329,-4.329,-4.329,-4.329,-4.329,-4.329,-4.329,-4.329,-4.329,-4.329,-4.329,-4.329,-4.329,-4.329,-4.329,-4.329,-4.329,-4.329,-4.329,-4.329,-4.329,-4.3409,-4.3708,-4.4855,-4.5992,-4.701,-4.7219,-4.7309,-4.7309,-4.7309,-4.7309,-4.7309,-4.7309,-4.5824,-4.4022,-4.3646,-4.1985,-4.0135,-3.9373,-3.912,-3.8919,-3.7965,-3.7462,-3.7086,-3.6757,-3.6531,-3.6405,-3.6405,-3.6405,-3.6405,-3.6405,-3.6405,-3.6405,-3.6405,-3.6405,-3.6405,-3.6405,-3.6405,-3.6405,-3.6405,-3.6405,-3.5991,-3.5021,-3.2674,-3.0436,-2.8718,-2.7221,-2.625,-2.5957,-2.5771,-2.5693,-2.5693,-2.5693,-2.5693,-2.5693,-2.543,-2.5273,-2.5273,-2.498,-2.4797,-2.4844,-2.5137,-2.5273,-2.0817,-2.1145,-2.2115,-2.4139,-2.644,-2.8907,-3.1354,-3.2758,-3.4047,-3.5847,-3.6071,-3.5734,-3.5142,-3.6345,-3.7644,-3.8272,-4.0068,-4.1662,-4.2291,-4.291,-4.329,-4.329,-4.329,-4.329,-4.329,-4.329,-4.329,-4.329,-4.329,-4.329,-4.329,-4.329,-4.329,-4.329,-4.329,-4.329,-4.329,-4.329,-4.329,-4.329,-4.329,-4.329,-4.329,-4.329,-4.329,-4.329,-4.329,-4.329,-4.329,-4.329,-4.3678,-4.4377,-4.5035,-4.5693,-4.6411,-4.707,-4.7309,-4.7309,-4.7309,-4.7309,-4.7309,-4.7309,-4.6432,-4.5161,-4.3882,-4.2593,-4.1319,-4.0083,-3.9697,-3.9572,-3.907,-3.804,-3.7186,-3.7186,-3.6807,-3.6405,-3.6405,-3.6405,-3.6405,-3.6405,-3.6405,-3.6405,-3.6405,-3.6405,-3.6405,-3.6405,-3.6405,-3.6405,-3.6405,-3.6405,-3.5707,-3.3887,-3.2517,-3.097,-2.9133,-2.7402,-2.6406,-2.6387,-2.5977,-2.5693,-2.5693,-2.5693,-2.5693,-2.5693,-2.5693,-2.5693,-2.5693,-2.5693,-2.5693,-2.5693,-2.5693,-2.5693,-2.0448,-2.1852,-2.3951,-2.5517,-2.8608,-3.1675,-3.3429,-3.4619,-3.5767,-3.7063,-3.7513,-3.7369,-3.6425,-3.7281,-3.8153,-3.8362,-4.0068,-4.1444,-4.1692,-4.2641,-4.329,-4.329,-4.329,-4.329,-4.329,-4.329,-4.329,-4.329,-4.329,-4.329,-4.329,-4.329,-4.329,-4.329,-4.329,-4.329,-4.329,-4.329,-4.329,-4.329,-4.329,-4.329,-4.329,-4.329,-4.329,-4.329,-4.329,-4.329,-4.329,-4.329,-4.3678,-4.4347,-4.4526,-4.5304,-4.6309,-4.6488,-4.692,-4.7309,-4.7309,-4.7309,-4.7309,-4.7309,-4.5824,-4.3975,-4.3598,-4.1985,-4.016,-3.98,-3.9697,-3.9647,-3.9496,-3.8617,-3.7663,-3.7287,-3.6807,-3.6405,-3.6405,-3.6405,-3.6405,-3.6405,-3.6405,-3.6405,-3.6405,-3.6405,-3.6405,-3.6405,-3.6405,-3.6405,-3.6405,-3.6405,-3.5856,-3.4365,-3.2925,-3.1428,-2.9619,-2.8146,-2.7031,-2.6426,-2.6269,-2.6055,-2.5693,-2.5693,-2.5693,-2.5693,-2.5693,-2.5693,-2.5693,-2.5693,-2.5693,-2.5693,-2.5693,-2.5693,-2.1534,-2.3175,-2.5528,-2.7671,-3.0455,-3.3314,-3.5923,-3.6331,-3.6633,-3.8111,-3.8091,-3.7693,-3.7484,-3.7973,-3.8392,-3.8392,-3.9858,-4.0995,-4.0995,-4.1893,-4.2641,-4.291,-4.294,-4.306,-4.326,-4.329,-4.329,-4.329,-4.329,-4.329,-4.329,-4.329,-4.329,-4.329,-4.329,-4.329,-4.329,-4.329,-4.329,-4.329,-4.329,-4.329,-4.329,-4.329,-4.329,-4.329,-4.329,-4.329,-4.329,-4.329,-4.3529,-4.3958,-4.4227,-4.4796,-4.5544,-4.5813,-4.6352,-4.692,-4.692,-4.71,-4.7222,-4.6726,-4.538,-4.3752,-4.2719,-4.1187,-3.9674,-3.9171,-3.9019,-3.9019,-3.9019,-3.8366,-3.7638,-3.7538,-3.6983,-3.6405,-3.6405,-3.6405,-3.6405,-3.6405,-3.6405,-3.6405,-3.6405,-3.6405,-3.6405,-3.6405,-3.6405,-3.6405,-3.6405,-3.6405,-3.5858,-3.4532,-3.3155,-3.1664,-3.0083,-2.8568,-2.7493,-2.6934,-2.6738,-2.6523,-2.62,-2.5869,-2.5693,-2.5693,-2.5693,-2.5693,-2.5693,-2.5693,-2.5693,-2.5693,-2.5693,-2.5693,-2.3256,-2.4742,-2.6916,-3.0174,-3.2208,-3.4363,-3.8237,-3.7701,-3.6916,-3.898,-3.815,-3.7317,-3.8311,-3.8482,-3.8482,-3.8482,-3.9559,-4.0397,-4.0397,-4.0965,-4.1632,-4.2231,-4.2321,-4.2491,-4.305,-4.311,-4.311,-4.311,-4.317,-4.32,-4.32,-4.326,-4.329,-4.329,-4.329,-4.329,-4.329,-4.329,-4.329,-4.329,-4.329,-4.329,-4.329,-4.329,-4.329,-4.329,-4.329,-4.329,-4.329,-4.329,-4.329,-4.3349,-4.3947,-4.4257,-4.4377,-4.4975,-4.5633,-4.619,-4.619,-4.6621,-4.6927,-4.5649,-4.4841,-4.3861,-4.1456,-4.0271,-3.9516,-3.8334,-3.8015,-3.8015,-3.8015,-3.7588,-3.7312,-3.7814,-3.7136,-3.6405,-3.6405,-3.6405,-3.6405,-3.6405,-3.6405,-3.6405,-3.6405,-3.6405,-3.6405,-3.6405,-3.6405,-3.6405,-3.6405,-3.6405,-3.581,-3.4385,-3.3055,-3.1724,-3.0224,-2.8645,-2.7767,-2.7728,-2.7285,-2.7051,-2.7012,-2.622,-2.5791,-2.5752,-2.5752,-2.5732,-2.5693,-2.5693,-2.5693,-2.5693,-2.5693,-2.5693,-2.1957,-2.4908,-2.8694,-3.1801,-3.4682,-3.675,-3.688,-3.7175,-3.7814,-3.9156,-3.9109,-3.8918,-3.9164,-3.92,-3.92,-3.92,-3.9888,-4.0397,-4.0397,-4.0965,-4.1482,-4.1602,-4.1632,-4.1692,-4.1773,-4.1803,-4.1803,-4.1803,-4.2282,-4.262,-4.262,-4.306,-4.329,-4.329,-4.329,-4.329,-4.329,-4.329,-4.329,-4.329,-4.329,-4.329,-4.329,-4.329,-4.329,-4.329,-4.329,-4.329,-4.329,-4.329,-4.329,-4.329,-4.3439,-4.3828,-4.4317,-4.4466,-4.4945,-4.5514,-4.5514,-4.5603,-4.5555,-4.4385,-4.3231,-4.2011,-4.0529,-3.9284,-3.8383,-3.8088,-3.8015,-3.8015,-3.8015,-3.7588,-3.7211,-3.7337,-3.6883,-3.6405,-3.6405,-3.6405,-3.6405,-3.6405,-3.6405,-3.6405,-3.6405,-3.6405,-3.6405,-3.6405,-3.6405,-3.6405,-3.6405,-3.6405,-3.5451,-3.2982,-3.2482,-3.1316,-2.8953,-2.8416,-2.8027,-2.7748,-2.763,-2.7363,-2.7031,-2.6836,-2.6582,-2.625,-2.625,-2.6074,-2.5693,-2.5693,-2.5693,-2.5693,-2.5693,-2.5693,-2.2615,-2.6,-3.0059,-3.3618,-3.578,-3.6936,-3.6588,-3.7168,-3.7956,-3.8509,-3.9017,-3.9373,-3.9373,-3.9373,-3.9373,-3.9373,-3.9709,-3.9918,-3.9918,-4.0217,-4.0546,-4.0876,-4.0905,-4.1025,-4.1354,-4.1422,-4.1422,-4.1422,-4.1722,-4.1931,-4.1931,-4.2222,-4.2551,-4.2851,-4.288,-4.303,-4.329,-4.329,-4.329,-4.329,-4.329,-4.329,-4.329,-4.329,-4.329,-4.329,-4.329,-4.329,-4.329,-4.329,-4.329,-4.329,-4.329,-4.3499,-4.3798,-4.3798,-4.4257,-4.4825,-4.4825,-4.5035,-4.5025,-4.327,-4.2027,-4.0923,-3.9144,-3.7967,-3.7211,-3.7211,-3.7211,-3.7211,-3.7211,-3.7059,-3.6832,-3.6832,-3.6606,-3.6405,-3.6405,-3.6405,-3.6405,-3.6405,-3.6405,-3.6405,-3.6405,-3.6405,-3.6405,-3.6405,-3.6405,-3.6405,-3.6405,-3.6405,-3.5355,-3.2582,-3.228,-3.1214,-2.8548,-2.8301,-2.8203,-2.7988,-2.7969,-2.7871,-2.7637,-2.7617,-2.7324,-2.6699,-2.6699,-2.6582,-2.6298,-2.6298,-2.6298,-2.6298,-2.6298,-2.6298,-2.3196,-2.6873,-3.0981,-3.4775,-3.6043,-3.6308,-3.6362,-3.7181,-3.7858,-3.7708,-3.8598,-3.9373,-3.9373,-3.9373,-3.9373,-3.9373,-3.9373,-3.9373,-3.9373,-3.9373,-3.9619,-4.0157,-4.0217,-4.0457,-4.0995,-4.1025,-4.1025,-4.1025,-4.1145,-4.1205,-4.1205,-4.1324,-4.1662,-4.2201,-4.2231,-4.2491,-4.311,-4.311,-4.32,-4.329,-4.329,-4.329,-4.329,-4.329,-4.329,-4.329,-4.329,-4.329,-4.329,-4.329,-4.329,-4.329,-4.329,-4.329,-4.329,-4.329,-4.3648,-4.4137,-4.4137,-4.4496,-4.4543,-4.2137,-4.1018,-4.0203,-3.7796,-3.6782,-3.6405,-3.6405,-3.6405,-3.6405,-3.6405,-3.6405,-3.6405,-3.6405,-3.6405,-3.6405,-3.6405,-3.6405,-3.6405,-3.6405,-3.6405,-3.6405,-3.6405,-3.6405,-3.6405,-3.6405,-3.6405,-3.6405,-3.6405,-3.6405,-3.5451,-3.2932,-3.2431,-3.1316,-2.8847,-2.8441,-2.8301,-2.8301,-2.8301,-2.8301,-2.8301,-2.8301,-2.7969,-2.7246,-2.7168,-2.709,-2.7012,-2.7012,-2.7012,-2.7012,-2.7012,-2.7012,-2.0827,-2.572,-3.111,-3.3891,-3.5667,-3.637,-3.5041,-3.6591,-3.8091,-3.7266,-3.8311,-3.9373,-3.9373,-3.9373,-3.9373,-3.9373,-3.9373,-3.9373,-3.9373,-3.9373,-3.9403,-3.9493,-3.9523,-3.9589,-3.9679,-3.9679,-3.9679,-3.9679,-4.0217,-4.0516,-4.0516,-4.1055,-4.1452,-4.1542,-4.1504,-4.1871,-4.253,-4.253,-4.2761,-4.329,-4.329,-4.329,-4.329,-4.329,-4.329,-4.329,-4.329,-4.329,-4.329,-4.329,-4.329,-4.329,-4.329,-4.329,-4.329,-4.329,-4.3349,-4.3409,-4.3409,-4.3469,-4.3208,-4.0871,-4.0078,-3.9584,-3.7232,-3.6455,-3.6405,-3.6405,-3.6405,-3.6405,-3.6405,-3.6405,-3.6405,-3.6405,-3.6405,-3.6405,-3.6405,-3.6405,-3.6405,-3.6405,-3.6405,-3.6405,-3.6405,-3.6405,-3.6405,-3.6405,-3.6405,-3.6405,-3.6405,-3.6405,-3.581,-3.4288,-3.3055,-3.1673,-3.0172,-2.8953,-2.8301,-2.8301,-2.8301,-2.8301,-2.8301,-2.8301,-2.8242,-2.8125,-2.7773,-2.7402,-2.7012,-2.7012,-2.7012,-2.7012,-2.7012,-2.7012,-2.3303,-2.6918,-3.0279,-3.3221,-3.4734,-3.5162,-3.4067,-3.5459,-3.6879,-3.6483,-3.7363,-3.8512,-3.9254,-3.9373,-3.9373,-3.9373,-3.9373,-3.9373,-3.9373,-3.9373,-3.9373,-3.9373,-3.9373,-3.9373,-3.9373,-3.9373,-3.9373,-3.9373,-3.9679,-3.9858,-3.9858,-4.0127,-4.0457,-4.0816,-4.0816,-4.1145,-4.1841,-4.1841,-4.2132,-4.2791,-4.311,-4.329,-4.329,-4.329,-4.329,-4.329,-4.329,-4.329,-4.329,-4.329,-4.329,-4.329,-4.329,-4.329,-4.329,-4.329,-4.329,-4.329,-4.329,-4.329,-4.29,-4.0618,-3.9913,-3.9448,-3.7129,-3.6405,-3.6405,-3.6405,-3.6405,-3.6405,-3.6405,-3.6405,-3.6405,-3.6405,-3.6405,-3.6405,-3.6405,-3.6405,-3.6405,-3.6405,-3.6405,-3.6405,-3.6405,-3.6405,-3.6405,-3.6405,-3.6405,-3.6405,-3.6405,-3.6405,-3.5858,-3.4532,-3.3871,-3.2605,-3.0463,-2.9755,-2.9112,-2.8354,-2.8301,-2.8301,-2.8301,-2.8301,-2.8301,-2.8301,-2.8105,-2.793,-2.7734,-2.7734,-2.7734,-2.7734,-2.7734,-2.7734,-2.4341,-2.657,-2.8213,-3.151,-3.2882,-3.3348,-3.323,-3.4482,-3.5676,-3.5676,-3.6599,-3.7704,-3.8721,-3.905,-3.917,-3.917,-3.932,-3.9373,-3.9373,-3.9373,-3.9373,-3.9373,-3.9373,-3.9373,-3.9373,-3.9373,-3.9373,-3.9373,-3.9373,-3.9373,-3.9373,-3.9373,-3.9649,-4.0127,-4.0157,-4.0457,-4.1115,-4.1474,-4.1901,-4.241,-4.303,-4.329,-4.329,-4.329,-4.329,-4.329,-4.329,-4.329,-4.329,-4.329,-4.329,-4.329,-4.329,-4.329,-4.329,-4.329,-4.329,-4.329,-4.329,-4.329,-4.29,-4.0618,-3.9913,-3.9448,-3.7129,-3.6405,-3.6405,-3.6405,-3.6505,-3.6606,-3.6606,-3.6732,-3.6832,-3.6832,-3.6832,-3.6757,-3.6455,-3.6405,-3.6405,-3.6405,-3.6405,-3.6405,-3.6405,-3.6405,-3.6405,-3.6405,-3.6405,-3.6405,-3.6405,-3.6405,-3.6026,-3.5017,-3.4581,-3.3575,-3.1542,-3.0721,-2.9859,-2.8847,-2.8495,-2.8301,-2.8301,-2.8301,-2.8301,-2.8301,-2.8301,-2.8301,-2.8301,-2.8301,-2.8301,-2.8301,-2.8301,-2.8301,-2.0997,-2.2585,-2.4289,-2.8019,-2.9777,-3.0975,-3.2324,-3.3868,-3.5056,-3.5056,-3.631,-3.7434,-3.7494,-3.8033,-3.8452,-3.8452,-3.899,-3.9373,-3.9373,-3.9373,-3.9373,-3.9373,-3.9373,-3.9373,-3.9373,-3.9373,-3.9373,-3.9373,-3.9373,-3.9373,-3.9373,-3.9373,-3.9439,-3.9433,-3.9433,-3.9798,-4.0457,-4.1722,-4.2381,-4.241,-4.303,-4.329,-4.329,-4.329,-4.329,-4.329,-4.329,-4.329,-4.329,-4.329,-4.329,-4.329,-4.329,-4.329,-4.329,-4.329,-4.329,-4.329,-4.329,-4.329,-4.29,-4.0618,-3.9913,-3.9448,-3.7129,-3.6405,-3.6405,-3.6405,-3.6782,-3.7136,-3.7136,-3.7538,-3.7914,-3.7914,-3.7914,-3.7638,-3.6631,-3.6405,-3.6405,-3.6405,-3.6405,-3.6405,-3.6405,-3.6405,-3.6405,-3.6405,-3.6405,-3.6405,-3.6405,-3.6405,-3.6358,-3.631,-3.5162,-3.4337,-3.419,-3.1796,-3.0276,-3.0224,-2.9006,-2.8301,-2.8301,-2.8301,-2.8301,-2.8301,-2.8301,-2.8301,-2.8301,-2.8301,-2.8301,-2.8301,-2.8301,-2.8301,-1.9936,-2.1493,-2.316,-2.5614,-2.7769,-2.9547,-3.0422,-3.2556,-3.4358,-3.4358,-3.5305,-3.6178,-3.6178,-3.7045,-3.7913,-3.8332,-3.8601,-3.8901,-3.9313,-3.9373,-3.9373,-3.9373,-3.9373,-3.9373,-3.9373,-3.9373,-3.9373,-3.9373,-3.9373,-3.9373,-3.9373,-3.9373,-3.9373,-3.9373,-3.9373,-3.9529,-3.9768,-4.0666,-4.1115,-4.1115,-4.2192,-4.2701,-4.2731,-4.315,-4.329,-4.329,-4.329,-4.329,-4.329,-4.329,-4.329,-4.329,-4.329,-4.329,-4.329,-4.329,-4.329,-4.329,-4.329,-4.282,-4.1947,-4.0404,-3.936,-3.8424,-3.6896,-3.6656,-3.6885,-3.6885,-3.7287,-3.7713,-3.7713,-3.7864,-3.8015,-3.8015,-3.8015,-3.7889,-3.7513,-3.7412,-3.7412,-3.7412,-3.7136,-3.6885,-3.6885,-3.6631,-3.6405,-3.6405,-3.6405,-3.6405,-3.6405,-3.6405,-3.6405,-3.6405,-3.5953,-3.5331,-3.4483,-3.2655,-3.1235,-3.0359,-2.9059,-2.8301,-2.8301,-2.8301,-2.8301,-2.8301,-2.8301,-2.8688,-2.9565,-2.9565,-3.0016,-3.0876,-2.9964,-2.9565,-1.8807,-2.0087,-2.1716,-2.3948,-2.5544,-2.7105,-2.9319,-3.1054,-3.2438,-3.3135,-3.4196,-3.5001,-3.5001,-3.5978,-3.6985,-3.7644,-3.7913,-3.8302,-3.899,-3.908,-3.917,-3.9343,-3.9373,-3.9373,-3.9373,-3.9373,-3.9373,-3.9373,-3.9373,-3.9373,-3.9373,-3.9373,-3.9373,-3.9373,-3.9373,-3.9373,-3.9373,-4.0068,-4.0397,-4.0397,-4.1542,-4.2201,-4.241,-4.2821,-4.312,-4.329,-4.329,-4.329,-4.329,-4.329,-4.329,-4.329,-4.329,-4.329,-4.329,-4.329,-4.329,-4.329,-4.329,-4.282,-4.1906,-4.0404,-3.9496,-3.8671,-3.713,-3.701,-3.7462,-3.7462,-3.7864,-3.8291,-3.8291,-3.8442,-3.8567,-3.8567,-3.8567,-3.8567,-3.8567,-3.8266,-3.8015,-3.8015,-3.7713,-3.7462,-3.7462,-3.7161,-3.6958,-3.6958,-3.6958,-3.6958,-3.6958,-3.6958,-3.6958,-3.6958,-3.6958,-3.6474,-3.5454,-3.4056,-3.2813,-3.1746,-2.9964,-2.8953,-2.8953,-2.8548,-2.8301,-2.8301,-2.8301,-2.9197,-3.0979,-3.0514,-3.0514,-3.0979,-3.0979,-3.0721,0.0,0.0,0.0,0.0,0.0,0.0,-2.8935,-2.9363,-2.9193,-3.1275,-3.2885,-3.3887,-3.3945,-3.4773,-3.5666,-3.6324,-3.6985,-3.7614,-3.8272,-3.8362,-3.8601,-3.9254,-3.9379,-3.9379,-3.9379,-3.9373,-3.9373,-3.9373,-3.9373,-3.9373,-3.9373,-3.9373,-3.9373,-3.9373,-3.9373,-3.9373,-3.9373,-4.0068,-4.0367,-4.0367,-4.1025,-4.1722,-4.2381,-4.2381,-4.2731,-4.329,-4.329,-4.329,-4.329,-4.329,-4.329,-4.329,-4.329,-4.329,-4.329,-4.329,-4.329,-4.329,-4.329,-4.328,-4.285,-4.0646,-4.0211,-4.0214,-3.7928,-3.7588,-3.804,-3.804,-3.8442,-3.8944,-3.8944,-3.9295,-3.9697,-3.9697,-3.9697,-3.9697,-3.9697,-3.8843,-3.8065,-3.8065,-3.804,-3.804,-3.804,-3.8015,-3.8015,-3.8015,-3.8015,-3.8015,-3.8015,-3.8015,-3.8015,-3.8015,-3.8015,-3.7789,-3.7262,-3.6014,-3.4982,-3.4457,-3.1942,-3.0401,-3.0349,-2.9079,-2.8354,-2.832,-2.8354,-2.967,-3.223,-3.0979,-2.9702,-2.8601,-3.1133,-3.1571,-1.7524,0.0,0.0,0.0,0.0,0.0,0.0,-2.5484,-2.6943,-2.9107,-3.0421,-3.155,-3.273,-3.3774,-3.4501,-3.4675,-3.5866,-3.6956,-3.7584,-3.7674,-3.7764,-3.7943,-3.8392,-3.8691,-3.8691,-3.914,-3.9373,0.0,-3.9373,-3.9373,-3.9373,-3.9373,-3.9373,-3.9373,-3.9373,-3.9373,-3.9373,-3.9553,-3.9679,-3.9709,-4.0367,-4.1025,-4.1692,-4.2171,-4.2731,-4.329,-4.329,-4.329,-4.329,-4.329,-4.329,-4.329,-4.329,-4.329,-4.329,-4.329,-4.329,-4.329,-4.329,-4.2444,-4.1308,-4.0697,-3.9712,-3.8637,-3.796,-3.8191,-3.8617,-3.8617,-3.9044,-3.9471,-3.9471,-3.9572,-3.9697,-3.9697,-3.9697,-3.9697,-3.9697,-3.9446,-3.922,-3.922,-3.8919,-3.8617,-3.8617,-3.8291,-3.8015,-3.8015,-3.8015,-3.8015,-3.8015,-3.8015,-3.8015,-3.8015,-3.8015,-3.7939,-3.7789,-3.6574,-3.5723,-3.558,-3.3902,-3.2516,-3.1422,-3.068,-2.9842,-2.875,-2.9412,-3.012,-3.0876,-3.1469,-3.2582,-3.4142,-3.2883,-3.2079,-1.8279,-1.8882,0.0,0.0,0.0,0.0,-2.2849,-2.3727,-2.4793,-2.7245,-2.8725,-2.9868,-3.1105,-3.2278,-3.3067,-3.3067,-3.4088,-3.5366,-3.6824,-3.7015,-3.7135,-3.7375,-3.7734,-3.7973,-3.7973,-3.8601,-3.899,-3.899,-3.926,-3.9373,-3.9373,-3.9373,-3.9373,-3.9373,-3.9373,-3.9373,-3.9373,-3.9373,-3.9373,-3.9373,-3.9798,-4.0487,-4.1384,-4.1811,-4.2462,-4.329,-4.329,-4.329,-4.329,-4.329,-4.329,-4.329,-4.329,-4.329,-4.329,-4.329,-4.329,-4.324,-4.3035,-4.2263,-4.1283,-4.0577,-3.9744,-3.9009,-3.8516,-3.8768,-3.922,-3.922,-3.9446,-3.9697,-3.9697,-3.9697,-3.9697,-3.9697,-3.9697,-3.9697,-3.9697,-3.9697,-3.9697,-3.9697,-3.9421,-3.922,-3.922,-3.8944,-3.8718,-3.8718,-3.8718,-3.8718,-3.8718,-3.8718,-3.8718,-3.8718,-3.8718,-3.8617,-3.8391,-3.7665,-3.7087,-3.6844,-3.5577,-3.4416,-3.3599,-3.2731,-3.1508,-2.9863,-3.0378,-3.0809,-3.1133,-3.2482,-3.4313,-3.631,-3.3578,-3.2582,-1.9559,-2.0062,0.0,0.0,-2.0713,0.0,-2.3346,-2.3125,-2.2924,-2.5418,-2.7033,-2.823,-2.8925,-3.0288,-3.1261,-3.1261,-3.193,-3.3318,-3.587,-3.6224,-3.6466,-3.7101,-3.7255,-3.7315,-3.7315,-3.7913,-3.8272,-3.8272,-3.8901,-3.9313,-3.9373,-3.9373,-3.9373,-3.9373,-3.9373,-3.9373,-3.9373,-3.9373,-3.9373,-3.9373,-3.9373,-4.0068,-4.1265,-4.1392,-4.2073,-4.32,-4.326,-4.329,-4.329,-4.329,-4.329,-4.329,-4.329,-4.329,-4.329,-4.329,-4.329,-4.322,-4.2756,-4.2481,-4.2064,-4.0588,-4.0281,-4.0314,-3.9297,-3.9295,-3.9697,-3.9697,-3.9697,-3.9697,-3.9697,-3.9697,-3.9697,-3.9697,-3.9697,-3.9697,-3.9697,-3.9697,-3.9697,-3.9697,-3.9697,-3.9697,-3.9697,-3.9697,-3.9697,-3.9697,-3.9697,-3.9697,-3.9697,-3.9697,-3.9697,-3.9697,-3.9697,-3.9496,-3.9045,-3.902,-3.8743,-3.8216,-3.7089,-3.633,-3.6176,-3.4947,-3.3412,-3.154,-3.136,-3.1763,-3.2532,-3.397,-3.521,-3.6358,-3.3749,-3.3304,-2.1192,-2.1493,-2.182,-2.1194,0.0,0.0,-1.9836,-2.0614,-2.1794,-2.2347,-2.3048,-2.4106,-2.6011,-2.7275,-2.8013,-2.8013,-2.9871,-3.2055,-3.4206,-3.4516,-3.4844,-3.575,-3.6357,-3.6656,-3.6656,-3.7225,-3.7614,-3.7614,-3.8212,-3.8841,-3.9379,-3.9373,-3.9373,-3.9373,-3.9373,-3.9373,-3.9373,-3.9373,-3.9373,-3.9373,-3.9373,-3.9828,-4.0606,-4.1145,-4.1841,-4.262,-4.312,-4.329,-4.329,-4.329,-4.329,-4.329,-4.329,-4.329,-4.329,-4.329,-4.329,-4.3339,-4.3764,-4.294,-4.1706,-4.1909,-4.1006,-3.9803,-3.9624,-3.9622,-3.9697,-3.9697,-3.9697,-3.9697,-3.9697,-3.9697,-3.9697,-3.9697,-3.9697,-3.9697,-3.9697,-3.9697,-3.9697,-3.9697,-3.9697,-3.9697,-3.9697,-3.9697,-3.9697,-3.9697,-3.9697,-3.9697,-3.9697,-3.9697,-3.9697,-3.9697,-3.9697,-3.9647,-3.9546,-3.9521,-3.9496,-3.9371,-3.9141,-3.842,-3.7273,-3.6583,-3.5514,-3.3937,-3.3182,-3.3203,-3.397,-3.5355,-3.6168,-3.6358,-3.4727,-3.4727,-2.2548,-2.2723,-2.3075,-2.2799,0.0,0.0,0.0,-2.0665,-2.1041,-2.2447,-2.2297,-2.2498,-2.4431,-2.4969,-2.5288,-2.5858,-2.7525,-2.9349,-3.1129,-3.2492,-3.3671,-3.4643,-3.5037,-3.5242,-3.5242,-3.6268,-3.7075,-3.7375,-3.7704,-3.8182,-3.8871,-3.8901,-3.905,-3.9373,-3.9373,-3.9373,-3.9373,-3.9373,-3.9373,-3.9373,-3.9373,-3.9768,-4.0427,-4.1085,-4.1782,-4.244,-4.306,-4.329,-4.329,-4.329,-4.329,-4.329,-4.329,-4.329,-4.329,-4.329,-4.3499,-4.3696,-4.3095,-4.2523,-4.1909,-4.1298,-4.0461,-3.9697,-3.9697,-3.9697,-3.9697,-3.9697,-3.9697,-3.9697,-3.9697,-3.9697,-3.9697,-3.9697,-3.9697,-3.9697,-3.9697,-3.9697,-3.9697,-3.9697,-3.9697,-3.9697,-3.9697,-3.9697,-3.9697,-3.9697,-3.9697,-3.9697,-3.9697,-3.9697,-3.9697,-3.9697,-3.9697,-3.9697,-3.9697,-3.9697,-3.9697,-3.9697,-3.9697,-3.9362,-3.8635,-3.8365,-3.7449,-3.5723,-3.4982,-3.4778,-3.5196,-3.6553,-3.6933,-3.6358,-3.5986,-3.6183,-2.4173,-2.4356,-2.4782,0.0,0.0,-2.2422,0.0,0.0,0.0,0.0,0.0,0.0,0.0,0.0,0.0,-2.3879,0.0,0.0,0.0,-2.9861,0.0,-3.31,-3.3459,-3.3568,-3.3568,-3.4702,-3.5952,-3.7165,-3.6866,-3.7105,-3.8153,-3.8332,-3.8631,-3.92,-3.9313,-3.9373,-3.9373,-3.9373,-3.9373,-3.9373,-3.9373,-3.9709,-4.0247,-4.1025,-4.1722,-4.2261,-4.2733,-4.313,-4.329,-4.3061,-4.313,-4.329,-4.329,-4.329,-4.325,-4.3021,-4.3547,-4.405,-4.2177,-4.1975,-4.2234,-4.0613,-3.9878,-3.9697,-3.9697,-3.9697,-3.9697,-3.9697,-3.9697,-3.9697,-3.9697,-3.9697,-3.9697,-3.9697,-3.9697,-3.9697,-3.9697,-3.9697,-3.9697,-3.9697,-3.9697,-3.9697,-3.9697,-3.9697,-3.9697,-3.9697,-3.9697,-3.9697,-3.9697,-3.9697,-3.9697,-3.9697,-3.9697,-3.9697,-3.9697,-3.9697,-3.9697,-3.9697,-3.9697,-3.9697,-3.9697,-3.9697,-3.8778,-3.6848,-3.6367,-3.6105,-3.6009,-3.7119,-3.7293,-3.6732,-3.7136,-3.7337,0.0,0.0,0.0,0.0,-2.5041,0.0,0.0,0.0,-2.1568,-1.991,0.0,0.0,0.0,0.0,0.0,0.0,0.0,0.0,-2.4981,-2.5818,-2.7411,-3.0211,-3.1428,-3.2034,-3.2034,-3.1838,-3.3083,-3.6384,-3.4951,-3.4981,-3.7404,-3.8063,-3.8422,-3.8512,-3.911,-3.9373,-3.9373,-3.9373,-3.9373,-3.9373,-3.9373,-3.9469,-3.9589,-4.0816,-4.1452,-4.1526,-4.1708,-4.2386,-4.321,-4.2193,-4.2386,-4.329,-4.329,-4.329,-4.317,-4.2152,-4.2878,-4.405,-4.2294,-4.2049,-4.2375,-4.1652,-4.0592,-3.9697,-3.9697,-3.9697,-3.9697,-3.9697,-3.9697,-3.9697,-3.9697,-3.9697,-3.9697,-3.9697,-3.9697,-3.9697,-3.9697,-3.9697,-3.9697,-3.9697,-3.9697,-3.9697,-3.9697,-3.9697,-3.9697,-3.9697,-3.9697,-3.9697,-3.9697,-3.9697,-3.9697,-3.9697,-3.9697,-3.9697,-3.9697,-3.9697,-3.9697,-3.9697,-3.9697,-3.9697,-3.9697,-3.9697,-3.8778,-3.6848,-3.6725,-3.6462,-3.6009,-3.6162,-3.6795,-3.7814,-3.7889,-3.7914,0.0,0.0,0.0,0.0,0.0,0.0,-2.1644,0.0,-2.079,0.0,0.0,0.0,0.0,0.0,0.0,0.0,-2.1747,0.0,0.0,0.0,-2.4967,-2.8406,0.0,0.0,-3.1496,-3.1818,-3.3024,-3.5696,-3.4053,-3.4083,-3.6746,-3.7135,-3.7614,-3.8362,-3.8661,-3.902,-3.9373,-3.9373,-3.9373,-3.9373,-3.9373,-3.9619,-4.0008,-4.0965,-4.1258,-4.0948,-4.1418,-4.1864,-4.2275,-4.1794,-4.2275,-4.329,-4.329,-4.329,-4.331,-4.3194,-4.3436,-4.3629,-4.2558,-4.2058,-4.1785,-4.0817,-4.0134,-3.9697,-3.9697,-3.9697,-3.9697,-3.9697,-3.9697,-3.9697,-3.9697,-3.9697,-3.9697,-3.9697,-3.9697,-3.9697,-3.9697,-3.9697,-3.9697,-3.9697,-3.9697,-3.9697,-3.9697,-3.9697,-3.9697,-3.9697,-3.9697,-3.9697,-3.9697,-3.9697,-3.9697,-3.9697,-3.9697,-3.9697,-3.9697,-3.9697,-3.9697,-3.9697,-3.9697,-3.9697,-3.9697,-3.9697,-3.9314,-3.8524,-3.8447,-3.8401,-3.8179,-3.8179,-3.8435,-3.8969,-3.8668,-3.8517,-2.8147,0.0,0.0,0.0,0.0,0.0,0.0,0.0,0.0,0.0,0.0,0.0,0.0,0.0,0.0,0.0,0.0,-2.1619,0.0,-2.1468,0.0,0.0,0.0,0.0,0.0,-3.0628,-3.1632,-3.4453,-3.2795,-3.3036,-3.6058,-3.6387,-3.6985,-3.8093,-3.8302,-3.8721,-3.9373,-3.9373,-3.9373,-3.9373,-3.9373,-3.9768,-4.0427,-4.1085,-4.1106,-4.0613,-4.0996,-4.1295,-4.1587,-4.1253,-4.1988,-4.329,-4.329,-4.3409,-4.3618,-4.3783,-4.365,-4.3283,-4.2325,-4.1576,-4.0945,-3.9981,-3.9697,-3.9697,-3.9697,-3.9697,-3.9697,-3.9697,-3.9697,-3.9697,-3.9697,-3.9697,-3.9697,-3.9697,-3.9697,-3.9697,-3.9697,-3.9697,-3.9697,-3.9697,-3.9697,-3.9697,-3.9697,-3.9697,-3.9697,-3.9697,-3.9697,-3.9697,-3.9697,-3.9697,-3.9697,-3.9697,-3.9697,-3.9697,-3.9697,-3.9697,-3.9697,-3.9697,-3.9697,-3.9697,-3.9697,-3.9697,-3.9697,-3.9697,-3.9697,-3.9697,-3.9697,-3.9697,-3.9697,-3.9697,-3.927,-3.9094,0.0,0.0,0.0,-2.5778,0.0,0.0,0.0,0.0,-2.2096,0.0,0.0,0.0,0.0,0.0,0.0,0.0,0.0,0.0,0.0,0.0,0.0,0.0,0.0,0.0,0.0,-2.6785,-2.7307,0.0,-3.0776,-3.139,-3.534,-3.6148,-3.6776,-3.7434,-3.8063,-3.8721,-3.9373,-3.9373,-3.9373,-3.9373,-3.9373,-3.9768,-4.0427,-4.1085,-4.1106,-4.0572,-4.0152,-4.0575,-4.1504,-4.0404,-4.1281,-4.329,-4.329,-4.3678,-4.4165,-4.3044,-4.2983,-4.3152,-4.1464,-4.0352,-3.9749,-3.9697,-3.9697,-3.9697,-3.9697,-3.9697,-3.9697,-3.9697,-3.9697,-3.9697,-3.9697,-3.9697,-3.9697,-3.9697,-3.9697,-3.9697,-3.9697,-3.9697,-3.9697,-3.9697,-3.9697,-3.9697,-3.9697,-3.9697,-3.9697,-3.9697,-3.9697,-3.9697,-3.9697,-3.9697,-3.9697,-3.9697,-3.9697,-3.9697,-3.9697,-3.9697,-3.9697,-3.9697,-3.9697,-3.9697,-3.9697,-3.9697,-3.9697,-3.9697,-3.9697,-3.9697,-3.9697,-3.9697,-3.9697,-3.9697,-3.9672,-3.9672,0.0,0.0,-3.0909,-2.777,0.0,0.0,0.0,0.0,0.0,0.0,0.0,0.0,0.0,0.0,0.0,0.0,0.0,0.0,0.0,0.0,0.0,0.0,0.0,0.0,0.0,0.0,-2.762,-3.1555,-3.0367,-3.122,-3.5277,-3.5729,-3.6327,-3.7375,-3.7614,-3.8272,-3.9373,-3.9373,-3.9373,-3.9373,-3.9373,-3.9978,-4.1055,-4.1294,-4.0919,-4.0139,-3.9976,-4.0102,-4.0447,-4.0059,-4.1239,-4.329,-4.329,-4.3708,-4.4336,-4.4353,-4.4251,-4.3808,-4.1935,-4.0639,-3.9697,-3.9697,-3.9697,-3.9697,-3.9697,-3.9697,-3.9697,-3.9697,-3.9697,-3.9697,-3.9697,-3.9697,-3.9697,-3.9697,-3.9697,-3.9697,-3.9697,-3.9697,-3.9697,-3.9697,-3.9697,-3.9697,-3.9697,-3.9697,-3.9697,-3.9697,-3.9697,-3.9697,-3.9697,-3.9697,-3.9697,-3.9697,-3.9697,-3.9697,-3.9697,-3.9697,-3.9697,-3.9697,-3.9697,-3.9697,-3.9697,-3.9697,-3.9697,-3.9697,-3.9697,-3.9697,-3.9697,-3.9697,-3.9697,-3.9697,-3.9697,-3.9697,-3.2089,-3.239,0.0,-2.9402,-2.8448,0.0,-2.4625,0.0,-2.5285,0.0,0.0,0.0,0.0,0.0,0.0,0.0,0.0,0.0,0.0,-1.8281,0.0,0.0,0.0,0.0,0.0,0.0,-2.6047,-2.9967,-2.9173,-3.0309,0.0,-3.4969,-3.5848,-3.7375,-3.7404,-3.8063,-3.9373,-3.9373,-3.9373,-3.9373,-3.9373,-4.0098,-4.1422,-4.1422,-4.1075,-4.049,-4.0059,-4.0102,-4.049,-4.0059,-4.1239,-4.3319,-4.3559,-4.3764,-4.4098,-4.4959,-4.4762,-4.3814,-4.2194,-4.0794,-3.9697,-3.9697,-3.9697,-3.9697,-3.9697,-3.9697,-3.9697,-3.9697,-3.9697,-3.9697,-3.9697,-3.9697,-3.9697,-3.9697,-3.9697,-3.9697,-3.9697,-3.9697,-3.9697,-3.9697,-3.9697,-3.9697,-3.9697,-3.9697,-3.9697,-3.9697,-3.9697,-3.9697,-3.9697,-3.9697,-3.9697,-3.9697,-3.9697,-3.9697,-3.9697,-3.9697,-3.9697,-3.9697,-3.9697,-3.9697,-3.9697,-3.9697,-3.9697,-3.9697,-3.9697,-3.9697,-3.9697,-3.9181,-3.9181,-3.9697,-3.9129,-3.8921]},{"header":{"parameterUnit":"m.s-1","parameterCategory":1,"la1":30.6,"la2":29.2853,"lo1":-89.7004,"lo2":-87.6739,"dy":0.0162,"dx":0.0183,"nx":112,"ny":82,"refTime":"2026-04-03T00:00:00:Z","depth":0,"parameterNumber":3,"parameterNumberName":"V-component_of_WINDS"},"data":[0.0,0.0,0.0,0.0,0.0,0.0,0.0,0.0,0.0,0.0,0.0,0.0,0.0,0.0,0.0,0.0,0.0,0.0,0.0,0.0,0.0,0.0,0.0,0.0,0.0,0.0,0.0,0.0,0.0,0.0,0.0,0.0,0.0,0.0,0.0,0.0,0.0,0.0,0.0,0.0,0.0,0.0,0.0,0.0,0.0,0.0,0.0,0.0,0.0,0.0,0.0,0.0,0.0,0.0,0.0,0.0,0.0,0.0,0.0,0.0,0.0,0.0,0.0,0.0,0.0,0.0,0.0,0.0,0.0,0.0,0.0,0.0,0.0,0.0,0.0,0.0,0.0,0.0,0.0,0.0,0.0,0.0,0.0,0.0,0.0,0.0,0.0,0.0,0.0,0.0,2.0406,2.037,2.1536,2.2313,2.2313,2.2567,2.2148,2.0861,0.0,0.0,0.0,0.0,0.0,0.0,0.0,0.0,0.0,0.0,0.0,0.0,0.0,0.0,0.0,0.0,0.0,0.0,0.0,0.0,0.0,0.0,0.0,0.0,0.0,0.0,0.0,0.0,0.0,0.0,0.0,0.0,0.0,0.0,0.0,0.0,0.0,0.0,0.0,0.0,0.0,0.0,0.0,0.0,0.0,0.0,0.0,0.0,0.0,0.0,0.0,0.0,0.0,0.0,0.0,0.0,0.0,0.0,0.0,0.0,0.0,0.0,0.0,0.0,0.0,0.0,0.0,0.0,0.0,0.0,0.0,0.0,0.0,0.0,0.0,0.0,0.0,0.0,0.0,0.0,0.0,0.0,0.0,0.0,0.0,0.0,0.0,0.0,0.0,0.0,0.0,0.0,0.0,0.0,0.0,0.0,0.0,0.0,0.0,0.0,0.0,0.0,0.0,0.0,1.9575,2.1725,2.2144,2.2313,2.2313,2.2567,2.2148,2.0861,0.0,0.0,0.0,0.0,0.0,0.0,0.0,0.0,0.0,0.0,0.0,0.0,0.0,0.0,0.0,0.0,0.0,0.0,0.0,0.0,0.0,0.0,0.0,0.0,0.0,0.0,0.0,0.0,0.0,0.0,0.0,0.0,0.0,0.0,0.0,0.0,0.0,0.0,0.0,0.0,0.0,0.0,0.0,0.0,0.0,0.0,0.0,0.0,0.0,0.0,0.0,0.0,0.0,0.0,0.0,0.0,0.0,0.0,0.0,0.0,0.0,0.0,0.0,0.0,0.0,0.0,0.0,0.0,0.0,0.0,0.0,0.0,0.0,0.0,0.0,0.0,0.0,0.0,0.0,0.0,0.0,0.0,0.0,0.0,0.0,0.0,0.0,0.0,0.0,0.0,0.0,0.0,0.0,0.0,0.0,0.0,0.0,0.0,0.0,0.0,0.0,0.0,0.0,1.9912,2.0977,2.2172,2.2651,2.2719,2.2313,2.2704,2.2341,2.0872,1.9731,0.0,0.0,0.0,0.0,0.0,0.0,0.0,0.0,0.0,0.0,0.0,0.0,0.0,0.0,0.0,0.0,0.0,0.0,0.0,0.0,0.0,0.0,0.0,0.0,0.0,0.0,0.0,0.0,0.0,0.0,0.0,0.0,0.0,0.0,0.0,0.0,0.0,0.0,0.0,0.0,0.0,0.0,0.0,0.0,0.0,0.0,0.0,0.0,0.0,0.0,0.0,0.0,0.0,0.0,0.0,0.0,0.0,0.0,0.0,0.0,0.0,0.0,0.0,0.0,0.0,0.0,0.0,0.0,0.0,0.0,0.0,0.0,0.0,0.0,0.0,0.0,0.0,0.0,0.0,0.0,0.0,0.0,0.0,0.0,0.0,0.0,0.0,0.0,0.0,0.0,0.0,0.0,0.0,0.0,0.0,0.0,0.0,0.0,0.0,0.0,0.0,0.0,2.192,2.2482,2.2313,2.297,2.3105,2.2347,2.2693,2.2305,2.0883,1.972,0.0,0.0,0.0,0.0,0.0,0.0,0.0,0.0,0.0,0.0,0.0,0.0,0.0,0.0,0.0,0.0,0.0,0.0,0.0,0.0,0.0,0.0,0.0,0.0,0.0,0.0,0.0,0.0,0.0,0.0,0.0,0.0,0.0,0.0,0.0,0.0,0.0,0.0,0.0,0.0,0.0,0.0,0.0,0.0,0.0,0.0,0.0,0.0,0.0,0.0,0.0,0.0,0.0,0.0,0.0,0.0,0.0,0.0,0.0,0.0,0.0,0.0,0.0,0.0,0.0,0.0,0.0,0.0,0.0,0.0,0.0,0.0,0.0,0.0,0.0,0.0,0.0,0.0,0.0,0.0,0.0,0.0,0.0,0.0,0.0,0.0,0.0,0.0,0.0,0.0,0.0,0.0,0.0,0.0,0.0,0.0,0.0,0.0,0.0,0.0,0.0,0.0,2.1663,2.3071,2.2381,2.297,2.3105,2.2347,2.2168,2.1717,2.0848,1.9283,0.0,0.0,0.0,0.0,0.0,0.0,0.0,0.0,0.0,0.0,0.0,0.0,0.0,0.0,0.0,0.0,0.0,0.0,0.0,0.0,0.0,0.0,0.0,0.0,0.0,0.0,0.0,0.0,0.0,0.0,0.0,0.0,0.0,0.0,0.0,0.0,0.0,0.0,0.0,0.0,0.0,0.0,0.0,0.0,0.0,0.0,0.0,0.0,0.0,0.0,0.0,0.0,0.0,0.0,0.0,0.0,0.0,0.0,0.0,0.0,0.0,0.0,0.0,0.0,0.0,0.0,0.0,0.0,0.0,0.0,0.0,0.0,0.0,0.0,0.0,0.0,0.0,0.0,0.0,0.0,0.0,0.0,0.0,0.0,0.0,0.0,0.0,0.0,0.0,0.0,0.0,0.0,0.0,0.0,0.0,0.0,0.0,0.0,0.0,0.0,0.0,0.0,2.2194,2.3477,0.0,2.3932,2.3797,2.3038,2.2819,2.2199,2.0883,0.0,0.0,0.0,0.0,0.0,0.0,0.0,0.0,0.0,0.0,0.0,0.0,0.0,0.0,0.0,0.0,0.0,0.0,0.0,0.0,0.0,0.0,0.0,0.0,0.0,0.0,0.0,0.0,0.0,0.0,0.0,0.0,0.0,0.0,0.0,0.0,0.0,0.0,0.0,0.0,0.0,0.0,0.0,0.0,0.0,0.0,0.0,0.0,0.0,0.0,0.0,0.0,0.0,0.0,0.0,0.0,0.0,0.0,0.0,0.0,0.0,0.0,0.0,0.0,0.0,0.0,0.0,0.0,0.0,0.0,0.0,0.0,0.0,0.0,0.0,0.0,0.0,0.0,0.0,0.0,0.0,0.0,0.0,0.0,0.0,0.0,0.0,0.0,0.0,0.0,0.0,0.0,0.0,0.0,0.0,0.0,0.0,0.0,0.0,0.0,0.0,0.0,2.0852,2.268,2.3932,0.0,2.4508,2.4203,2.3444,2.3028,2.2128,2.0509,0.0,0.0,0.0,0.0,0.0,0.0,0.0,0.0,0.0,0.0,0.0,0.0,0.0,0.0,0.0,0.0,0.0,0.0,0.0,0.0,0.0,0.0,0.0,0.0,0.0,0.0,0.0,0.0,0.0,0.0,0.0,0.0,0.0,0.0,0.0,0.0,0.0,0.0,0.0,0.0,0.0,0.0,0.0,0.0,0.0,0.0,0.0,0.0,0.0,0.0,0.0,0.0,0.0,0.0,0.0,0.0,0.0,0.0,0.0,0.0,0.0,0.0,0.0,0.0,0.0,0.0,0.0,0.0,0.0,0.0,0.0,0.0,0.0,0.0,0.0,0.0,0.0,0.0,0.0,0.0,0.0,0.0,0.0,0.0,0.0,0.0,0.0,0.0,0.0,0.0,0.0,0.0,0.0,0.0,0.0,0.0,0.0,0.0,0.0,0.0,0.0,0.0,2.0919,2.3154,2.4508,2.4508,2.4508,2.4203,2.3477,2.2573,2.1342,0.0,0.0,0.0,0.0,0.0,0.0,0.0,0.0,0.0,0.0,0.0,0.0,0.0,0.0,0.0,0.0,0.0,0.0,0.0,0.0,0.0,0.0,0.0,0.0,0.0,0.0,0.0,0.0,0.0,0.0,0.0,0.0,0.0,0.0,0.0,0.0,0.0,0.0,0.0,0.0,0.0,0.0,0.0,0.0,0.0,0.0,0.0,0.0,0.0,0.0,0.0,0.0,0.0,0.0,0.0,0.0,0.0,0.0,0.0,0.0,0.0,0.0,0.0,0.0,0.0,0.0,0.0,0.0,0.0,0.0,0.0,0.0,0.0,0.0,0.0,0.0,0.0,0.0,0.0,0.0,0.0,0.0,0.0,0.0,0.0,0.0,0.0,0.0,0.0,0.0,0.0,0.0,0.0,0.0,0.0,0.0,0.0,0.0,0.0,0.0,0.0,0.0,0.0,2.1617,2.3458,2.4914,2.5929,2.5575,2.4966,2.4237,2.3836,2.2729,2.0579,0.0,0.0,0.0,0.0,0.0,0.0,0.0,0.0,0.0,0.0,0.0,0.0,0.0,0.0,0.0,0.0,0.0,0.0,0.0,0.0,0.0,0.0,0.0,0.0,0.0,0.0,0.0,0.0,0.0,0.0,0.0,0.0,0.0,0.0,0.0,0.0,0.0,0.0,0.0,0.0,0.0,0.0,0.0,0.0,0.0,0.0,0.0,0.0,0.0,0.0,0.0,0.0,0.0,0.0,0.0,0.0,0.0,0.0,0.0,0.0,0.0,0.0,0.0,0.0,0.0,0.0,0.0,0.0,0.0,0.0,0.0,0.0,0.0,0.0,0.0,0.0,0.0,0.0,0.0,0.0,0.0,0.0,0.0,0.0,0.0,0.0,0.0,0.0,0.0,0.0,0.0,0.0,0.0,0.0,0.0,0.0,0.0,0.0,0.0,0.0,0.0,0.0,2.1907,2.3594,2.5083,2.6522,2.6048,2.5304,2.4541,2.4371,2.3153,2.0498,0.0,0.0,0.0,0.0,0.0,0.0,0.0,0.0,0.0,0.0,0.0,0.0,0.0,0.0,0.0,0.0,0.0,0.0,0.0,0.0,0.0,0.0,0.0,0.0,0.0,0.0,0.0,0.0,0.0,0.0,0.0,0.0,0.0,0.0,0.0,0.0,0.0,0.0,0.0,0.0,0.0,0.0,0.0,0.0,0.0,0.0,0.0,0.0,0.0,0.0,0.0,0.0,0.0,0.0,0.0,0.0,0.0,0.0,0.0,0.0,0.0,0.0,0.0,0.0,0.0,0.0,0.0,0.0,0.0,0.0,0.0,0.0,0.0,0.0,0.0,0.0,0.0,0.0,0.0,0.0,0.0,0.0,0.0,0.0,0.0,0.0,0.0,0.0,0.0,0.0,0.0,0.0,0.0,0.0,0.0,0.0,0.0,0.0,0.0,0.0,0.0,0.0,2.1907,2.3594,2.5083,2.6522,2.6116,2.5406,2.4643,2.4462,2.3141,2.0114,0.0,0.0,0.0,0.0,0.0,0.0,0.0,0.0,0.0,0.0,0.0,0.0,0.0,0.0,0.0,0.0,0.0,0.0,0.0,0.0,0.0,0.0,0.0,0.0,0.0,0.0,0.0,0.0,0.0,0.0,0.0,0.0,0.0,0.0,0.0,0.0,0.0,0.0,0.0,0.0,0.0,0.0,0.0,0.0,0.0,0.0,0.0,0.0,0.0,0.0,0.0,0.0,0.0,0.0,0.0,0.0,0.0,0.0,0.0,0.0,1.9211,1.8747,0.0,0.0,0.0,0.0,0.0,0.0,0.0,0.0,0.0,0.0,0.0,0.0,0.0,0.0,0.0,0.0,0.0,0.0,0.0,0.0,0.0,0.0,0.0,0.0,0.0,0.0,0.0,0.0,0.0,0.0,0.0,0.0,0.0,0.0,0.0,0.0,0.0,0.0,0.0,0.0,2.1907,2.3594,2.5083,2.6522,2.6556,2.615,2.5439,2.5296,2.4411,2.2494,2.0454,0.0,0.0,0.0,0.0,0.0,0.0,0.0,0.0,0.0,0.0,0.0,0.0,0.0,0.0,0.0,0.0,0.0,0.0,0.0,0.0,0.0,0.0,0.0,0.0,0.0,0.0,0.0,0.0,0.0,0.0,0.0,0.0,0.0,0.0,0.0,0.0,0.0,0.0,0.0,0.0,0.0,0.0,0.0,0.0,0.0,0.0,0.0,0.0,0.0,0.0,0.0,0.0,0.0,0.0,0.0,0.0,0.0,0.0,0.0,2.1291,2.0484,0.0,0.0,0.0,0.0,0.0,0.0,0.0,0.0,0.0,0.0,0.0,0.0,0.0,0.0,0.0,0.0,0.0,0.0,0.0,0.0,0.0,0.0,0.0,0.0,0.0,0.0,0.0,0.0,0.0,0.0,0.0,0.0,0.0,0.0,0.0,0.0,0.0,0.0,0.0,0.0,2.2496,2.412,2.5455,2.659,2.6691,2.6387,2.5676,2.571,2.5036,2.3199,2.1652,0.0,0.0,0.0,0.0,0.0,0.0,0.0,0.0,0.0,0.0,0.0,0.0,0.0,0.0,0.0,0.0,0.0,0.0,0.0,0.0,0.0,0.0,0.0,0.0,0.0,0.0,0.0,0.0,0.0,0.0,0.0,0.0,0.0,0.0,0.0,0.0,0.0,0.0,0.0,0.0,0.0,0.0,0.0,0.0,0.0,0.0,0.0,0.0,0.0,0.0,0.0,0.0,0.0,2.4933,2.546,2.5059,2.6449,2.6826,2.6214,2.3929,2.2894,2.2844,2.2347,0.0,0.0,0.0,0.0,0.0,0.0,0.0,0.0,0.0,0.0,0.0,0.0,0.0,0.0,0.0,0.0,0.0,0.0,0.0,0.0,0.0,0.0,0.0,0.0,2.4576,2.4143,2.1494,0.0,0.0,0.0,0.0,0.0,0.0,0.0,0.0,0.0,0.0,0.0,2.3308,2.4763,2.5931,2.6793,2.6759,2.6454,2.5845,2.5975,2.5392,2.3721,2.2927,2.1834,0.0,0.0,0.0,0.0,0.0,0.0,0.0,0.0,0.0,0.0,0.0,0.0,0.0,0.0,0.0,0.0,0.0,0.0,0.0,0.0,0.0,0.0,0.0,0.0,0.0,0.0,0.0,0.0,0.0,0.0,0.0,0.0,2.0295,2.0789,0.0,0.0,0.0,0.0,0.0,0.0,0.0,0.0,0.0,0.0,0.0,0.0,0.0,2.3703,2.4255,2.6314,2.7344,2.7369,2.8574,2.9101,2.9026,2.9252,2.9302,2.9227,2.885,0.0,2.5122,2.4592,0.0,0.0,0.0,0.0,0.0,0.0,0.0,0.0,0.0,0.0,0.0,0.0,0.0,0.0,0.0,0.0,0.0,0.0,0.0,0.0,0.0,0.0,2.6746,2.7016,2.7125,2.6874,0.0,2.4008,2.1845,1.9688,1.9197,0.0,0.0,0.0,0.0,0.0,0.0,0.0,2.4068,2.5067,2.6133,2.7519,2.7097,2.6657,2.6556,2.6283,2.5996,2.5715,2.4024,2.3021,2.305,2.0326,0.0,0.0,0.0,0.0,0.0,0.0,0.0,0.0,0.0,0.0,0.0,0.0,0.0,0.0,0.0,0.0,0.0,0.0,0.0,0.0,0.0,0.0,0.0,0.0,0.0,0.0,0.0,0.0,0.0,2.0164,2.0839,2.0152,2.0937,2.0961,0.0,0.0,0.0,0.0,0.0,0.0,0.0,0.0,0.0,2.5059,2.5887,2.6565,2.7082,2.8725,2.9528,2.9528,3.0633,3.116,3.116,3.1486,3.1637,3.1637,3.1637,3.0767,2.9147,2.742,2.5849,2.4412,0.0,0.0,0.0,0.0,2.2799,2.2808,2.4518,2.505,2.5077,2.5602,0.0,0.0,0.0,0.0,0.0,0.0,0.0,0.0,0.0,0.0,2.8903,2.9624,2.9505,2.9146,2.8846,2.7346,2.5286,0.0,2.2266,2.1739,1.9894,0.0,0.0,0.0,0.0,2.4154,2.5557,2.6759,2.7604,2.779,2.7519,2.7165,2.6725,2.6535,2.6336,2.6124,2.5281,2.455,2.4017,2.2414,2.1087,0.0,0.0,0.0,0.0,0.0,0.0,0.0,0.0,0.0,0.0,0.0,0.0,0.0,0.0,0.0,0.0,0.0,0.0,0.0,0.0,0.0,0.0,0.0,0.0,0.0,0.0,0.0,0.0,2.1319,2.1665,2.0441,2.2095,2.2501,0.0,0.0,0.0,0.0,0.0,0.0,2.4983,2.5586,2.6565,2.8097,2.8674,2.9202,2.9715,3.0758,3.1235,3.126,3.2064,3.2441,3.2441,3.2893,3.3111,3.3111,3.3111,3.2842,3.2256,2.9806,2.7946,2.6634,2.5967,2.5179,2.4499,2.5477,2.5611,2.5511,2.7293,2.7972,2.8046,2.8163,2.846,2.857,2.7251,0.0,0.0,0.0,0.0,2.8008,2.9864,3.0342,3.0612,3.175,3.1659,3.121,3.1061,3.0133,2.8475,0.0,2.5089,2.4567,2.2928,0.0,0.0,0.0,0.0,2.6454,2.7199,2.8299,2.8822,2.8432,2.8229,2.7807,2.7063,2.6996,2.6774,2.6296,2.6071,2.5512,2.4541,2.4041,2.312,2.1797,0.0,0.0,0.0,0.0,0.0,0.0,0.0,0.0,0.0,0.0,0.0,0.0,0.0,0.0,0.0,0.0,0.0,0.0,0.0,0.0,0.0,0.0,0.0,0.0,0.0,0.0,0.0,0.0,0.0,2.3739,2.5192,0.0,0.0,0.0,0.0,2.4595,2.5619,2.6725,2.7846,2.8386,2.9214,3.0407,3.0959,3.1486,3.2039,3.2641,3.2943,3.2943,3.3061,3.3043,3.3086,3.3111,3.3111,3.3111,3.3111,3.3068,3.2893,3.1201,3.0145,2.9478,2.8385,2.7907,2.7921,2.8461,2.8662,2.8737,2.9428,2.9315,2.9176,3.1104,3.128,3.0723,3.0361,2.9415,0.0,0.0,2.9864,3.0612,3.2018,3.2347,3.2527,3.3215,3.3365,3.3155,3.2557,3.1839,3.0554,0.0,2.6755,2.6159,2.5982,0.0,2.5837,2.6387,2.7148,2.7959,2.8773,2.8942,2.9247,2.9905,2.9364,2.8619,2.7824,2.7756,2.7435,2.6725,2.6013,2.5425,2.4988,2.4528,2.3685,2.2463,2.1078,0.0,0.0,0.0,0.0,0.0,0.0,0.0,0.0,0.0,0.0,0.0,0.0,0.0,0.0,0.0,0.0,0.0,0.0,0.0,0.0,0.0,0.0,0.0,0.0,0.0,0.0,0.0,0.0,2.5577,2.7015,0.0,2.5468,2.5962,2.6553,2.6892,2.7971,2.9076,3.0156,3.0733,3.1562,3.2692,3.2918,3.3269,3.3822,3.4022,3.4148,3.4123,3.3771,3.3596,3.3596,3.3244,3.3111,3.3111,3.3111,3.3111,3.3043,3.2441,3.1863,3.1286,3.0507,3.0206,3.0256,3.0432,3.0507,3.0532,3.0758,3.0683,3.0733,3.1953,3.2027,3.1769,3.2287,3.2108,3.1898,3.2587,3.2916,3.3275,3.4203,3.4442,3.4502,3.4741,3.4442,3.4084,3.3814,3.3275,3.2377,3.1031,2.9386,2.8059,2.7588,2.8126,2.8372,2.759,2.89,2.9939,2.9736,3.0108,3.0311,3.0142,2.9871,2.9397,2.8619,2.8094,2.7689,2.7418,2.6269,2.5334,2.4705,2.4261,2.3699,2.2972,2.2165,2.0696,0.0,0.0,0.0,0.0,0.0,0.0,0.0,0.0,0.0,0.0,0.0,0.0,0.0,0.0,0.0,0.0,0.0,0.0,0.0,0.0,0.0,0.0,0.0,0.0,0.0,2.5413,2.6866,2.7243,2.8925,2.9377,2.7781,2.8435,2.9101,2.9478,3.0532,3.1486,3.219,3.2767,3.3395,3.4148,3.4173,3.4349,3.468,3.468,3.468,3.4726,3.4349,3.4173,3.4173,3.3796,3.3621,3.3621,3.3445,3.3345,3.3345,3.3144,3.2842,3.2466,3.2089,3.1964,3.1964,3.1964,3.1964,3.1938,3.1738,3.1909,3.2191,3.2305,3.2681,3.3095,3.3539,3.3923,3.4262,3.4711,3.4863,3.4921,3.54,3.5519,3.5519,3.5519,3.516,3.4803,3.4563,3.4174,3.3634,3.2976,3.1313,2.9877,2.9377,2.9872,3.0115,2.9508,3.0692,3.1422,3.09,3.1258,3.1292,3.0548,3.048,3.0176,2.945,2.8653,2.8094,2.7824,2.6404,2.527,2.4541,2.4113,2.3672,2.3224,2.2592,2.1316,1.9368,0.0,0.0,0.0,0.0,0.0,0.0,0.0,0.0,0.0,0.0,0.0,0.0,0.0,0.0,0.0,0.0,0.0,0.0,0.0,0.0,0.0,0.0,0.0,2.4825,2.7233,2.8963,2.9013,3.0959,3.1662,3.0105,3.1361,3.229,3.229,3.3319,3.3922,3.3922,3.4424,3.4726,3.4705,3.4705,3.4705,3.4731,3.4731,3.4731,3.4731,3.4705,3.4705,3.4705,3.4726,3.468,3.47,3.4148,3.3922,3.3872,3.3345,3.3093,3.3093,3.3136,3.3111,3.3111,3.3111,3.3111,3.2993,3.2441,3.2854,3.3461,3.2421,3.334,3.4737,3.4243,3.4739,3.5519,3.5519,3.5519,3.5519,3.5519,3.5519,3.5519,3.5519,3.5519,3.531,3.4683,3.4533,3.4354,3.3664,3.2467,3.1562,3.1463,3.0943,3.0992,3.2187,3.2426,0.0,3.2326,3.2307,3.2022,3.1292,3.119,3.092,3.0209,2.9431,2.8653,2.7858,2.6404,2.5236,2.4541,2.4099,2.3694,2.3236,2.232,2.1103,1.956,0.0,0.0,0.0,0.0,0.0,0.0,0.0,0.0,0.0,0.0,0.0,0.0,0.0,0.0,0.0,0.0,0.0,0.0,0.0,0.0,0.0,2.5358,2.7017,2.7168,2.89,3.0583,3.1788,3.2817,3.342,3.337,3.3771,3.3978,3.3978,3.4324,3.45,3.45,3.465,3.4856,3.5257,3.5282,3.5504,3.5952,3.5906,3.5906,3.5952,3.5504,3.5282,3.5257,3.4856,3.468,3.468,3.453,3.45,3.4449,3.3897,3.3671,3.3646,3.3244,3.3111,3.3111,3.3111,3.3111,3.3086,3.2893,3.2777,3.2803,3.3975,3.4138,3.4056,3.5405,3.5651,3.5519,3.5519,3.5519,3.5519,3.5519,3.5519,3.5519,3.5519,3.5519,3.5459,3.525,3.522,3.5011,3.4384,3.3903,3.3366,3.2372,3.2093,3.1933,3.1715,3.2547,0.0,3.2431,3.2307,3.2226,3.2022,3.1515,3.1123,3.092,2.9754,2.8653,2.7858,2.5913,2.4711,2.4508,2.3886,2.3604,2.3715,2.3071,2.2098,0.0,0.0,0.0,0.0,0.0,0.0,0.0,0.0,0.0,0.0,0.0,0.0,0.0,0.0,0.0,0.0,0.0,0.0,0.0,0.0,0.0,0.0,2.7494,2.9402,3.0105,3.1035,3.2089,3.3269,3.3897,3.4374,3.47,3.468,3.468,3.468,3.4881,3.5031,3.5031,3.5278,3.5554,3.5881,3.5881,3.6031,3.6405,3.6405,3.6405,3.6405,3.6031,3.5881,3.5881,3.5554,3.5403,3.5403,3.5132,3.5031,3.4981,3.4474,3.4248,0.0,0.0,0.0,0.0,0.0,3.3111,3.3043,3.2792,3.2786,3.3008,3.4031,3.4358,3.4687,3.5915,3.6119,3.5908,3.5908,3.5729,3.5519,3.5519,3.5519,3.5519,3.5519,3.5519,3.5519,3.5519,3.5519,3.54,3.4981,3.4713,0.0,3.3455,3.2911,3.2492,3.2307,3.274,3.3056,3.2896,3.2818,3.2777,3.276,3.2104,3.1684,3.1684,3.0311,0.0,0.0,0.0,2.5151,2.4541,2.4217,0.0,0.0,0.0,0.0,0.0,0.0,0.0,0.0,2.1329,2.1327,0.0,0.0,0.0,0.0,0.0,0.0,0.0,0.0,0.0,0.0,0.0,0.0,0.0,0.0,0.0,0.0,2.9528,3.1436,3.3043,3.3319,3.3545,3.4022,3.4525,3.4851,3.4901,3.4901,3.4901,3.4901,3.5307,3.5583,3.5583,0.0,0.0,0.0,0.0,3.6405,3.6405,3.6405,3.6405,3.6405,3.6405,3.6405,3.6405,3.6405,3.6405,3.638,3.5855,3.5583,3.5558,3.5006,3.4731,3.4625,3.3571,3.3212,3.3169,3.3093,3.3111,3.2993,3.2491,0.0,0.0,3.3265,3.4382,3.5877,3.6029,3.6329,3.6567,3.6507,3.6058,3.5609,3.5519,3.5519,3.5519,3.5519,3.5519,3.5519,3.5519,3.5519,3.5519,3.5519,3.5011,3.4623,3.4623,3.3514,3.2795,3.3308,3.2983,3.2898,3.3451,3.3501,3.3514,3.3529,0.0,0.0,3.2429,3.1055,2.9905,2.9179,2.769,2.6234,2.4948,2.5221,2.5399,2.533,2.5631,2.5727,2.5697,2.5989,2.6571,2.7317,2.3996,2.3685,0.0,0.0,0.0,0.0,0.0,0.0,0.0,0.0,0.0,0.0,0.0,0.0,0.0,0.0,0.0,3.027,3.1738,3.3018,3.4223,3.4731,3.5056,3.5182,3.5282,3.5554,3.6006,3.6078,3.6078,3.6078,3.6179,3.6207,3.6207,3.6355,3.6405,3.6405,3.6405,3.6405,3.6405,3.6405,3.6405,3.6405,0.0,0.0,3.6405,3.6405,3.6405,3.6405,3.6304,3.6207,3.6157,3.5604,3.5082,3.465,3.3997,3.3746,3.3696,3.3244,3.3111,3.3068,3.2943,3.3021,3.3335,3.414,3.4831,3.5543,3.6405,3.6904,0.0,3.6626,3.6387,3.6178,3.5639,3.5519,3.5519,3.5519,3.5519,3.5519,3.5519,3.5519,3.5519,3.5519,3.54,3.531,3.531,3.4203,3.3186,3.2735,3.3045,3.3373,3.3546,3.3534,3.3703,3.4238,3.3626,3.3186,3.3186,3.1833,3.0683,2.9939,2.8432,2.7452,2.7181,2.7843,2.7929,2.725,2.7334,2.7208,2.6868,2.6944,2.7537,2.8549,2.7235,2.7236,0.0,0.0,0.0,0.0,0.0,0.0,0.0,0.0,0.0,0.0,0.0,2.6001,2.7052,0.0,3.0306,3.1964,3.3169,3.4198,3.4981,3.5332,3.5508,3.5508,3.578,3.6056,3.638,3.6405,3.6405,3.6405,3.6405,3.6405,3.6405,3.6405,3.6405,3.6405,3.6405,3.6405,3.6405,3.6405,3.6405,3.6405,3.6405,3.6405,3.6405,3.6405,3.6405,3.6405,3.6405,3.6405,3.638,3.6056,3.578,3.5479,3.4926,3.455,3.4248,3.3696,3.3495,3.3445,3.3169,3.3111,3.3283,3.4345,3.517,3.5925,3.6987,3.7579,3.7823,3.7524,3.7195,3.6806,3.6178,3.5998,3.5908,3.5579,3.5519,3.5519,3.5519,3.5519,3.5519,3.5519,3.5519,3.5519,3.5519,3.4951,3.4262,3.3604,3.3215,3.313,3.3504,3.3553,3.3826,3.4462,3.4196,3.3964,3.3964,3.2577,3.1427,3.0717,2.9582,2.877,2.8416,2.8807,2.8807,2.8416,2.8416,2.8302,2.81,2.8267,2.8826,2.9801,2.9633,2.9669,0.0,0.0,0.0,0.0,0.0,0.0,0.0,2.406,2.4575,2.5837,2.6967,2.8184,2.9478,3.1009,3.2365,3.3395,3.4299,3.5031,3.5583,3.5658,3.5658,3.5658,3.6081,3.6405,3.6405,3.6405,3.6405,3.6405,3.6405,3.6405,3.6405,3.6405,3.6405,3.6405,3.6405,3.6405,3.6405,3.6405,3.6405,3.6405,3.6405,3.6405,3.6405,3.6405,3.6405,3.6405,3.6405,3.6405,3.6405,3.6405,3.6405,3.6355,3.5881,3.5429,3.4951,3.4299,3.4048,3.3997,3.3545,3.3319,3.3434,3.4528,3.544,3.6408,3.7472,3.8165,3.8571,3.8422,3.8003,3.7464,3.6836,3.6567,3.6357,3.5818,3.5609,3.5519,3.5519,3.5519,3.5519,3.5519,3.5519,3.5519,3.5519,3.5519,3.528,3.4623,3.3574,3.3095,3.3638,3.3729,3.4046,3.4717,3.4755,3.4641,3.4506,3.341,3.2429,3.1664,3.1089,3.048,2.989,2.9856,2.9856,2.9856,2.9721,2.9721,2.9856,3.0,3.0454,3.1232,3.1568,3.1512,2.6841,2.4468,2.3201,2.4925,2.4643,2.4904,0.0,2.8938,2.8687,3.0331,3.1562,3.2432,3.2591,3.3571,3.4505,3.5132,3.5332,3.5608,3.6229,3.6329,3.6329,3.6329,3.638,3.6405,3.6405,3.6405,3.6405,3.6405,3.6405,3.6405,3.6405,3.6405,3.6405,3.6405,3.6405,3.6405,3.6405,3.6405,3.6405,3.6405,3.6405,3.6405,3.6405,3.6405,3.6405,3.6405,3.6405,3.6405,3.6405,3.6405,3.6405,3.6405,3.6355,3.6279,3.6103,3.5002,3.4625,3.4625,3.455,3.4223,3.3972,3.5061,3.579,3.6408,3.7472,3.8487,3.917,3.8571,3.8332,3.8123,3.7464,3.6896,3.6477,3.6387,3.5938,3.5519,3.5519,3.5519,3.5519,3.5519,3.5519,3.5519,3.5519,3.5519,3.528,3.4623,3.4384,3.4302,3.4378,3.4455,3.4736,3.5431,3.5479,3.5216,3.4539,3.4336,3.3931,3.322,3.3085,3.2983,3.2916,3.2916,3.2916,3.2916,3.2259,3.2259,3.2916,3.23,3.2354,3.31,3.3141,3.2854,3.0389,2.8115,2.6579,2.7144,2.7575,2.8247,2.9779,3.0256,3.0658,3.1662,3.2767,3.3545,3.3545,3.4449,3.5232,3.5458,3.5805,3.6107,3.638,3.6081,3.5881,3.5881,3.5604,3.5655,3.6355,3.6405,3.6405,3.6405,3.6405,3.6405,3.6405,3.6405,3.6405,3.6405,3.6405,3.6405,3.6405,3.6405,3.6405,3.6405,3.6405,3.6405,3.6405,3.6405,3.6405,3.6405,3.6405,3.6405,3.6405,3.6405,3.6405,3.6405,3.6405,3.6405,3.6304,3.5479,3.5157,3.5107,3.4781,3.4575,3.4502,3.5227,3.6045,3.6841,3.7586,3.8546,3.9313,3.908,3.899,3.8841,3.8153,3.7793,3.7404,3.6656,3.6267,3.5968,3.5579,3.5519,3.5519,3.5519,3.5519,3.5519,3.5519,3.5519,3.54,3.513,3.4773,3.4478,3.4516,3.4927,3.5499,3.6219,3.5879,3.5464,3.5182,3.5148,3.4844,3.41,3.4032,3.3863,3.3423,3.3423,3.3423,3.3423,3.3085,3.3085,3.3423,3.3085,3.3085,3.3423,3.3423,3.3278,3.1429,2.9841,2.882,2.8837,2.9845,3.0758,3.0507,3.1185,3.1964,3.2365,3.3219,3.3897,3.3897,3.4756,3.5508,3.5508,3.6006,3.6405,3.6405,3.5881,3.5508,3.5508,3.5006,3.5027,3.583,3.6031,3.6207,3.6405,3.6405,3.648,3.6631,3.6631,3.6707,3.6857,3.6857,3.6857,3.6857,3.6857,3.6782,3.6631,3.6631,3.6556,3.6405,3.6405,3.6405,3.6405,3.6405,3.6405,3.6405,3.6405,3.6405,3.6405,3.6405,3.6405,3.6355,3.5906,3.578,3.5751,3.5643,3.5325,3.5122,3.6471,3.7126,3.7492,3.8275,3.9062,3.9649,3.9433,3.9373,3.932,3.8811,3.8542,3.8153,3.7225,3.6746,3.6357,3.5878,3.5639,3.5519,3.5519,3.5519,3.5519,3.5519,3.5519,3.5519,3.5519,3.507,3.4803,3.4803,3.5474,3.6279,3.7027,3.64,3.5926,3.5926,3.5735,3.5363,3.4844,3.481,3.4573,3.4032,3.4032,3.4032,3.4032,3.3829,3.3795,3.4032,3.3795,3.3829,3.4032,3.4032,3.4032,2.7971,2.74,2.7767,2.934,3.0572,3.1512,3.2014,3.2591,3.3043,3.3043,3.3495,3.3897,3.3897,3.4756,3.5508,3.5508,3.6006,3.6405,3.6405,3.5881,3.5508,3.5508,3.5006,3.468,3.4776,3.5207,3.578,3.638,3.6405,3.6631,3.7136,3.7161,3.7412,3.7939,3.7965,3.7965,3.7965,3.7965,3.7688,3.7161,3.7161,3.6885,3.6405,3.6405,3.6405,3.6405,3.6405,3.6405,3.6405,3.6405,3.6405,3.6405,3.6405,3.6405,3.6405,3.638,3.638,3.6521,3.7625,3.6876,3.6029,3.9355,3.9335,3.8295,3.9841,4.033,4.0247,3.9553,3.9373,3.9373,3.9343,3.8901,3.8392,3.8332,3.7375,3.6477,3.6447,3.5968,3.5519,3.5519,3.5519,3.5519,3.5519,3.5519,3.5519,3.5519,3.5489,3.5459,3.5459,3.6161,3.6967,3.7778,3.7178,3.6761,3.6761,3.6062,3.56,3.5566,3.5566,3.5566,3.5532,3.5532,3.5532,3.5532,3.4844,3.481,3.5532,3.481,3.4844,3.5532,3.5532,3.5532,2.9451,2.9423,2.9704,3.0633,3.1687,3.2566,3.2742,3.2943,3.3111,3.3111,3.3219,3.3345,3.3345,3.3947,3.4575,3.4881,3.5454,3.5956,3.6355,3.5881,3.5357,3.5006,3.45,0.0,0.0,0.0,0.0,3.5805,3.6157,3.6656,3.7161,3.7186,3.7437,3.799,3.8015,3.8015,3.8015,3.8015,3.7914,3.7739,3.7739,3.7437,3.6958,3.6958,3.6757,3.6405,3.6405,3.6405,3.6405,3.6405,3.6405,3.6405,3.6405,3.6405,3.6405,3.6405,3.6405,3.6452,3.6849,3.7068,3.7449,3.8999,3.9591,3.9882,4.0787,4.0756,4.0337,4.0127,3.9738,3.9373,3.9373,3.926,3.896,3.8512,3.8063,3.7614,3.7195,3.6596,3.6148,3.6148,3.5789,3.5519,3.5519,3.5519,3.5519,3.5519,3.5519,3.5878,3.6906,3.6869,3.7194,3.8486,3.7956,3.7516,3.7516,3.684,3.64,3.64,3.5926,3.56,3.56,3.56,3.56,3.56,3.5385,3.5329,3.56,3.5329,3.5363,3.56,3.56,3.56,3.0817,3.0994,3.116,3.229,3.2993,3.337,3.337,3.3262,3.3061,3.2817,3.2616,3.2466,3.2466,3.2616,3.3093,3.4248,3.468,3.5278,3.6279,3.573,3.5157,3.4981,3.4349,3.3972,0.0,0.0,0.0,3.5483,3.6056,3.6732,3.7437,3.7487,3.7814,3.8592,3.8617,3.8617,3.8617,3.8617,3.8517,3.8316,3.809,3.7814,3.7462,3.7287,3.6985,3.6681,3.648,3.6405,3.6405,3.6405,3.6405,3.6405,3.6405,3.6405,3.6405,3.6405,3.6405,3.6546,3.7335,3.7861,3.8344,3.9971,4.0694,4.103,4.1585,4.1482,4.1055,4.0816,4.0277,3.9768,3.9768,3.9589,3.932,3.8871,3.8571,3.8272,3.7853,3.7255,3.6746,3.6537,3.6148,3.5789,3.5549,3.5519,3.5519,3.5519,3.5519,3.6068,3.7618,3.7377,3.7676,3.9252,3.8734,3.8294,3.8294,3.7618,3.7178,3.7178,3.6468,3.6028,3.6028,3.5735,3.56,3.56,3.56,3.56,3.56,3.56,3.56,3.56,3.56,3.56,3.1731,3.1888,3.2064,3.4198,3.4299,3.3897,3.3897,3.3488,3.2953,3.2374,3.1811,3.1357,3.1291,3.0899,3.1326,3.342,3.3872,3.45,3.6179,3.5454,3.4931,3.5433,3.4625,3.4173,3.4675,3.4705,0.0,3.5508,0.0,3.6883,3.7939,3.804,3.8542,3.9647,3.9697,3.9697,3.9697,3.9697,3.9421,3.8944,3.8366,3.8065,3.804,3.7513,3.7262,3.7186,3.6681,3.6455,3.6455,3.6405,3.6405,3.6405,3.6405,3.6405,3.6405,3.6405,3.6452,3.6803,3.9094,3.9139,3.8756,4.2111,4.2508,4.179,4.2307,4.241,4.2261,4.1632,4.0965,4.0427,4.0397,3.9948,3.9469,3.9403,3.8901,3.8452,3.8452,3.7913,3.7285,3.6686,3.6537,3.6267,3.5609,3.5519,3.5519,3.5519,3.5519,3.6068,3.7618,3.7793,3.839,3.9927,3.9445,3.9039,3.9039,3.8396,3.7956,3.7956,3.7246,3.6863,3.6863,3.6129,3.5701,3.5701,3.5667,3.5667,3.5667,3.5633,3.56,3.56,3.56,3.56,3.2095,3.3018,3.3997,3.4575,3.4299,3.3897,3.3897,3.3717,3.3357,3.2705,3.1985,3.1152,3.01,3.0399,3.1112,3.1937,3.342,3.4951,3.6229,3.6179,3.583,3.5533,3.5257,3.4981,3.4751,3.5056,0.0,0.0,3.6329,3.6883,3.7939,3.8417,3.8969,3.9672,3.9697,3.9697,3.9697,3.9697,3.9622,3.9471,3.9346,3.9044,3.8642,3.8517,3.8216,3.7764,3.7211,3.6985,3.6983,3.6581,3.6405,3.6405,3.6405,3.6405,3.6405,3.6405,3.6943,3.7906,3.936,3.9711,3.9711,4.1462,4.2426,4.2911,4.3001,4.2761,4.2351,4.2201,4.1662,4.1025,4.0516,4.0277,4.0038,3.9493,3.929,3.917,3.917,3.8631,3.8093,3.7943,3.7135,3.6267,3.5609,3.5519,3.5519,3.5519,3.5519,3.6068,3.7618,3.7793,3.839,3.9927,3.9943,3.9842,3.9842,3.914,3.8734,3.8734,3.8024,3.7618,3.7618,3.7415,3.729,3.729,3.6772,3.6468,3.6468,3.587,3.56,3.56,3.56,3.56,3.3406,3.4329,3.5031,3.5031,3.4675,3.3997,3.3018,3.2793,3.2358,3.0712,3.0306,2.9746,2.8139,2.89,3.001,3.0576,3.2541,3.4474,3.5805,3.6006,3.5981,3.5906,3.5633,3.5483,3.5454,3.573,3.6132,3.6732,3.6782,3.7211,3.8341,3.8693,3.912,3.9672,3.9697,3.9697,3.9697,3.9697,3.9697,3.9697,3.9697,3.9521,3.922,3.902,3.8743,3.8341,0.0,3.7412,3.7186,3.7111,3.6935,3.6782,3.6782,3.6782,3.6732,3.6505,3.6803,3.7586,3.9316,3.9913,4.0145,4.1823,4.278,4.329,4.329,4.306,4.2791,4.2791,4.2312,4.1752,4.1392,4.0816,4.0307,3.9948,3.9619,3.9373,3.9373,3.911,3.8751,3.8452,3.7345,3.6357,3.5998,3.5699,3.5519,3.5519,3.5519,3.5941,3.7145,3.7557,3.8278,3.9454,3.9901,4.0113,4.0113,3.974,3.9503,3.9503,3.8802,3.8396,3.8396,3.8058,3.7922,3.7922,3.7483,3.728,3.728,3.684,3.6614,3.6614,3.6614,3.6614,3.4956,3.5558,3.5583,3.5508,3.5082,3.4148,3.2012,3.1602,3.0861,2.8178,2.813,2.7985,2.6091,2.7143,2.8595,2.953,3.1537,3.3571,3.5257,3.5508,3.5708,3.6355,3.5956,3.5855,3.6455,3.6505,3.6782,3.7362,3.7412,3.7839,3.8869,3.8994,3.9195,3.9672,3.9697,3.9697,3.9697,3.9697,3.9697,3.9697,3.9697,3.9697,3.9672,3.9195,3.902,3.8944,3.8366,3.7839,3.7437,3.7839,3.7739,3.7287,3.7287,3.7287,3.7236,3.6807,3.6676,3.7045,3.9247,4.0055,4.049,4.2618,4.329,4.329,4.329,4.329,4.329,4.329,4.291,4.25,4.241,4.1542,4.0606,4.0427,3.9978,3.9493,3.9403,3.9373,3.92,3.8512,3.7494,3.6716,3.6626,3.6058,3.5639,3.5639,3.5579,3.5718,3.6353,3.7233,3.8076,3.8827,3.961,4.0113,4.0113,4.0113,4.0113,4.0113,3.9503,3.914,3.914,3.8531,3.8193,3.8193,3.8091,3.8058,3.8058,3.7956,3.7922,3.7922,3.7922,3.7922,3.5282,3.5881,3.6107,3.5608,3.5082,3.4256,3.2658,3.1834,3.0848,2.9094,2.8224,2.7314,2.5743,2.6758,2.8093,2.8911,3.0934,3.3119,3.5207,3.5508,3.5708,0.0,3.6329,3.648,3.6985,3.7036,0.0,0.0,3.8617,3.8718,3.8919,3.9295,3.9597,3.9697,3.9697,3.9697,3.9697,3.9697,3.9697,3.9697,3.9697,3.9697,3.9697,3.9597,3.9546,3.9521,3.8969,0.0,3.8542,3.8165,3.7939,3.7864,3.7864,3.7864,3.7839,3.7764,3.8015,3.8681,4.0068,4.0882,4.1504,4.286,4.329,4.329,4.329,4.329,4.329,4.329,4.32,4.303,4.253,4.2231,4.1782,4.0666,4.0307,4.0068,3.9493,3.9373,3.92,3.8512,3.8212,3.7883,3.7345,3.6716,3.6327,3.6327,3.5848,3.5554,3.5653,3.6936,3.8076,3.8827,3.961,4.0113,4.0113,4.0113,4.0113,4.0113,3.9977,3.991,3.991,3.9808,3.974,3.974,3.9106,3.8802,3.8802,3.8193,3.7922,3.7922,3.7922,3.7922,3.5357,3.5956,3.6204,3.5282,3.4655,3.3687,3.1344,3.0299,2.9251,2.7116,2.6616,2.6012,2.4301,2.5799,2.7265,2.7283,2.9353,3.1738,3.3947,3.45,3.5102,3.6279,3.6405,3.6631,3.7136,3.7437,3.7965,3.8869,3.9145,3.9295,3.9295,3.9546,3.9697,3.9697,3.9697,3.9697,3.9697,3.9697,3.9697,3.9697,3.9697,3.9697,3.9697,3.9697,3.9697,3.9672,3.9421,3.9145,3.8919,3.8894,3.8718,3.8467,3.8467,3.8467,3.8417,3.8115,3.8206,3.8644,4.0205,4.0856,4.1355,4.2828,4.329,4.329,4.329,4.329,4.329,4.329,4.329,4.323,4.294,4.2611,4.2231,4.1602,4.0905,4.0307,4.0008,3.9679,3.932,3.899,3.8631,3.8302,3.7973,3.7375,3.6866,3.6537,3.6207,3.5878,3.5549,3.6477,3.7469,3.8246,3.9401,4.0113,4.0113,4.0113,4.0113,4.0113,4.0113,4.0113,4.0113,4.0113,4.0113,4.0113,3.9774,3.9571,3.9571,3.9208,3.9039,3.9039,3.9039,3.9039,3.5307,3.5855,3.5956,3.4977,3.4223,3.2946,2.9928,2.8739,2.7577,2.5045,2.4882,2.4713,2.3161,2.4759,2.6247,2.6007,2.7908,3.0237,3.2583,3.347,3.4474,3.6006,3.6329,0.0,3.7287,3.7739,0.0,3.9045,3.9446,3.9697,3.9697,3.9697,3.9697,3.9697,3.9697,3.9697,3.9697,3.9697,3.9697,3.9697,3.9697,3.9697,3.9697,3.9697,3.9697,3.9697,3.9697,3.9446,3.9069,3.9521,3.9446,3.9095,3.9095,3.9095,3.8994,3.8542,3.8291,3.8461,4.041,4.0918,4.1012,4.2931,4.3409,4.329,4.329,4.329,4.329,4.329,4.329,4.329,4.329,4.294,4.256,4.244,4.1512,4.0576,4.0427,4.0008,3.9553,3.9439,3.899,3.8601,3.8601,3.8063,3.7464,3.6956,3.6656,3.6297,3.5789,3.6225,3.6904,3.7735,3.9022,3.9901,4.0087,4.0113,4.0113,4.0113,4.0113,4.0113,4.0113,4.0113,4.0113,4.0113,4.0113,4.0113,4.0113,4.0113,4.0113,4.0113,4.0113,4.0113,3.5207,3.5533,3.5433,3.4831,3.3922,3.2488,2.9864,2.8422,2.7008,2.5022,2.4164,2.3689,2.3472,2.4063,2.4993,2.6301,2.7572,2.9263,3.1921,3.3219,3.4324,3.5433,0.0,0.0,3.7839,3.7965,3.8442,3.9546,3.9672,3.9697,3.9697,3.9697,3.9697,3.9697,3.9697,3.9697,3.9697,3.9697,3.9697,3.9697,3.9697,3.9697,3.9697,3.9697,3.9697,3.9697,3.9697,3.9672,0.0,3.9672,3.9672,3.9622,3.9622,3.9622,3.9622,3.9546,3.922,3.917,4.1518,4.1617,4.1095,4.3431,4.3798,4.329,4.329,4.329,4.329,4.329,4.329,4.329,4.329,4.326,4.309,4.253,4.1841,4.1115,4.0516,4.0337,4.0127,3.9529,3.9343,3.932,3.932,3.8751,3.8272,3.8212,3.7225,3.6477,3.6417,3.6531,3.6904,3.7735,3.8525,3.9315,4.0062,4.0113,4.0113,4.0113,4.0113,4.0113,4.0113,4.0113,4.0113,4.0113,4.0113,4.0113,4.0113,4.0113,4.0113,4.0113,4.0113,4.0113,3.4382,3.4756,3.4881,3.4374,3.3547,3.2227,2.9832,2.8212,2.675,2.4976,2.4066,2.3583,2.3585,2.3705,2.4103,2.5012,2.547,2.655,2.8937,3.0206,3.1687,3.3822,3.4851,3.6056,0.0,0.0,3.8467,3.9597,3.9697,3.9697,3.9697,3.9697,3.9697,3.9697,3.9697,3.9697,3.9697,3.9697,3.9697,3.9697,3.9697,3.9697,3.9697,3.9697,3.9697,3.9697,3.9697,3.9697,0.0,3.9697,3.9697,3.9697,3.9697,3.9697,3.9697,3.9697,3.9546,3.9702,4.1788,4.2196,4.2053,4.3755,4.4137,4.3798,4.3409,4.329,4.329,4.329,4.329,4.329,4.329,4.329,4.323,4.3,4.2432,4.1841,4.1145,4.0666,4.0217,3.9559,3.9373,3.9373,3.9373,3.92,3.8871,3.8452,3.7973,3.7345,3.6596,3.6504,3.6687,3.7057,3.8157,3.9236,4.0003,4.0113,4.0113,4.0113,4.0113,4.0113,4.0113,4.0113,4.0113,4.0113,4.0113,4.0113,4.0113,4.0113,4.0113,4.0113,4.0113,4.0113,3.3553,3.4312,3.4838,3.4499,3.3632,3.2321,2.9996,2.8232,2.6587,2.469,2.3939,2.361,2.361,2.3569,2.3674,2.4118,2.4307,2.5123,2.7258,2.8473,3.008,3.2541,0.0,3.5278,3.7312,3.8115,3.8843,3.9647,3.9697,3.9697,3.9697,3.9697,3.9697,3.9697,3.9697,3.9697,3.9697,3.9697,3.9697,3.9697,3.9697,3.9697,3.9697,3.9697,3.9697,3.9697,3.9697,3.9697,0.0,3.9697,3.9697,3.9697,3.9697,3.9697,3.9697,3.9697,3.9697,4.0032,4.2085,4.2664,4.2777,4.436,4.4646,4.4227,4.3738,4.3439,4.329,4.329,4.329,4.329,4.329,4.329,4.329,4.329,4.3,4.25,4.1841,4.1145,4.0487,3.9828,3.9559,3.9373,3.9373,3.9373,3.926,3.8781,3.8512,3.8063,3.7165,3.6866,3.6808,3.6909,3.8078,3.9084,3.9696,3.9952,4.0113,4.0113,4.0113,4.0113,4.0113,4.0113,4.0113,4.0113,4.0113,4.0113,4.0113,4.0113,4.0113,4.0113,4.0113,4.0113,3.287,3.4281,3.5505,3.5479,3.443,3.2775,3.0432,2.8453,2.6443,2.4089,2.361,2.361,2.361,2.361,2.3714,2.4115,2.4641,2.5711,2.7799,2.9076,3.0382,0.0,3.3219,3.455,3.6254,3.8366,3.9672,3.9697,3.9697,0.0,3.9697,3.9697,3.9697,3.9697,3.9697,3.9697,3.9697,3.9697,3.9697,3.9697,3.9697,3.9697,3.9697,3.9697,3.9697,3.9697,3.9697,3.9697,0.0,3.9697,3.9697,3.9697,3.9697,3.9697,3.9697,3.9697,3.9697,4.0083,4.2593,4.3042,4.2916,4.5461,4.5394,4.4317,4.4317,4.3798,4.329,4.329,4.329,4.329,4.329,4.329,4.329,4.329,4.329,4.315,4.253,4.1871,4.1175,4.0516,3.9858,3.9373,3.9373,3.9373,3.9373,3.9373,3.8811,3.8392,3.8362,3.7793,3.7443,3.7558,3.8335,3.8821,3.892,3.9636,4.0113,4.0113,4.0113,4.0113,4.0113,4.0113,4.0113,4.0113,4.0113,4.0113,4.0113,4.0113,4.0113,4.0113,4.0113,4.0113,3.1877,3.2584,3.309,3.2196,3.1495,3.0475,2.8393,2.7323,2.614,2.4044,2.361,2.361,2.361,2.361,2.3984,2.5163,2.5512,2.6058,2.7379,2.885,0.0,3.1512,3.465,3.691,3.7437,3.8818,3.9697,3.9697,3.9697,3.9697,3.9697,3.9697,3.9697,3.9697,3.9697,3.9697,3.9697,3.9697,3.9697,3.9697,3.9697,3.9697,3.9697,3.9697,3.9496,3.912,3.912,3.8919,3.8567,3.8969,3.912,3.917,3.9546,3.9697,3.9697,3.9697,4.0262,4.1219,4.293,4.3929,4.4562,4.4878,4.4988,4.4721,4.3429,4.316,4.329,4.329,4.329,4.329,4.329,4.329,4.329,4.329,4.329,4.315,4.253,4.2231,4.1752,4.0606,4.0217,3.9948,3.9499,3.9373,3.9373,3.9373,3.923,3.8931,3.8452,3.8212,3.7927,3.7506,3.8247,3.8821,3.8892,3.9636,4.0113,4.0113,4.0113,4.0113,4.0113,4.0113,4.0113,4.0113,4.0113,4.0113,4.0113,4.0113,4.0113,4.0113,4.0113,4.0113,3.0262,3.1192,3.1944,3.1126,3.0491,2.9697,2.7987,2.689,2.5657,2.3652,2.3253,2.3253,2.3253,2.3047,2.3268,2.4475,2.461,2.5074,2.6459,2.8097,2.9955,3.2089,3.5328,3.7462,3.7688,3.8894,3.9697,3.9697,3.9496,3.9371,3.9371,3.9371,3.9371,3.9371,3.9597,3.9697,3.9697,3.9697,3.9697,3.9697,3.9697,3.9597,3.9371,3.9371,3.9069,3.8542,3.8542,3.8341,0.0,3.8617,3.8919,3.8919,3.9471,3.9697,3.9697,3.9697,4.0211,4.1069,4.235,4.3313,4.3966,4.4037,4.4296,4.4356,4.3111,4.2994,4.329,4.329,4.329,4.329,4.329,4.329,4.329,4.329,4.329,4.32,4.2821,4.256,4.2141,4.1332,4.0935,4.0546,3.9888,3.9798,3.9709,3.9469,3.9373,3.926,3.8841,3.8781,3.8652,3.8304,3.9062,3.953,3.938,3.9804,4.0113,4.0113,4.0113,4.0113,4.0113,4.0113,4.0113,4.0113,4.0113,4.0113,4.0113,4.0113,4.0113,4.0113,4.0113,4.0113,0.0,2.9887,3.1582,3.1464,3.0807,2.9834,2.8607,2.6871,0.0,2.3136,2.2762,2.2768,2.2809,2.224,2.2011,2.2773,2.2804,2.343,2.5534,2.7344,2.9854,3.3571,3.5429,3.6681,3.7186,3.8668,3.9597,3.9647,3.912,3.8869,3.8869,3.8869,3.8869,3.8869,3.9295,3.9622,3.9697,3.9697,3.9672,3.9647,3.9647,3.9346,3.8869,3.8869,3.8492,0.0,3.7939,3.7914,3.7939,3.8517,3.8768,3.8868,3.9421,3.9672,3.9697,3.9697,3.9749,3.9981,4.1169,4.164,4.1936,4.3013,4.3329,4.3229,4.3205,4.325,4.329,4.329,4.329,4.329,4.329,4.329,4.329,4.329,4.329,4.329,4.329,4.2851,4.244,4.241,4.1901,4.1235,4.0516,4.0397,4.0187,3.9529,3.9373,3.9373,3.9373,3.9373,3.9496,3.9756,4.045,4.0722,4.0292,4.0232,4.018,4.0113,4.0113,4.0113,4.0113,4.0113,4.0113,4.0113,4.0113,4.0113,4.0113,4.0113,4.0113,4.0113,4.0113,4.0113,2.5477,0.0,2.8379,2.7347,2.6907,2.6542,0.0,2.5173,2.4559,2.3584,2.3414,2.351,2.3865,2.3117,2.3192,2.5332,2.5634,2.6188,2.7893,3.0306,3.2717,3.4856,3.6232,3.7211,3.7764,3.8165,3.8592,3.9019,3.8542,3.8216,3.8216,3.8216,3.8216,3.8216,3.8341,3.8818,3.9697,3.9697,3.9471,3.9069,3.9069,3.8768,3.8216,3.8216,3.7914,3.7387,3.7387,3.7136,3.6832,3.7337,3.7839,3.8266,3.8843,3.932,3.9697,3.9697,4.0313,4.1219,4.1518,4.223,4.2985,4.2334,4.2038,4.1971,4.1961,4.2589,4.329,4.329,4.329,4.329,4.329,4.329,4.329,4.329,4.329,4.329,4.329,4.317,4.294,4.25,4.2261,4.1811,4.0606,4.0397,4.0187,3.9529,3.9373,3.9373,3.9373,3.9373,3.9677,4.0405,4.0734,4.1108,4.165,4.1218,4.0696,4.0146,4.0113,4.0113,4.0113,4.0113,4.0113,4.0113,4.0113,4.0113,4.0113,4.0113,4.0113,4.0113,4.0113,4.0113,2.4126,2.5824,2.7435,2.6692,2.6273,2.5974,2.5615,2.4784,2.3881,2.2914,2.2959,2.3169,2.3058,2.2797,2.3196,2.5139,2.5651,2.6773,2.9642,3.1788,3.3796,3.5705,3.6659,3.7287,3.7588,3.7864,3.814,3.8442,3.7939,3.7638,3.7638,3.7638,3.7638,3.7638,3.7864,3.8291,3.8919,3.8919,3.8768,3.8467,3.8467,3.8191,3.7638,3.7638,3.7337,3.6857,3.6857,3.6681,3.6455,3.7008,3.7362,3.7713,3.8542,3.9095,3.9346,3.9597,4.0134,4.0743,4.0743,4.1169,4.1652,4.1026,4.1131,4.1522,4.1582,4.2426,4.329,4.329,4.329,4.329,4.329,4.329,4.329,4.329,4.329,4.329,4.329,4.329,4.32,4.288,4.2791,4.2491,4.1474,4.1332,4.1085,4.0427,4.0068,3.9858,3.9858,3.9619,3.9915,4.1162,4.1373,4.1777,4.2675,4.2415,4.1745,4.0663,4.0595,4.0451,4.0113,4.0113,4.0113,4.0113,4.0113,4.0113,4.0113,4.0113,4.0113,4.0113,4.0113,4.0113,2.3969,2.5878,2.7619,2.7006,2.6569,2.6242,2.6063,2.4693,2.3171,2.2178,2.2518,2.281,2.2238,2.2507,2.3222,2.4406,2.5141,2.7017,3.1185,3.2591,3.4016,3.6153,3.6832,3.7086,3.7186,3.7538,3.7789,3.7864,3.7362,3.7061,3.7061,3.7061,3.7061,3.7061,3.7513,3.7764,3.7764,3.7914,3.7965,3.7889,3.7889,3.7588,3.7061,3.7061,3.6857,3.6405,0.0,0.0,3.6455,3.6908,3.7111,3.7287,3.8316,3.8844,3.8944,3.9496,3.9697,3.9697,3.9697,3.9697,3.9726,3.9677,4.0596,4.1643,4.1625,4.2468,4.3439,4.3439,4.3379,4.329,4.329,4.329,4.329,4.329,4.329,4.329,4.329,4.329,4.329,4.329,4.329,4.312,4.25,4.241,4.2171,4.1512,4.0905,4.0516,4.0397,3.9918,4.0182,4.182,4.1981,4.2416,4.3501,4.3606,4.2997,4.1644,4.1441,4.1035,4.0316,4.0282,4.0214,4.0113,4.0113,4.0113,4.0113,4.0113,4.0113,4.0113,4.0113,4.0113,2.5674,2.726,2.7642,2.427,2.4234,2.4694,2.3548,2.3084,2.2913,2.3244,2.3844,2.4323,2.4474,2.4641,2.5215,2.6587,2.8044,3.008,3.3093,3.3671,3.4424,3.6204,3.648,3.6732,3.7136,3.6835,3.6857,3.7287,3.6857,3.6531,3.6531,3.6531,3.6531,3.6531,3.6606,3.6656,3.6656,3.7538,3.7764,3.7312,3.7312,3.701,3.6531,3.6531,3.648,3.6405,0.0,3.6405,3.6405,3.6505,3.6807,3.7236,3.7889,3.8442,3.8944,3.9496,3.9697,3.9697,3.9697,3.9697,3.9648,3.9196,4.0566,4.227,4.1807,4.2825,4.4167,4.4167,4.3738,4.329,4.329,4.329,4.329,4.329,4.329,4.329,4.329,4.329,4.329,4.329,4.329,4.312,4.25,4.241,4.2171,4.1512,4.1294,4.1025,4.0457,4.0307,4.07,4.1852,4.1981,4.2675,4.4271,4.4445,4.4012,4.3105,4.2489,4.1779,4.1068,4.1035,4.073,4.0113,4.0113,4.0113,4.0113,4.0113,4.0113,4.0113,4.0113,4.0113,2.4627,2.5944,2.6545,2.4757,2.577,2.6818,2.5371,2.4457,2.3949,2.3886,2.4362,2.4817,2.4893,2.5705,2.6979,2.881,3.0206,3.1763,3.3646,3.4148,3.4851,3.6254,3.6405,3.6505,3.6757,3.6556,3.6505,3.6782,3.6556,3.6405,3.6405,3.6405,3.6405,3.6405,3.6405,3.6405,3.6405,3.6908,3.6985,3.6782,3.6782,3.6656,3.6405,3.6405,3.6405,3.6405,0.0,3.6405,3.6405,3.6405,3.6556,3.6883,3.7688,3.8165,3.8517,3.9371,3.9697,3.9697,3.9697,3.9697,3.9597,3.9044,4.0503,4.2389,4.1874,4.3156,4.4766,4.4407,4.3838,4.329,4.329,4.329,4.329,4.329,4.329,4.329,4.329,4.329,4.329,4.329,4.329,4.32,4.294,4.288,4.2791,4.2491,4.2132,4.1841,4.1542,4.1145,4.1189,4.1755,4.2263,4.291,4.3802,4.4327,4.4248,4.3443,4.2726,4.2151,4.1813,4.1779,4.161,4.1297,4.0899,4.0696,4.0696,4.0282,4.0113,4.0113,4.0493,4.0696,2.4238,2.4954,2.5514,2.5981,2.7299,2.8312,2.773,2.6266,2.5078,2.541,2.5825,2.6031,2.5677,2.6997,2.8754,3.0687,3.1913,3.2993,3.4123,3.465,3.5278,3.6304,3.6405,3.6405,3.6405,3.6405,3.6405,3.6405,3.6405,3.6405,3.6405,3.6405,3.6405,3.6405,3.6405,3.6405,3.6405,3.6405,3.6405,3.6405,3.6405,3.6405,3.6405,3.6405,3.6405,3.6405,3.6405,3.6405,3.6405,3.6405,3.6405,3.6505,3.7588,3.8165,3.8492,3.9371,3.9697,3.9697,3.9697,3.9697,3.9622,3.9195,4.0762,4.2684,4.2261,4.3702,4.5424,4.4915,4.4317,4.3678,4.3379,4.329,4.329,4.329,4.329,4.329,4.329,4.329,4.329,4.329,4.329,4.329,4.329,4.329,4.329,4.329,4.291,4.256,4.241,4.1961,4.17,4.1913,4.2564,4.3138,4.3568,4.4241,4.4316,4.3741,4.3132,4.2726,4.2557,4.2557,4.2489,4.2286,4.1745,4.1474,4.1474,4.0865,4.062,4.062,4.117,4.1474,2.6626,2.6056,2.5152,2.6786,2.658,2.657,2.8885,2.7144,2.585,2.8842,2.9503,2.9236,2.8136,2.9284,3.0748,3.1913,3.3043,3.4148,3.5232,3.5408,3.5658,3.6329,3.6405,3.6405,3.6405,3.6405,3.6405,3.6405,3.6405,3.6405,3.6405,3.6405,3.6405,3.6405,3.6405,3.6405,3.6405,3.6405,3.6405,3.6405,3.6405,3.6405,3.6405,3.6405,3.6405,3.6405,3.6405,3.6405,3.6405,3.6405,3.6405,3.6505,3.7588,3.8642,3.9597,3.9672,3.9697,3.9697,3.9697,3.9697,3.9697,3.9647,4.134,4.3421,4.3393,4.4707,4.619,4.616,4.5693,4.4885,4.3618,4.329,4.329,4.329,4.329,4.329,4.329,4.329,4.329,4.329,4.329,4.329,4.329,4.329,4.329,4.329,4.326,4.303,4.247,4.2351,4.2395,4.2587,4.2848,4.3425,4.4422,4.4587,4.4581,4.4513,4.4479,4.4079,4.3341,4.3308,4.2997,4.2286,4.2252,4.2219,4.2219,4.2151,4.2117,4.2117,4.2185,4.2219,2.4739,2.5182,2.5608,2.7093,2.7661,2.8054,2.9009,2.8447,2.8317,3.0337,3.0766,3.0775,3.0702,3.0881,3.1336,3.2089,3.3445,3.455,3.4931,3.5629,3.6132,3.638,3.6405,3.6405,3.6405,3.6405,3.6405,3.6405,3.6405,3.6405,3.6405,3.6405,3.6405,3.6405,3.6405,3.6405,3.6405,3.6405,3.6405,3.6405,3.6405,3.6405,3.6405,3.6405,3.6405,3.6405,3.6405,3.6405,3.6405,3.6405,3.6405,3.6505,3.7588,3.8693,3.9697,3.9697,3.9697,3.9697,3.9697,3.9697,3.9697,3.9697,4.1419,4.3504,4.3504,4.508,4.686,4.6441,4.6142,4.5633,4.4246,4.3917,4.3838,4.3379,4.329,4.329,4.329,4.329,4.329,4.329,4.329,4.329,4.329,4.329,4.329,4.329,4.329,4.32,4.3,4.297,4.2857,4.2546,4.3228,4.3881,4.4351,4.4942,4.5094,4.4649,4.4615,4.4479,4.4147,4.4147,4.4012,4.3735,4.3234,4.2997,4.2997,4.2523,4.2286,4.2286,4.276,4.2997,2.3879,2.4462,2.5361,2.6794,2.7963,2.8944,2.9615,2.9651,3.0181,3.2396,3.2326,3.1914,3.2114,3.1743,3.1562,3.2114,3.3621,3.4776,3.4906,3.578,3.6405,3.6405,3.6405,3.6405,3.6405,3.6405,3.6405,3.6405,3.6405,3.6405,3.6405,3.6405,3.6405,3.6405,3.6405,3.6405,3.6405,3.6405,3.6405,3.6405,3.6405,3.6405,3.6405,3.6405,3.6405,3.6405,3.6405,3.6405,3.6405,3.6405,3.6505,3.6757,3.7638,3.8592,3.9446,3.9622,3.9697,3.9697,3.9697,3.9697,3.9697,3.9697,4.1169,4.2978,4.3361,4.5024,4.6681,4.6612,4.6621,4.6381,4.5244,4.4646,4.4197,4.3708,4.3439,4.329,4.329,4.329,4.329,4.329,4.329,4.329,4.329,4.329,4.329,4.329,4.329,4.329,4.329,4.329,4.3178,4.2864,4.3756,4.4492,4.4647,4.5303,4.5466,4.4959,4.475,4.4615,4.4615,4.4615,4.4615,4.4615,4.4045,4.3775,4.3775,4.3267,4.3058,4.3031,4.3538,4.3775,2.4754,2.4164,2.4134,2.5773,2.7141,2.8656,3.1014,3.0681,3.113,3.5304,3.4455,3.2816,3.2131,3.1664,3.1587,3.2114,3.3621,3.4881,3.5408,3.6006,3.6405,3.6405,3.6405,3.6405,3.6405,3.6405,3.6405,3.6405,3.6405,3.6405,3.6405,3.6405,3.6405,3.6405,3.6405,3.6405,3.6405,3.6405,3.6405,3.6405,3.6405,3.6405,3.6405,3.6405,3.6405,3.6405,3.6405,3.6405,3.6405,3.6405,3.6732,3.7236,3.7789,3.8341,3.8944,3.9496,3.9697,3.9697,3.9697,3.9697,3.9697,3.9697,4.0541,4.1838,4.3122,4.4396,4.5689,4.6931,4.7309,4.716,4.6459,4.5334,4.4317,4.4317,4.3768,4.329,4.329,4.329,4.329,4.329,4.329,4.329,4.329,4.329,4.329,4.329,4.329,4.329,4.329,4.329,4.3413,4.3667,4.4551,4.5167,4.5402,4.5604,4.5737,4.5703,4.4993,4.4615,4.4615,4.4615,4.4615,4.4615,4.4615,4.4615,4.4615,4.4615,4.4615,4.4615,4.4615,4.4615,2.3112,2.4004,2.5628,2.5967,2.8733,3.1744,3.3138,3.2637,3.2489,3.4714,3.3703,3.2628,3.3159,3.2551,3.2014,3.219,3.3621,3.4776,3.4906,3.578,3.6405,3.6405,3.6405,3.6405,3.6405,3.6405,3.6405,3.6405,3.6405,3.6405,3.6405,3.6405,3.6405,3.6405,3.6405,3.6405,3.6405,3.6405,3.6405,3.6405,3.6405,3.6405,3.6405,3.6405,3.6405,3.6405,3.6405,3.6405,3.6405,3.6405,3.6732,3.7211,3.7362,3.8015,3.8944,3.9095,3.9371,3.9697,3.9697,3.9697,3.9697,3.9697,4.1169,4.3026,4.3409,4.5024,4.6814,4.7222,4.7309,4.7249,4.707,4.6022,4.4885,4.4436,4.3768,4.329,4.329,4.329,4.329,4.329,4.329,4.329,4.329,4.329,4.329,4.329,4.329,4.329,4.329,4.329,4.3594,4.4384,4.5317,4.5943,4.6158,4.6843,4.6819,4.5771,4.55,4.5128,4.4615,4.4615,4.4615,4.4615,4.4615,4.4615,4.4615,4.4615,4.4615,4.4615,4.4615,4.4615,2.3501,2.507,2.7256,2.7792,3.0256,3.2809,3.3645,3.3953,3.4087,3.409,3.3405,3.2911,3.309,3.2648,3.2215,3.2215,3.3445,3.4399,3.4399,3.5152,3.578,3.6006,3.6031,3.6132,3.638,3.6405,3.6405,3.6405,3.6405,3.6405,3.6405,3.6405,3.6405,3.6405,3.6405,3.6405,3.6405,3.6405,3.6405,3.6405,3.6405,3.6405,3.6405,3.6405,3.6405,3.6405,3.6405,3.6405,3.6405,3.6405,3.6606,3.6885,3.7111,3.7588,3.8216,3.8442,3.8894,3.9371,3.9371,3.9521,3.98,4.0262,4.1311,4.2528,4.3566,4.4752,4.5841,4.6373,4.6501,4.6501,4.6501,4.5723,4.4855,4.4736,4.3977,4.329,4.329,4.329,4.329,4.329,4.329,4.329,4.329,4.329,4.329,4.329,4.329,4.329,4.329,4.329,4.3693,4.4699,4.5634,4.6396,4.6881,4.7546,4.75,4.665,4.6312,4.594,4.5495,4.4919,4.4615,4.4615,4.4615,4.4615,4.4615,4.4615,4.4615,4.4615,4.4615,4.4615,2.5048,2.6707,2.8738,3.0372,3.165,3.268,3.3239,3.4774,3.5494,3.3513,3.3457,3.3454,3.2432,3.229,3.229,3.229,3.3194,3.3897,3.3897,3.4374,3.4856,3.5357,3.5433,3.5655,3.6204,3.6254,3.6254,3.6254,3.6304,3.6329,3.6329,3.638,3.6405,3.6405,3.6405,3.6405,3.6405,3.6405,3.6405,3.6405,3.6405,3.6405,3.6405,3.6405,3.6405,3.6405,3.6405,3.6405,3.6405,3.6405,3.6405,3.6455,3.6958,3.7136,3.7236,3.7739,3.8291,3.8844,3.8844,3.912,3.9726,4.1013,4.109,4.117,4.3591,4.3949,4.3791,4.4983,4.5304,4.5304,4.5304,4.4796,4.4466,4.5065,4.4257,4.329,4.329,4.329,4.329,4.329,4.329,4.329,4.329,4.329,4.329,4.329,4.329,4.329,4.329,4.329,4.3732,4.4812,4.5706,4.6592,4.7671,4.791,4.7973,4.7906,4.7259,4.6853,4.6786,4.5529,4.4784,4.4716,4.4716,4.4682,4.4615,4.4615,4.4615,4.4615,4.4615,4.4615,2.4278,2.5906,2.8259,3.0046,3.2342,3.442,3.5305,3.5278,3.465,3.3368,3.3182,3.3166,3.2935,3.2893,3.2893,3.2893,3.347,3.3897,3.3897,3.4374,3.4731,3.4831,3.4856,3.4906,3.5052,3.5077,3.5077,3.5077,3.5479,3.5683,3.5683,3.6132,3.6405,3.6405,3.6405,3.6405,3.6405,3.6405,3.6405,3.6405,3.6405,3.6405,3.6405,3.6405,3.6405,3.6405,3.6405,3.6405,3.6405,3.6405,3.6405,3.6405,3.6531,3.6857,3.7186,3.7312,3.7713,3.8191,3.8191,3.8266,3.8565,3.979,4.0757,4.1737,4.3177,4.4208,4.4941,4.5191,4.5304,4.5304,4.5304,4.4796,4.4347,4.4496,4.3858,4.329,4.329,4.329,4.329,4.329,4.329,4.329,4.329,4.329,4.329,4.329,4.329,4.329,4.329,4.329,4.3974,4.571,4.6067,4.6867,4.8545,4.8726,4.8545,4.7939,4.7736,4.7394,4.6819,4.6481,4.6041,4.5466,4.5466,4.5162,4.4615,4.4615,4.4615,4.4615,4.4615,4.4615,2.4788,2.6806,2.9154,3.1076,3.3512,3.5359,3.5102,3.4888,3.4553,3.3995,3.3471,3.3111,3.3111,3.3111,3.3111,3.3111,3.3319,3.3495,3.3495,3.3746,3.4022,3.4299,3.4324,3.4424,3.47,3.468,3.468,3.468,3.4931,3.5107,3.5107,3.5429,3.5705,3.5956,3.5981,3.6107,3.6405,3.6405,3.6405,3.6405,3.6405,3.6405,3.6405,3.6405,3.6405,3.6405,3.6405,3.6405,3.6405,3.6405,3.6405,3.6405,3.6405,3.6581,3.6832,3.6832,3.7136,3.7613,3.7613,3.7789,3.8285,4.0086,4.0941,4.1552,4.3284,4.4063,4.4347,4.4347,4.4347,4.4347,4.4347,4.4067,4.3798,4.3798,4.3529,4.329,4.329,4.329,4.329,4.329,4.329,4.329,4.329,4.329,4.329,4.329,4.329,4.329,4.329,4.329,4.4051,4.5996,4.6208,4.6936,4.8829,4.9018,4.8849,4.8477,4.8443,4.8274,4.7868,4.7834,4.7327,4.6244,4.6244,4.6041,4.5664,4.5664,4.5664,4.5664,4.5664,4.5664,2.5369,2.8134,3.0779,3.2642,3.4428,3.5447,3.4206,3.407,3.4312,3.4477,3.3775,3.3111,3.3111,3.3111,3.3111,3.3111,3.3111,3.3111,3.3111,3.3111,3.3244,3.3696,3.3746,3.3947,3.4399,3.4424,3.4424,3.4424,3.4525,3.4575,3.4575,3.4675,3.4881,3.5332,3.5357,3.5655,3.6254,3.6254,3.6329,3.6405,3.6405,3.6405,3.6405,3.6405,3.6405,3.6405,3.6405,3.6405,3.6405,3.6405,3.6405,3.6405,3.6405,3.6405,3.6405,3.6405,3.6707,3.7036,3.7036,3.7337,3.8127,4.0602,4.1018,4.1,4.3384,4.3738,4.329,4.329,4.329,4.329,4.329,4.329,4.329,4.329,4.329,4.329,4.329,4.329,4.329,4.329,4.329,4.329,4.329,4.329,4.329,4.329,4.329,4.329,4.329,4.329,4.3974,4.5746,4.6103,4.6867,4.8608,4.8892,4.9018,4.9018,4.9018,4.9018,4.9018,4.9018,4.8443,4.7192,4.7056,4.6921,4.6786,4.6786,4.6786,4.6786,4.6786,4.6786,2.4439,2.8565,3.2783,3.3891,3.4143,3.4139,3.4285,3.3383,3.2749,3.3628,3.345,3.3111,3.3111,3.3111,3.3111,3.3111,3.3111,3.3111,3.3111,3.3111,3.3136,3.3212,3.3237,3.3219,3.3294,3.3294,3.3294,3.3294,3.3746,3.3997,3.3997,3.4449,3.4705,3.4781,3.4826,3.5056,3.5608,3.5608,3.5881,3.6405,3.6405,3.6405,3.6405,3.6405,3.6405,3.6405,3.6405,3.6405,3.6405,3.6405,3.6405,3.6405,3.6405,3.6405,3.6405,3.6405,3.6455,3.6505,3.6505,3.6556,3.6984,3.9383,4.0078,4.0457,4.2736,4.3349,4.329,4.329,4.329,4.329,4.329,4.329,4.329,4.329,4.329,4.329,4.329,4.329,4.329,4.329,4.329,4.329,4.329,4.329,4.329,4.329,4.329,4.329,4.329,4.329,4.3732,4.4887,4.5706,4.6627,4.7704,4.8545,4.9018,4.9018,4.9018,4.9018,4.9018,4.9018,4.8917,4.8714,4.8105,4.7462,4.6786,4.6786,4.6786,4.6786,4.6786,4.6786,2.6167,2.9376,3.2118,3.3512,3.3984,3.4104,3.3992,3.3284,3.2771,3.3212,3.2695,3.2315,3.3011,3.3111,3.3111,3.3111,3.3111,3.3111,3.3111,3.3111,3.3111,3.3111,3.3111,3.3111,3.3111,3.3111,3.3111,3.3111,3.3294,3.3445,3.3445,3.3671,3.3947,3.4248,3.4248,3.4525,3.5031,3.5031,3.5353,3.5906,3.6254,3.6405,3.6405,3.6405,3.6405,3.6405,3.6405,3.6405,3.6405,3.6405,3.6405,3.6405,3.6405,3.6405,3.6405,3.6405,3.6405,3.6405,3.6405,3.6405,3.6803,3.9139,3.9913,4.0318,4.2618,4.329,4.329,4.329,4.329,4.329,4.329,4.329,4.329,4.329,4.329,4.329,4.329,4.329,4.329,4.329,4.329,4.329,4.329,4.329,4.329,4.329,4.329,4.329,4.329,4.329,4.3693,4.4699,4.5153,4.6028,4.7473,4.7966,4.845,4.8987,4.9018,4.9018,4.9018,4.9018,4.9018,4.9018,4.868,4.8376,4.8037,4.8037,4.8037,4.8037,4.8037,4.8037,2.6915,2.9059,3.052,3.2345,3.3461,3.3935,3.3448,3.3009,3.2763,3.2763,3.2026,3.1637,3.2491,3.2767,3.2867,3.2867,3.2993,3.3111,3.3111,3.3111,3.3111,3.3111,3.3111,3.3111,3.3111,3.3111,3.3111,3.3111,3.3111,3.3111,3.3111,3.3111,3.3269,3.3671,3.3696,3.3947,3.45,3.4801,3.5082,3.5508,3.6107,3.6405,3.6405,3.6405,3.6405,3.6405,3.6405,3.6405,3.6405,3.6405,3.6405,3.6405,3.6405,3.6405,3.6405,3.6405,3.6405,3.6405,3.6405,3.6405,3.6803,3.9139,3.9913,4.0318,4.2618,4.329,4.329,4.329,4.3409,4.3529,4.3529,4.3678,4.3798,4.3798,4.3798,4.3708,4.3349,4.329,4.329,4.329,4.329,4.329,4.329,4.329,4.329,4.329,4.329,4.329,4.329,4.329,4.3606,4.432,4.4662,4.5374,4.6763,4.7306,4.7901,4.8608,4.8861,4.9018,4.9018,4.9018,4.9018,4.9018,4.9018,4.9018,4.9018,4.9018,4.9018,4.9018,4.9018,4.9018,2.4858,2.6738,2.8314,3.0645,3.2213,3.3072,3.275,3.2351,3.2052,3.2052,3.1703,3.1411,3.1461,3.1913,3.2265,3.2265,3.2717,3.3111,3.3111,3.3111,3.3111,3.3111,3.3111,3.3111,3.3111,3.3111,3.3111,3.3111,3.3111,3.3111,3.3111,3.3111,3.3093,3.3162,3.3162,3.3395,3.3947,3.4931,3.5483,3.5508,3.6107,3.6405,3.6405,3.6405,3.6405,3.6405,3.6405,3.6405,3.6405,3.6405,3.6405,3.6405,3.6405,3.6405,3.6405,3.6405,3.6405,3.6405,3.6405,3.6405,3.6803,3.9139,3.9913,4.0318,4.2618,4.329,4.329,4.329,4.3738,4.4257,4.4257,4.4736,4.5185,4.5185,4.5185,4.4855,4.3559,4.329,4.329,4.329,4.329,4.329,4.329,4.329,4.329,4.329,4.329,4.329,4.329,4.329,4.3329,4.3369,4.4205,4.4849,4.4962,4.659,4.7638,4.7671,4.8513,4.9018,4.9018,4.9018,4.9018,4.9018,4.9018,4.9018,4.9018,4.9018,4.9018,4.9018,4.9018,4.9018,2.3759,2.5615,2.7479,2.9596,3.0977,3.1894,3.2198,3.1853,3.1483,3.1483,3.0894,3.0357,3.0357,3.1085,3.1813,3.2164,3.239,3.2641,3.3061,3.3111,3.3111,3.3111,3.3111,3.3111,3.3111,3.3111,3.3111,3.3111,3.3111,3.3111,3.3111,3.3111,3.3111,3.3111,3.3111,3.3169,3.337,3.4123,3.45,3.45,3.5403,3.583,3.5855,3.6207,3.6405,3.6405,3.6405,3.6405,3.6405,3.6405,3.6405,3.6405,3.6405,3.6405,3.6405,3.6405,3.6405,3.6405,3.6405,3.6896,3.7769,3.936,4.0404,4.1295,4.282,4.3589,4.3958,4.3958,4.4436,4.4945,4.4945,4.5125,4.5304,4.5304,4.5304,4.5155,4.4706,4.4586,4.4586,4.4586,4.4257,4.3958,4.3958,4.3559,4.329,4.329,4.329,4.329,4.329,4.329,4.329,4.329,4.3615,4.412,4.4737,4.5992,4.6968,4.7539,4.8482,4.9018,4.9018,4.9018,4.9018,4.9018,4.9018,4.8702,4.8129,4.8129,4.7803,4.7205,4.7836,4.8129,2.2413,2.3939,2.5937,2.8603,2.945,3.0103,3.1997,3.1808,3.1189,3.1307,3.079,3.0292,3.0292,3.0593,3.1035,3.1587,3.1813,3.2139,3.2717,3.2792,3.2867,3.3086,3.3111,3.3111,3.3111,3.3111,3.3111,3.3111,3.3111,3.3111,3.3111,3.3111,3.3111,3.3111,3.3111,3.3111,3.3111,3.3621,3.3897,3.3897,3.4781,3.5332,3.5508,3.5931,3.6182,3.6405,3.6405,3.6405,3.6405,3.6405,3.6405,3.6405,3.6405,3.6405,3.6405,3.6405,3.6405,3.6405,3.6405,3.6896,3.7815,3.936,4.0544,4.1652,4.3186,4.4107,4.4646,4.4646,4.5125,4.5633,4.5633,4.5813,4.5963,4.5963,4.5963,4.5963,4.5963,4.5603,4.5304,4.5304,4.4945,4.4646,4.4646,4.4287,4.3947,4.3947,4.3947,4.3947,4.3947,4.3947,4.3947,4.3947,4.3947,4.4148,4.4572,4.5503,4.6215,4.6625,4.7836,4.8545,4.8545,4.8829,4.9018,4.9018,4.9018,4.8353,4.7138,4.744,4.744,4.7138,4.7138,4.7306,0.0,0.0,0.0,0.0,0.0,0.0,3.1924,3.1904,3.1101,3.148,3.1343,3.1188,3.1241,3.0495,2.9994,3.0547,3.1035,3.1562,3.2114,3.219,3.239,3.3011,3.3043,3.3043,3.3043,3.3111,3.3111,3.3111,3.3111,3.3111,3.3111,3.3111,3.3111,3.3111,3.3111,3.3111,3.3111,3.3621,3.3872,3.3872,3.4424,3.4931,3.5483,3.5483,3.5855,3.6405,3.6405,3.6405,3.6405,3.6405,3.6405,3.6405,3.6405,3.6405,3.6405,3.6405,3.6405,3.6405,3.6405,3.6477,3.6922,3.9166,4.0387,4.1371,4.3632,4.4796,4.5334,4.5334,4.5813,4.6309,4.6309,4.683,4.7309,4.7309,4.7309,4.7309,4.7309,4.6292,4.5364,4.5364,4.5334,4.5334,4.5334,4.5304,4.5304,4.5304,4.5304,4.5304,4.5304,4.5304,4.5304,4.5304,4.5304,4.5035,4.4407,4.5175,4.5487,4.4905,4.6585,4.7605,4.7638,4.8515,4.8987,4.9052,4.8987,4.8064,4.6244,4.7138,4.7998,4.8798,4.7036,4.6696,2.0838,0.0,0.0,0.0,0.0,0.0,0.0,2.8303,2.8767,3.0807,3.0621,3.0534,3.1954,3.1426,3.0861,3.1017,3.0904,3.1009,3.1537,3.1612,3.1687,3.1838,3.2215,3.2466,3.2466,3.2842,3.3111,0.0,3.3111,3.3111,3.3111,3.3111,3.3111,3.3111,3.3111,3.3111,3.3111,3.3262,3.3294,3.3319,3.3872,3.4424,3.4906,3.5307,3.5855,3.6405,3.6405,3.6405,3.6405,3.6405,3.6405,3.6405,3.6405,3.6405,3.6405,3.6405,3.6405,3.6405,3.6405,3.78,3.9717,4.0343,4.2122,4.4154,4.484,4.5514,4.6022,4.6022,4.6531,4.704,4.704,4.716,4.7309,4.7309,4.7309,4.7309,4.7309,4.701,4.6741,4.6741,4.6381,4.6022,4.6022,4.5633,4.5304,4.5304,4.5304,4.5304,4.5304,4.5304,4.5304,4.5304,4.5304,4.5214,4.5035,4.5877,4.6346,4.616,4.731,4.832,4.9085,4.8861,4.9058,4.9796,4.8588,4.7737,4.7205,4.6765,4.5996,4.4899,4.5782,4.6349,2.1784,2.2503,0.0,0.0,0.0,0.0,2.723,2.7355,2.7717,3.0659,3.0737,3.0727,3.214,3.1858,3.1379,3.1379,3.1373,3.1358,3.1105,3.106,3.116,3.1361,3.1662,3.1863,3.1863,3.239,3.2717,3.2717,3.2943,3.3111,3.3111,3.3111,3.3111,3.3111,3.3111,3.3111,3.3111,3.3111,3.3111,3.3111,3.3395,3.3972,3.4726,3.5006,3.5629,3.6405,3.6405,3.6405,3.6405,3.6405,3.6405,3.6405,3.6405,3.6405,3.6405,3.6405,3.6405,3.6524,3.7245,3.8642,4.0304,4.1563,4.3373,4.5073,4.5597,4.6202,4.6741,4.6741,4.701,4.7309,4.7309,4.7309,4.7309,4.7309,4.7309,4.7309,4.7309,4.7309,4.7309,4.7309,4.698,4.6741,4.6741,4.6411,4.6142,4.6142,4.6142,4.6142,4.6142,4.6142,4.6142,4.6142,4.6142,4.6022,4.5753,4.6202,4.6417,4.6112,4.6998,4.7807,4.8432,4.8411,4.8751,4.9456,4.8498,4.7668,4.7036,4.6067,4.4818,4.3369,4.5274,4.5996,2.3362,2.3909,0.0,0.0,2.4739,0.0,2.7884,2.756,2.732,3.0225,3.069,3.0875,3.1775,3.157,3.1329,3.1329,3.193,3.1965,3.0839,3.0666,3.0802,3.1201,3.126,3.1311,3.1311,3.1813,3.2114,3.2114,3.2641,3.3061,3.3111,3.3111,3.3111,3.3111,3.3111,3.3111,3.3111,3.3111,3.3111,3.3111,3.3111,3.3621,3.4625,3.4655,3.5303,3.6329,3.638,3.6405,3.6405,3.6405,3.6405,3.6405,3.6405,3.6405,3.6405,3.6405,3.6405,3.6669,3.8329,3.9097,3.983,4.2584,4.4152,4.5069,4.6113,4.683,4.7309,4.7309,4.7309,4.7309,4.7309,4.7309,4.7309,4.7309,4.7309,4.7309,4.7309,4.7309,4.7309,4.7309,4.7309,4.7309,4.7309,4.7309,4.7309,4.7309,4.7309,4.7309,4.7309,4.7309,4.7309,4.7309,4.7309,4.707,4.6429,4.6399,4.6172,4.5544,4.6316,4.6815,4.6933,4.7662,4.8276,4.8684,4.8521,4.7649,4.6032,4.5079,4.4167,4.3329,4.5196,4.5525,2.5255,2.5615,2.6004,2.5202,0.0,0.0,2.364,2.4567,2.5974,2.6632,2.7165,2.8162,3.0388,3.016,2.9584,2.9584,3.0397,3.1023,3.1071,3.1078,3.0827,3.0198,3.0507,3.0758,3.0758,3.1235,3.1562,3.1562,3.2064,3.2591,3.3043,3.3111,3.3111,3.3111,3.3111,3.3111,3.3111,3.3111,3.3111,3.3111,3.3111,3.342,3.4073,3.4525,3.5031,3.5683,3.6182,3.6405,3.6405,3.6405,3.6405,3.6405,3.6405,3.6405,3.6405,3.6405,3.6405,3.6528,3.7295,3.9175,4.1434,4.2554,4.4653,4.681,4.7013,4.7219,4.7309,4.7309,4.7309,4.7309,4.7309,4.7309,4.7309,4.7309,4.7309,4.7309,4.7309,4.7309,4.7309,4.7309,4.7309,4.7309,4.7309,4.7309,4.7309,4.7309,4.7309,4.7309,4.7309,4.7309,4.7309,4.7309,4.7309,4.7249,4.713,4.71,4.707,4.692,4.7061,4.7551,4.8357,4.8,4.8215,4.9148,4.8055,4.6657,4.5079,4.4051,4.3488,4.3329,4.4548,4.4548,2.6871,2.7081,2.75,2.7171,0.0,0.0,0.0,2.4627,2.5076,2.6752,2.6572,2.6811,2.9116,2.8914,2.8583,2.9227,3.0303,3.1062,3.1129,3.1583,3.1536,3.0582,3.0726,3.0907,3.0907,3.0976,3.111,3.1361,3.1637,3.2039,3.2616,3.2641,3.2767,3.3111,3.3111,3.3111,3.3111,3.3111,3.3111,3.3111,3.3111,3.337,3.3922,3.4474,3.4981,3.5533,3.6132,3.6405,3.6405,3.6405,3.6405,3.6405,3.6405,3.6405,3.6405,3.6405,3.6581,3.7074,3.8888,4.0707,4.2554,4.4383,4.6035,4.7309,4.7309,4.7309,4.7309,4.7309,4.7309,4.7309,4.7309,4.7309,4.7309,4.7309,4.7309,4.7309,4.7309,4.7309,4.7309,4.7309,4.7309,4.7309,4.7309,4.7309,4.7309,4.7309,4.7309,4.7309,4.7309,4.7309,4.7309,4.7309,4.7309,4.7309,4.7309,4.7309,4.7309,4.7309,4.7309,4.7538,4.803,4.7696,4.7825,4.8498,4.7491,4.6573,4.5765,4.4739,4.3917,4.3329,4.4143,4.4285,2.8873,2.9026,2.9535,0.0,0.0,2.6722,0.0,0.0,0.0,0.0,0.0,0.0,0.0,0.0,0.0,2.8457,0.0,0.0,0.0,3.133,0.0,3.1002,3.1133,3.1303,3.1303,3.0634,3.0503,3.1185,3.0934,3.1135,3.2014,3.2164,3.2416,3.2893,3.3061,3.3111,3.3111,3.3111,3.3111,3.3111,3.3111,3.3319,3.3771,3.4424,3.4931,3.5382,3.6337,3.6593,3.6405,3.6615,3.6593,3.6405,3.6405,3.6405,3.6452,3.6662,3.6947,3.7622,4.073,4.2159,4.3166,4.6006,4.7106,4.7309,4.7309,4.7309,4.7309,4.7309,4.7309,4.7309,4.7309,4.7309,4.7309,4.7309,4.7309,4.7309,4.7309,4.7309,4.7309,4.7309,4.7309,4.7309,4.7309,4.7309,4.7309,4.7309,4.7309,4.7309,4.7309,4.7309,4.7309,4.7309,4.7309,4.7309,4.7309,4.7309,4.7309,4.7309,4.7309,4.7309,4.7309,4.7309,4.7462,4.7698,4.7181,4.6841,4.6717,4.5941,4.494,4.3678,4.4257,4.4496,0.0,0.0,0.0,0.0,2.9777,0.0,0.0,0.0,2.5704,2.3781,0.0,0.0,0.0,0.0,0.0,0.0,0.0,0.0,2.6965,2.9053,3.051,2.9948,3.0884,3.1548,3.1548,2.995,2.9398,3.0597,2.9327,2.9352,3.1386,3.1938,3.224,3.2315,3.2817,3.3111,3.3111,3.3111,3.3111,3.3111,3.3111,3.3119,3.3219,3.4248,3.4705,3.4921,3.6981,3.7335,3.6499,3.7494,3.7335,3.6405,3.6405,3.6405,3.6546,3.754,3.7603,3.7622,4.0665,4.2141,4.3027,4.496,4.6388,4.7309,4.7309,4.7309,4.7309,4.7309,4.7309,4.7309,4.7309,4.7309,4.7309,4.7309,4.7309,4.7309,4.7309,4.7309,4.7309,4.7309,4.7309,4.7309,4.7309,4.7309,4.7309,4.7309,4.7309,4.7309,4.7309,4.7309,4.7309,4.7309,4.7309,4.7309,4.7309,4.7309,4.7309,4.7309,4.7309,4.7309,4.7309,4.7309,4.7462,4.7698,4.7645,4.7305,4.6717,4.6599,4.6051,4.5065,4.5155,4.5185,0.0,0.0,0.0,0.0,0.0,0.0,2.5794,0.0,2.4777,0.0,0.0,0.0,0.0,0.0,0.0,0.0,2.586,0.0,0.0,0.0,2.8658,2.9803,0.0,0.0,2.9629,2.8586,2.8518,3.0019,2.8574,2.8599,3.0834,3.116,3.1562,3.219,3.2441,3.2742,3.3111,3.3111,3.3111,3.3111,3.3111,3.3244,3.3571,3.4374,3.5238,3.6308,3.7539,3.7861,3.7402,3.788,3.7402,3.6405,3.6405,3.6405,3.6502,3.73,3.8093,3.9112,4.1458,4.3174,4.4516,4.6034,4.6887,4.7309,4.7309,4.7309,4.7309,4.7309,4.7309,4.7309,4.7309,4.7309,4.7309,4.7309,4.7309,4.7309,4.7309,4.7309,4.7309,4.7309,4.7309,4.7309,4.7309,4.7309,4.7309,4.7309,4.7309,4.7309,4.7309,4.7309,4.7309,4.7309,4.7309,4.7309,4.7309,4.7309,4.7309,4.7309,4.7309,4.7309,4.7309,4.7309,4.7375,4.7467,4.7479,4.7315,4.7042,4.7042,4.6833,4.6441,4.6082,4.5903,3.3544,0.0,0.0,0.0,0.0,0.0,0.0,0.0,0.0,0.0,0.0,0.0,0.0,0.0,0.0,0.0,0.0,2.5764,0.0,2.5585,0.0,0.0,0.0,0.0,0.0,2.7456,2.7618,2.9491,2.7763,2.772,3.0256,3.0532,3.1035,3.1964,3.2139,3.2491,3.3111,3.3111,3.3111,3.3111,3.3111,3.337,3.3922,3.4474,3.5654,3.7378,3.8229,3.8424,3.8107,3.8469,3.7723,3.6405,3.6405,3.6505,3.6681,3.7394,3.8618,4.0186,4.2417,4.439,4.6077,4.7019,4.7309,4.7309,4.7309,4.7309,4.7309,4.7309,4.7309,4.7309,4.7309,4.7309,4.7309,4.7309,4.7309,4.7309,4.7309,4.7309,4.7309,4.7309,4.7309,4.7309,4.7309,4.7309,4.7309,4.7309,4.7309,4.7309,4.7309,4.7309,4.7309,4.7309,4.7309,4.7309,4.7309,4.7309,4.7309,4.7309,4.7309,4.7309,4.7309,4.7309,4.7309,4.7309,4.7309,4.7309,4.7309,4.7309,4.7309,4.7309,4.68,4.6591,0.0,0.0,0.0,3.079,0.0,0.0,0.0,0.0,2.6333,0.0,0.0,0.0,0.0,0.0,0.0,0.0,0.0,0.0,0.0,0.0,0.0,0.0,0.0,0.0,0.0,2.702,2.6717,0.0,2.6518,2.6339,2.9654,3.0331,3.0859,3.1411,3.1938,3.2491,3.3111,3.3111,3.3111,3.3111,3.3111,3.337,3.3922,3.4474,3.5654,3.7422,3.9114,3.9183,3.8198,3.936,3.8496,3.6405,3.6405,3.6732,3.7306,3.8418,3.9301,4.0328,4.3314,4.561,4.7266,4.7309,4.7309,4.7309,4.7309,4.7309,4.7309,4.7309,4.7309,4.7309,4.7309,4.7309,4.7309,4.7309,4.7309,4.7309,4.7309,4.7309,4.7309,4.7309,4.7309,4.7309,4.7309,4.7309,4.7309,4.7309,4.7309,4.7309,4.7309,4.7309,4.7309,4.7309,4.7309,4.7309,4.7309,4.7309,4.7309,4.7309,4.7309,4.7309,4.7309,4.7309,4.7309,4.7309,4.7309,4.7309,4.7309,4.7309,4.7309,4.7309,4.7279,4.7279,0.0,0.0,3.6836,3.3095,0.0,0.0,0.0,0.0,0.0,0.0,0.0,0.0,0.0,0.0,0.0,0.0,0.0,0.0,0.0,0.0,0.0,0.0,0.0,0.0,0.0,0.0,2.6731,2.8412,2.6985,2.7139,2.9667,2.998,3.0482,3.1361,3.1562,3.2114,3.3111,3.3111,3.3111,3.3111,3.3111,3.3545,3.4449,3.465,3.6282,3.9016,3.9628,3.9667,3.9316,3.9711,3.8541,3.6405,3.6405,3.6757,3.7285,3.8049,3.9236,4.0941,4.3998,4.6035,4.7309,4.7309,4.7309,4.7309,4.7309,4.7309,4.7309,4.7309,4.7309,4.7309,4.7309,4.7309,4.7309,4.7309,4.7309,4.7309,4.7309,4.7309,4.7309,4.7309,4.7309,4.7309,4.7309,4.7309,4.7309,4.7309,4.7309,4.7309,4.7309,4.7309,4.7309,4.7309,4.7309,4.7309,4.7309,4.7309,4.7309,4.7309,4.7309,4.7309,4.7309,4.7309,4.7309,4.7309,4.7309,4.7309,4.7309,4.7309,4.7309,4.7309,4.7309,4.7309,3.8242,3.8601,0.0,3.504,3.3903,0.0,2.9412,0.0,3.0133,0.0,0.0,0.0,0.0,0.0,0.0,0.0,0.0,0.0,0.0,2.1834,0.0,0.0,0.0,0.0,0.0,0.0,2.6047,2.8687,2.6908,2.6933,0.0,2.9669,3.008,3.1361,3.1386,3.1938,3.3111,3.3111,3.3111,3.3111,3.3111,3.3646,3.468,3.468,3.634,3.9271,3.9711,3.9667,3.9271,3.9711,3.8541,3.643,3.6631,3.7295,3.8165,3.8061,3.9602,4.2127,4.456,4.6211,4.7309,4.7309,4.7309,4.7309,4.7309,4.7309,4.7309,4.7309,4.7309,4.7309,4.7309,4.7309,4.7309,4.7309,4.7309,4.7309,4.7309,4.7309,4.7309,4.7309,4.7309,4.7309,4.7309,4.7309,4.7309,4.7309,4.7309,4.7309,4.7309,4.7309,4.7309,4.7309,4.7309,4.7309,4.7309,4.7309,4.7309,4.7309,4.7309,4.7309,4.7309,4.7309,4.7309,4.7309,4.7309,4.7309,4.7309,4.7636,4.7636,4.7309,4.7679,4.7849]}]]